GFSCGP_sfc_thetae_000.txt.gz
Theta_e
311 304 299 300 299 296 294 290 289 293 298 297 295 295 298 298 296 295 296 298 300 302 302 306 307 307 309 309 309 309 311 312 319 321 321 320 324 323 322 322 322 321 320 319
304 299 304 304 299 296 294 291 289 294 298 295 293 294 297 294 296 297 299 299 301 302 303 305 306 305 306 306 308 308 309 310 314 319 321 323 322 323 324 325 325 324 324 323
300 303 307 302 296 295 292 290 290 293 296 296 293 292 291 295 297 299 299 300 301 302 303 304 304 304 304 304 304 306 308 311 312 318 321 321 322 321 321 322 323 325 326 326
300 301 302 300 296 294 290 296 296 295 291 287 292 285 287 292 295 296 296 298 299 301 302 303 304 304 304 304 304 306 307 307 309 311 312 312 313 313 316 317 319 319 321 323
299 298 299 296 296 296 294 298 295 293 289 287 288 286 288 293 293 296 296 297 298 300 302 303 303 305 304 304 304 305 306 307 306 306 306 306 306 309 311 311 310 311 314 317
296 300 298 297 298 298 299 294 292 290 288 283 287 288 287 290 294 295 295 297 299 300 301 302 303 305 304 304 304 305 305 305 306 305 304 304 303 303 305 304 306 307 309 312
295 292 293 297 293 293 293 289 284 282 282 283 287 286 290 294 295 299 297 297 298 300 301 302 301 303 303 303 303 305 305 304 304 304 304 304 303 303 303 303 303 304 305 306
288 287 291 294 294 291 290 290 285 281 281 284 287 284 290 293 296 299 300 299 298 300 301 301 301 302 302 303 303 303 303 303 304 304 304 304 304 304 304 304 303 304 304 305
288 287 293 294 293 295 290 288 292 288 285 284 287 290 291 295 296 297 297 298 297 299 300 301 301 302 302 302 301 301 302 302 303 303 304 304 304 304 303 303 304 304 304 306
292 285 291 293 294 292 291 293 287 287 282 280 283 284 288 290 293 296 296 297 298 298 300 301 301 302 301 300 300 301 302 302 302 303 302 303 303 303 302 302 301 302 302 303
295 291 289 292 290 290 290 287 287 288 286 282 280 284 291 291 294 296 297 298 298 298 299 300 301 300 300 300 301 301 301 300 300 301 301 300 301 301 300 299 299 299 300 300
298 292 286 289 293 293 291 291 289 285 283 283 282 285 293 292 294 296 297 299 298 299 299 299 299 299 300 299 299 299 298 297 297 298 298 297 299 297 296 296 296 297 297 297
299 292 286 287 291 293 291 292 291 290 288 285 283 285 294 294 294 296 297 298 298 299 298 296 297 298 298 298 297 296 295 294 295 296 295 295 295 293 292 292 293 294 294 295
301 292 290 288 289 292 290 293 292 289 285 285 285 286 290 293 295 296 298 299 297 299 297 295 296 297 297 296 295 293 292 292 293 293 292 292 290 290 290 291 291 291 292 292
296 289 290 290 291 291 291 292 292 290 288 286 287 289 291 293 294 295 296 296 297 295 295 295 296 295 294 293 291 290 290 290 291 290 290 289 289 289 289 288 288 289 289 290
295 289 289 286 289 289 287 289 289 289 291 291 290 290 294 296 294 295 293 296 295 294 294 298 297 294 292 290 289 289 288 288 289 287 287 287 286 286 286 286 286 287 287 287
292 289 286 282 288 288 286 288 288 287 288 288 285 289 293 294 296 295 295 296 294 293 296 296 293 292 291 288 288 287 287 287 285 286 284 284 284 284 284 284 284 284 284 285
289 287 286 282 285 280 288 292 293 290 291 291 292 293 294 294 294 293 294 295 292 296 295 293 291 290 289 287 286 286 285 284 283 283 282 283 283 282 283 283 282 282 283 283
290 287 284 282 281 286 289 291 292 290 289 293 293 293 294 294 292 291 295 294 294 294 293 291 290 289 287 286 284 283 281 280 281 281 281 282 282 282 282 281 281 282 282 282
290 289 286 279 279 280 287 292 294 292 284 294 294 294 294 294 289 291 294 295 294 293 292 290 291 288 286 283 281 280 279 279 279 280 281 282 282 281 280 281 281 282 282 282
284 283 282 282 280 284 291 294 294 284 284 293 294 294 294 292 293 293 294 292 292 292 291 290 287 285 283 280 279 279 278 278 279 280 281 281 281 280 281 281 281 281 281 281
284 281 281 282 279 278 293 294 289 291 293 293 293 293 292 293 294 293 293 292 292 290 288 287 283 283 283 282 279 278 277 279 279 280 280 280 280 281 282 280 280 281 280 279
285 289 286 286 285 293 293 293 294 295 293 292 293 293 293 294 293 294 292 292 292 289 286 285 284 283 282 280 279 277 278 279 279 279 279 279 280 280 280 280 279 279 279 279
288 291 289 290 290 291 293 292 293 294 294 294 294 293 292 292 293 292 291 290 290 287 284 284 282 281 279 279 279 278 278 279 278 278 278 279 278 280 280 280 280 279 278 279
289 290 289 288 291 291 292 293 293 293 293 292 292 292 292 291 289 288 289 289 287 284 284 282 281 279 278 278 278 278 279 278 277 277 278 278 279 279 279 279 279 279 280 281
290 289 287 286 291 291 291 292 293 292 292 292 291 290 288 288 288 289 288 284 283 282 282 279 278 277 277 277 277 278 278 278 277 278 278 278 279 279 279 278 278 283 284 285

GFSCGP_sfc_thetae_003.txt.gz
Theta_e
310 302 298 300 300 300 294 291 289 291 295 293 293 294 297 297 295 294 296 297 299 301 302 304 304 304 305 306 307 307 309 310 316 319 318 318 320 321 321 321 321 320 319 318
303 299 304 304 301 296 294 290 290 293 296 293 292 293 296 294 294 294 296 297 299 300 301 303 304 303 303 303 304 305 307 309 313 318 319 321 320 321 322 323 324 324 323 322
299 302 308 305 300 296 292 290 290 290 295 294 292 291 293 293 295 298 297 299 300 301 301 301 302 302 302 302 302 304 305 306 309 314 319 319 319 318 316 317 318 318 319 322
302 304 305 302 297 301 296 296 294 293 290 286 291 284 289 291 293 295 295 297 299 300 300 302 302 302 302 302 303 304 305 305 306 306 307 308 308 308 310 311 310 310 311 313
297 300 301 301 300 298 295 296 293 292 288 285 286 285 289 290 291 294 295 295 297 299 301 301 302 303 302 303 302 303 304 305 304 304 303 303 302 303 304 304 304 305 306 308
298 305 305 303 301 297 297 293 291 288 287 282 286 287 287 288 293 292 294 295 297 299 300 301 302 302 302 301 302 303 304 303 303 304 303 302 301 301 303 302 303 303 304 305
293 293 297 297 294 294 292 289 283 282 282 282 285 284 291 292 293 297 296 295 296 299 299 300 300 301 301 300 301 303 302 302 302 303 302 302 301 301 301 300 301 301 302 302
287 288 291 293 293 290 289 290 284 280 280 282 286 283 290 292 293 297 298 296 296 298 298 299 300 300 299 299 300 300 301 301 301 301 301 300 300 301 300 300 300 299 300 300
287 287 291 292 292 295 288 287 291 287 283 282 285 288 291 294 293 295 295 295 296 297 298 299 299 299 298 298 299 300 300 300 300 300 300 299 298 298 298 297 297 298 297 300
291 284 291 291 293 291 291 293 287 285 281 279 282 283 287 289 291 293 294 295 296 297 298 299 299 298 298 299 299 299 298 297 297 297 297 298 296 296 296 295 294 295 295 296
292 289 287 290 289 288 287 286 286 287 284 280 279 283 290 291 293 294 295 296 296 296 298 298 297 297 298 298 297 296 295 295 294 295 295 294 294 293 292 291 291 292 292 293
295 290 285 286 292 292 289 288 287 284 282 282 280 284 291 291 294 296 296 296 296 297 297 297 297 297 297 296 294 293 293 292 293 293 292 292 290 289 289 289 289 289 289 290
298 290 285 285 290 291 289 289 288 288 286 282 281 284 292 291 293 294 296 297 297 297 296 295 297 297 295 294 292 291 290 290 291 291 290 288 287 287 286 287 287 287 287 287
300 291 288 285 287 290 288 290 289 288 284 283 284 286 289 292 293 294 295 296 295 297 296 295 296 295 293 292 290 289 288 288 288 288 287 285 285 285 285 285 285 285 286 285
295 289 289 288 289 290 290 291 289 287 287 285 285 287 288 290 292 293 294 295 297 297 293 295 295 294 291 289 288 287 287 287 287 286 285 284 284 284 283 283 284 284 284 284
293 287 287 283 287 287 285 287 290 289 289 288 289 288 292 293 293 295 295 293 295 293 292 296 295 292 290 287 286 287 286 285 284 284 283 283 283 282 282 282 283 283 283 283
290 287 284 280 285 285 283 287 286 286 287 288 285 289 292 293 294 293 294 294 295 292 294 295 292 290 288 286 286 284 284 283 282 282 282 282 282 282 282 282 281 281 281 281
288 286 285 282 284 279 287 292 292 289 291 291 293 294 294 293 293 293 293 294 294 293 295 292 290 288 286 285 284 284 284 282 281 280 280 281 281 281 281 281 280 280 281 280
291 288 285 284 283 285 288 291 290 290 290 293 293 293 293 292 291 292 294 293 292 293 292 290 289 287 284 283 284 283 280 279 279 279 279 280 280 280 280 279 279 280 280 280
290 289 287 281 280 281 288 292 295 293 285 293 294 292 292 292 287 290 292 293 292 292 290 288 287 286 285 283 280 279 279 278 278 279 279 280 280 280 279 279 279 280 280 280
284 285 284 284 282 286 291 293 294 284 284 292 292 291 291 290 292 293 293 292 291 290 289 287 287 284 281 282 280 279 279 277 278 279 279 279 279 279 278 279 279 279 279 279
284 282 282 283 281 281 292 292 289 290 292 292 292 292 291 292 293 293 292 291 290 288 287 286 283 282 282 282 281 279 276 278 278 278 278 278 278 279 280 278 279 279 278 278
286 288 286 286 285 292 292 292 293 293 292 292 291 293 292 292 292 293 292 290 290 287 284 283 282 282 282 281 280 276 277 278 278 277 277 277 278 278 278 278 278 278 278 277
287 290 288 288 289 290 291 293 293 293 293 293 293 292 292 291 291 291 290 289 287 284 282 282 282 281 280 279 277 276 277 277 277 276 276 277 276 279 279 278 278 278 277 277
288 290 289 288 289 290 291 291 292 293 291 291 291 291 290 289 288 287 288 288 286 284 283 282 280 278 277 277 276 277 277 277 276 276 276 276 277 277 277 278 278 278 279 280
289 289 287 287 291 290 290 292 292 291 290 291 289 289 287 287 287 288 288 289 285 283 282 279 277 277 276 276 276 277 277 277 276 276 277 276 277 277 278 277 277 282 283 284

GFSCGP_sfc_thetae_006.txt.gz
Theta_e
308 302 298 299 303 297 295 291 291 292 294 291 291 291 295 297 296 293 294 297 298 300 300 303 303 302 303 303 303 304 308 310 316 317 317 317 317 319 320 321 322 321 319 318
304 297 303 302 302 300 295 293 289 294 295 291 292 292 295 295 295 293 295 297 298 299 300 301 302 301 301 301 303 304 305 306 311 317 318 319 319 319 320 318 316 316 318 318
298 302 306 303 298 297 294 293 291 292 293 293 290 290 291 292 293 295 296 297 298 299 300 300 300 300 300 301 301 303 303 304 306 308 313 312 313 311 309 309 307 308 309 308
301 305 304 302 299 299 294 296 296 292 289 285 290 283 288 290 291 294 294 296 298 299 299 301 301 301 301 301 302 302 303 304 304 304 304 304 303 302 303 304 303 304 305 305
298 300 301 300 300 301 297 298 296 294 288 284 286 284 287 287 290 292 293 295 296 298 299 300 301 301 301 301 301 301 303 303 303 303 302 302 301 301 301 301 301 301 302 303
297 303 303 303 303 301 300 295 293 290 286 281 286 286 285 287 289 290 292 294 297 298 299 299 300 300 299 300 300 301 302 301 302 302 301 300 299 298 299 299 298 299 300 301
292 299 299 303 296 296 296 292 285 283 281 281 284 283 287 290 292 294 295 294 296 297 298 298 299 298 298 299 299 301 301 300 300 300 299 298 298 297 296 296 296 296 296 297
289 288 292 295 297 294 293 291 283 280 279 281 284 282 288 290 293 294 297 296 296 297 297 298 298 297 297 298 298 299 299 298 298 298 297 296 296 296 295 295 295 294 295 295
289 288 291 293 293 299 289 288 290 285 281 281 284 287 292 292 292 292 294 295 295 296 297 298 297 296 297 297 297 297 297 296 296 296 295 294 293 292 292 292 291 292 292 293
290 284 291 290 294 292 291 293 286 285 280 279 281 282 286 289 290 291 292 293 294 296 297 297 296 296 297 297 296 295 295 294 294 293 293 292 290 290 289 289 288 288 289 289
290 287 288 290 288 288 287 286 286 287 284 280 278 283 288 289 291 292 292 293 294 296 297 296 296 296 296 295 293 292 292 292 291 291 290 288 288 287 287 286 286 286 286 287
294 288 284 288 290 291 288 287 287 284 281 280 280 283 289 290 290 294 294 295 295 296 297 296 295 296 295 293 291 290 290 290 290 290 288 286 286 285 284 284 285 285 284 285
296 288 284 287 289 290 288 287 287 286 285 280 280 284 291 289 292 294 295 296 296 295 295 294 295 295 293 291 290 288 288 287 288 287 285 284 283 282 282 282 283 284 284 284
300 290 287 285 286 289 287 288 287 287 282 282 283 285 289 289 292 293 295 296 296 295 295 295 295 293 292 290 288 287 286 286 286 284 283 282 282 282 281 282 282 283 283 282
296 289 288 286 289 290 289 290 287 287 287 286 287 286 289 290 291 291 292 293 294 295 293 296 295 292 289 287 286 286 285 284 284 282 282 282 282 282 281 281 282 282 282 282
294 288 287 283 287 286 286 289 288 287 287 285 287 287 290 291 292 293 292 294 294 294 293 295 294 291 288 285 285 285 284 282 282 281 281 282 281 281 281 281 281 281 281 281
289 287 286 282 284 284 282 285 288 287 288 289 286 289 291 292 294 294 295 294 295 294 292 294 291 289 286 285 285 283 281 281 281 281 280 281 281 280 280 280 280 280 279 279
288 286 284 280 282 276 284 290 288 288 288 289 291 292 293 293 293 292 292 293 294 292 293 292 289 287 285 284 283 282 281 282 280 279 279 280 280 279 280 279 278 278 279 279
290 287 283 282 280 284 287 289 289 289 288 292 292 293 292 292 291 291 293 293 291 292 292 290 288 286 284 282 281 281 281 278 278 278 278 279 279 278 278 278 277 278 278 279
289 289 286 279 279 279 286 291 293 294 287 294 294 293 293 292 287 290 292 292 291 291 290 288 286 284 282 280 279 278 278 277 277 278 278 278 279 278 277 277 277 278 278 278
285 284 283 284 282 285 291 293 294 285 286 293 292 292 292 290 292 293 292 290 290 289 287 286 285 282 280 279 281 278 277 276 277 278 278 278 278 277 277 277 277 278 278 278
283 281 281 282 281 281 292 292 289 290 291 292 292 292 291 292 292 292 291 290 288 286 286 284 281 280 280 282 278 277 277 277 277 277 277 277 277 278 279 277 277 277 277 276
285 287 285 286 286 291 291 291 293 293 292 291 292 293 292 292 291 292 291 289 288 286 284 283 281 279 278 278 278 275 276 276 277 276 276 276 276 277 277 277 277 277 277 276
286 290 288 288 289 290 292 293 293 293 293 293 293 292 291 289 290 289 290 289 287 284 282 281 280 279 280 279 277 276 276 276 276 275 275 276 275 277 277 276 278 277 276 276
288 289 288 287 288 290 291 292 293 293 292 292 291 290 289 288 287 287 287 287 286 283 282 281 281 280 278 276 276 276 277 276 275 275 275 275 276 275 276 277 277 277 278 279
288 288 287 286 291 290 290 292 292 292 291 289 289 287 286 286 287 287 287 288 285 282 282 280 279 277 276 275 275 276 276 276 275 275 276 276 277 276 277 276 276 281 282 283

GFSCGP_sfc_thetae_009.txt.gz
Theta_e
304 300 298 300 303 300 296 296 295 297 298 295 295 294 298 300 299 299 298 301 302 303 304 305 306 306 308 308 309 310 314 318 323 324 324 325 323 321 318 317 316 316 317 318
299 296 303 304 303 299 296 294 293 296 297 296 296 295 299 299 299 299 298 300 302 303 303 304 305 305 305 306 307 308 309 311 318 324 324 324 319 314 313 312 311 311 309 309
295 300 306 303 300 299 296 294 293 294 295 296 293 293 294 297 298 297 299 301 302 303 302 303 304 304 305 305 306 307 308 308 309 312 314 313 313 311 310 308 307 307 308 306
298 304 303 301 298 300 295 297 298 295 294 290 294 287 292 296 295 296 298 300 301 302 303 303 304 304 305 304 306 307 307 307 308 309 308 307 306 304 305 305 305 305 305 305
297 301 300 299 300 301 297 301 299 297 293 289 289 288 292 292 292 295 296 299 301 302 303 302 303 303 304 305 305 306 306 305 305 305 305 304 302 303 303 302 301 302 302 303
299 305 305 303 303 303 297 296 294 292 290 285 288 290 290 292 293 294 296 298 300 301 302 302 302 303 303 304 305 305 304 302 303 303 302 301 300 299 298 298 297 297 298 299
296 300 303 305 297 298 297 295 287 284 283 284 287 286 291 294 294 297 297 297 299 301 301 301 301 302 302 303 303 303 303 300 300 300 299 299 298 297 295 295 294 293 293 295
289 290 296 302 298 295 296 295 287 282 282 284 286 285 291 295 296 296 299 298 300 300 301 301 301 301 301 301 301 301 300 299 299 297 296 295 295 294 293 293 292 291 291 292
289 289 294 297 298 300 292 292 294 286 285 284 287 290 295 295 294 294 295 297 299 299 300 300 300 301 301 300 299 299 298 297 297 295 293 292 291 291 290 290 290 290 290 290
293 285 291 291 296 294 295 297 289 288 283 281 284 285 289 292 293 293 293 297 298 299 299 299 299 300 299 298 297 297 296 295 294 292 291 289 289 289 289 289 288 288 288 289
290 288 287 291 290 288 290 290 289 289 287 283 281 286 291 292 293 294 294 296 298 298 299 299 298 299 297 296 295 294 294 293 292 290 288 288 287 287 287 287 287 287 287 287
292 288 284 286 291 292 291 290 291 286 283 283 283 286 293 292 292 294 295 296 298 299 299 298 298 297 295 293 293 292 291 291 290 288 287 286 286 286 286 286 286 286 286 286
294 288 284 288 291 292 289 288 289 288 286 282 283 287 293 293 295 295 295 296 297 298 298 297 297 296 294 292 291 290 289 289 288 286 286 285 285 285 285 285 285 285 285 285
299 290 287 285 287 289 287 287 287 290 285 284 284 288 291 293 294 295 296 297 297 297 297 296 296 295 293 291 290 289 287 288 286 285 285 284 284 284 284 285 284 284 284 284
297 289 288 286 290 290 290 289 287 288 290 288 289 287 291 293 294 295 296 296 296 296 295 296 295 293 291 289 288 288 286 285 285 284 284 284 284 284 284 284 284 284 284 283
294 288 287 284 288 289 288 289 290 289 287 288 288 288 293 294 295 296 297 296 296 296 295 297 295 292 290 288 288 287 285 284 284 283 283 283 283 283 283 283 283 283 283 283
292 288 286 284 286 286 284 287 288 289 289 291 288 293 292 294 295 295 296 296 296 296 295 297 295 292 289 288 287 285 283 283 283 282 282 282 282 282 282 282 282 282 281 282
290 288 286 281 284 278 287 290 291 290 289 290 290 290 293 294 294 294 295 296 295 296 294 295 292 289 288 287 285 283 283 283 282 281 281 282 281 281 281 281 281 281 281 281
290 288 284 282 280 284 288 289 288 289 288 291 291 292 293 293 294 294 295 295 294 294 295 293 291 288 286 285 284 283 282 280 280 281 280 281 281 280 280 280 280 281 281 281
290 290 288 282 280 280 287 292 294 294 287 294 294 293 292 293 290 292 294 294 292 292 291 289 287 285 284 282 282 281 280 280 279 280 280 280 280 280 279 280 280 281 281 280
285 285 284 285 282 285 291 293 294 285 288 294 294 294 293 292 293 294 294 292 291 289 288 287 286 284 282 281 282 281 279 279 279 280 280 280 280 279 280 280 280 280 280 280
285 283 283 283 281 281 293 293 289 292 292 293 293 293 293 293 293 293 293 291 289 287 287 285 283 281 281 283 281 279 278 279 279 279 279 279 279 279 280 280 280 280 279 278
285 287 285 286 285 291 291 292 293 293 292 292 293 293 293 293 293 293 292 291 289 287 286 284 282 280 280 280 280 278 279 279 279 278 278 278 279 279 279 279 279 279 279 278
287 290 288 288 289 289 291 292 293 294 293 293 294 293 293 292 292 292 291 290 288 286 284 283 281 280 280 281 280 278 278 278 278 277 277 278 278 280 279 279 279 278 278 278
288 290 288 286 289 290 291 291 292 292 292 292 292 292 291 291 289 289 289 289 288 285 284 282 281 280 280 279 278 278 278 278 277 277 277 278 278 277 278 278 278 279 280 280
288 288 287 286 291 291 291 292 292 292 290 291 291 289 288 289 288 289 288 288 286 283 282 280 280 280 278 277 277 278 278 278 277 277 278 277 278 278 278 277 278 281 282 283

GFSCGP_sfc_thetae_012.txt.gz
Theta_e
303 295 293 300 305 303 302 300 300 303 305 302 303 304 305 310 309 308 308 308 309 309 310 312 313 315 316 318 320 324 327 329 330 330 329 327 321 319 317 316 315 314 313 313
297 292 300 305 305 303 303 299 298 303 302 301 303 304 307 309 307 308 307 308 309 308 309 310 311 312 313 314 315 318 322 327 329 330 326 321 317 315 314 314 312 312 311 310
293 295 303 302 302 301 301 298 299 299 301 303 301 302 304 303 303 303 305 309 309 309 308 309 310 311 313 312 313 314 316 317 318 318 317 317 316 315 312 311 310 309 309 307
295 300 300 301 300 303 296 304 302 300 298 295 301 294 302 304 302 302 304 307 308 308 309 309 310 311 311 312 314 314 314 314 315 316 314 313 311 308 308 308 308 307 306 304
292 295 299 299 300 304 300 305 303 301 298 296 299 295 300 299 300 300 304 306 307 309 309 308 309 310 311 312 312 312 311 311 311 311 311 309 307 307 306 305 304 303 303 302
296 304 300 304 305 305 303 301 300 299 295 292 297 296 298 300 300 301 304 306 307 308 308 308 309 310 310 311 311 310 308 307 308 307 307 306 304 303 302 301 300 299 299 299
292 297 304 307 300 300 302 298 290 288 288 290 293 293 299 302 300 303 303 305 307 308 307 307 307 308 309 309 309 308 306 304 305 304 303 302 301 300 298 297 296 295 295 295
286 289 300 306 302 295 297 300 293 285 288 291 292 291 298 300 302 302 306 307 307 307 308 308 308 308 308 307 307 306 305 303 302 301 299 299 298 297 296 295 294 294 293 293
287 289 300 304 302 302 296 294 299 292 292 291 294 297 301 300 300 300 303 305 306 307 307 307 308 308 307 306 305 304 303 301 300 298 297 295 295 294 293 293 293 292 292 292
293 286 296 297 302 297 300 303 292 294 287 286 291 292 296 298 299 299 301 303 306 307 307 307 307 307 306 304 304 303 302 299 297 296 295 294 293 292 292 292 291 291 291 291
298 295 288 295 295 295 298 296 297 297 293 290 289 293 300 299 300 300 301 305 306 306 306 306 306 306 304 303 302 300 299 297 295 294 293 292 292 291 291 290 290 290 290 290
299 297 291 291 296 300 302 298 298 293 289 292 291 294 299 299 300 300 302 304 306 306 307 306 306 304 302 301 300 298 298 296 294 292 292 291 290 290 290 290 290 290 289 289
299 295 289 289 293 295 297 298 301 299 295 292 291 294 299 301 301 301 302 303 305 305 305 305 304 302 301 299 298 297 296 294 292 291 290 290 289 289 289 289 289 289 288 288
301 297 294 290 293 297 294 296 299 299 293 293 293 296 298 300 301 301 302 304 304 305 304 304 303 302 301 299 297 295 294 293 290 289 289 289 288 288 288 288 288 288 288 287
301 294 296 295 296 297 296 295 295 295 297 293 297 295 300 302 303 303 304 304 303 303 303 303 303 302 300 297 296 294 292 291 289 288 288 288 288 288 288 288 287 287 287 287
300 294 293 291 294 295 294 296 296 297 298 297 298 297 303 302 303 302 303 303 303 303 302 303 303 302 299 296 294 293 290 289 288 287 286 287 286 287 287 287 286 287 287 287
299 296 293 290 291 292 290 294 295 296 298 297 294 300 300 298 300 301 303 303 302 303 302 302 302 301 298 295 295 293 290 288 287 286 286 285 286 286 286 286 286 286 286 286
298 296 293 289 289 284 295 296 300 297 299 299 299 299 300 301 302 302 303 303 302 302 302 303 302 299 296 295 293 290 288 287 286 285 285 285 285 285 285 285 285 285 285 285
299 296 291 288 288 291 292 293 293 295 296 299 299 298 300 299 300 299 300 300 300 300 301 302 301 297 294 292 291 289 287 285 285 285 284 284 284 284 284 284 284 285 285 284
294 298 294 288 286 286 292 296 298 299 292 298 299 298 298 299 296 298 299 299 298 298 298 297 295 293 293 290 289 287 285 283 284 284 284 284 284 284 284 284 284 284 284 284
290 291 290 291 287 291 295 298 299 290 293 298 300 299 299 298 299 299 298 296 297 296 295 293 293 292 291 288 287 284 282 283 284 284 284 284 284 284 284 284 284 284 283 283
290 290 289 292 288 286 297 296 294 297 299 300 300 300 298 298 298 298 297 295 294 292 292 292 291 289 288 287 285 282 283 284 284 284 283 283 284 283 283 284 284 283 283 282
290 295 291 293 292 296 297 297 298 302 299 298 298 299 298 297 297 298 297 295 294 293 291 291 290 287 286 285 284 283 284 283 283 283 283 283 283 283 284 283 282 282 282 281
292 295 293 292 294 294 296 297 298 300 298 299 299 298 299 297 298 297 297 296 294 293 291 290 288 287 285 284 284 284 283 283 282 282 282 283 283 283 283 283 282 281 281 280
295 295 293 291 293 295 296 297 298 297 298 297 297 298 297 297 296 296 296 295 295 293 290 289 288 287 286 284 283 283 283 282 282 282 282 282 282 282 282 282 281 281 282 282
295 295 294 294 298 298 297 298 298 297 297 297 296 295 294 296 295 295 294 295 294 291 290 288 287 286 283 282 282 282 282 282 281 281 282 282 282 282 281 280 281 283 283 284

GFSCGP_sfc_thetae_015.txt.gz
Theta_e
301 294 291 297 298 301 301 300 300 304 307 306 304 304 307 310 311 310 310 310 311 312 313 315 316 318 319 323 326 328 328 330 331 331 329 324 319 318 316 315 314 313 313 313
295 290 298 300 300 300 301 299 300 303 306 304 303 303 307 310 310 312 310 310 311 311 311 313 314 315 316 318 322 325 327 330 329 325 323 320 317 315 314 314 312 311 309 308
291 294 300 298 297 298 300 299 299 299 304 304 303 301 304 309 311 310 310 312 312 310 310 311 312 313 315 315 317 318 318 319 319 320 319 317 317 316 312 310 309 308 307 304
292 297 292 296 294 298 295 303 302 301 300 294 304 293 302 306 304 305 307 310 310 310 311 311 312 312 313 314 316 316 316 316 317 318 316 314 311 307 308 308 307 307 305 302
290 293 292 294 295 302 298 305 302 302 300 298 298 296 300 306 303 304 306 309 310 310 310 310 311 312 313 314 314 313 313 312 313 313 312 310 308 307 307 306 304 303 302 301
293 298 298 298 301 302 305 303 302 301 298 291 297 297 298 301 303 305 306 308 309 309 310 311 311 312 312 313 312 312 310 309 309 309 308 307 306 305 303 302 300 300 299 299
290 290 298 302 299 302 301 297 289 288 288 289 299 297 300 301 303 305 305 307 308 309 309 309 309 310 310 310 310 308 307 305 306 305 305 304 303 302 299 299 297 296 296 295
285 284 291 300 299 295 297 298 291 285 287 291 296 292 298 304 305 307 308 308 309 309 309 309 310 310 310 309 308 307 305 303 303 302 301 301 300 299 297 296 296 295 294 294
287 287 299 302 303 301 295 295 300 294 296 293 295 299 301 303 303 303 306 307 307 308 309 309 310 310 309 308 308 306 304 302 301 300 299 298 297 296 295 295 294 294 293 292
291 286 294 299 302 300 300 304 294 296 287 287 293 295 296 299 301 302 303 306 307 308 309 309 309 309 309 307 306 306 304 301 300 299 298 296 295 294 294 294 292 292 292 292
294 287 288 296 296 295 297 296 299 299 296 290 290 293 303 301 302 302 304 307 307 308 308 308 309 309 307 306 305 303 301 299 298 297 296 295 294 293 293 292 291 291 291 291
298 294 287 291 299 304 302 298 299 294 291 294 293 293 302 302 303 303 304 306 308 309 309 308 308 307 305 304 303 302 301 299 297 296 295 293 293 293 292 291 290 290 290 290
299 294 288 289 294 297 297 300 302 301 300 294 291 294 302 304 303 303 304 306 308 308 308 308 307 305 304 303 302 300 299 297 296 294 293 293 292 291 290 290 290 290 289 289
303 296 294 290 294 296 294 297 300 298 294 294 296 297 299 302 303 303 304 306 307 307 307 307 306 305 304 303 301 299 298 296 294 293 292 291 290 290 289 289 289 289 288 288
301 295 297 297 298 299 297 298 298 297 299 295 298 297 301 304 304 305 305 306 306 306 306 306 306 305 304 302 300 298 297 294 293 291 290 289 289 289 289 288 288 288 288 288
302 295 296 294 297 297 296 298 299 299 300 299 300 299 307 306 306 306 305 305 305 305 306 306 306 306 303 301 299 297 294 292 291 290 288 288 288 288 288 288 287 287 288 288
297 297 294 291 295 295 291 296 297 298 300 300 296 301 307 302 303 304 305 305 305 305 306 306 306 306 304 301 298 295 293 291 290 288 287 287 287 287 287 287 287 287 287 287
298 297 296 291 293 285 296 299 301 299 300 302 302 304 303 304 304 305 307 305 305 305 305 305 306 305 303 300 297 295 291 290 288 287 286 286 286 286 286 286 286 286 286 286
301 298 294 290 290 295 297 295 297 298 297 302 302 303 303 303 302 300 303 305 304 304 305 306 306 303 299 297 294 291 289 288 287 286 286 286 285 285 285 285 285 286 286 285
299 301 296 293 288 286 294 298 300 302 293 304 305 303 301 300 296 299 301 302 301 302 303 303 301 298 296 294 292 290 288 286 285 285 285 285 285 285 284 285 285 286 285 285
290 292 289 289 289 295 298 299 301 290 295 300 302 303 301 299 301 301 300 299 300 300 298 297 296 295 293 292 291 289 286 285 285 285 285 285 285 285 285 285 285 285 284 284
292 290 290 292 289 286 300 298 294 299 301 301 302 303 301 300 299 299 298 297 296 295 294 295 294 292 291 290 289 286 284 285 285 285 285 285 285 285 285 285 285 285 284 283
293 297 295 296 295 298 300 300 301 304 302 302 302 302 300 299 298 298 297 296 295 294 293 294 292 290 289 288 287 285 285 285 284 284 284 284 284 285 285 284 284 283 283 281
295 296 296 294 296 297 299 299 301 304 302 302 301 300 300 298 298 298 297 296 295 294 293 293 291 289 287 286 285 285 285 284 284 283 283 284 284 284 284 284 284 282 281 281
296 296 296 295 295 296 298 299 300 300 300 299 300 300 300 299 298 298 298 297 296 295 293 292 291 290 287 286 285 284 284 284 283 283 283 283 284 283 283 283 283 282 282 282
297 297 295 294 299 300 299 300 300 299 298 298 297 297 298 299 297 298 297 297 296 294 292 291 290 289 286 285 284 284 284 283 282 282 282 283 282 283 282 282 281 285 285 285

GFSCGP_sfc_thetae_018.txt.gz
Theta_e
298 293 290 293 296 296 296 296 296 300 306 303 302 302 304 307 307 305 305 304 304 306 309 310 311 313 316 320 321 322 323 324 325 325 321 315 311 309 308 308 307 306 305 306
293 289 294 297 297 296 296 295 296 301 304 303 301 301 304 305 306 306 305 305 304 306 306 308 309 309 313 317 319 321 322 320 319 318 315 313 310 308 308 307 305 303 301 301
288 292 297 295 293 293 293 294 295 296 302 303 298 296 299 303 305 306 308 307 306 306 305 306 306 308 309 310 311 313 314 314 314 313 313 311 311 308 305 304 302 301 299 298
291 295 293 292 291 294 289 298 298 299 296 291 298 286 296 301 303 305 304 303 305 305 306 306 307 307 307 308 310 311 312 312 313 312 310 307 303 301 302 301 300 299 298 295
288 291 290 290 292 295 292 300 298 298 296 296 296 290 295 300 300 302 300 301 305 305 305 305 306 308 309 308 307 306 307 307 307 306 305 303 301 300 300 299 297 296 296 294
291 297 295 293 295 295 297 297 297 298 296 289 293 292 292 296 299 299 300 302 305 305 305 306 307 308 307 307 306 304 303 303 303 302 301 300 298 297 296 294 293 293 293 293
289 290 294 296 292 295 295 292 286 286 286 284 294 291 294 296 300 302 301 302 304 305 305 305 305 305 305 304 303 303 302 300 300 299 298 297 296 294 292 292 291 290 290 290
282 281 290 294 290 292 293 289 286 281 282 285 294 288 293 299 301 303 304 304 304 304 304 304 304 304 304 304 302 301 299 298 297 296 295 294 294 293 291 290 290 289 288 288
285 284 295 295 294 298 293 286 295 291 290 287 289 292 294 298 298 300 302 303 303 303 304 304 305 305 304 302 301 299 298 297 296 294 293 291 291 290 289 289 289 288 288 289
288 283 294 295 298 298 298 299 291 292 284 283 287 289 290 293 295 297 300 301 303 304 304 304 305 304 303 302 301 299 297 295 294 293 291 290 289 289 289 288 287 287 287 287
290 286 289 294 294 291 293 293 296 296 292 286 283 286 296 296 298 297 299 303 303 303 304 304 304 304 302 301 299 297 295 294 293 292 290 289 288 288 288 287 286 286 286 286
291 288 285 288 296 300 297 296 295 289 287 289 288 286 297 297 298 299 299 304 304 304 304 304 304 302 300 299 297 296 294 293 292 291 289 289 288 287 286 286 286 286 285 285
292 287 285 288 292 299 295 298 298 297 294 289 285 286 298 297 297 298 299 302 304 304 303 303 302 300 299 298 297 295 294 291 291 290 289 288 287 286 285 285 286 285 285 284
301 293 287 287 291 295 294 296 298 296 289 289 289 289 294 296 297 298 299 301 303 304 304 302 302 299 298 298 296 294 292 291 289 289 288 286 285 285 285 285 285 285 285 284
295 292 292 292 297 297 296 296 297 294 295 289 292 293 294 297 297 298 299 302 303 303 303 302 301 299 298 296 295 293 291 289 289 287 287 286 285 285 285 285 285 285 284 284
295 292 294 292 296 296 295 297 297 297 296 295 296 295 300 299 300 299 298 301 302 302 303 302 302 300 298 295 293 292 290 288 288 286 286 286 285 285 285 285 284 283 283 283
296 294 292 287 292 293 288 294 296 297 298 298 294 298 299 297 299 299 299 301 301 301 302 301 301 300 297 295 293 290 288 287 286 285 285 285 285 284 284 284 283 282 282 282
294 293 293 287 288 280 291 295 298 296 297 299 298 299 299 299 298 299 300 300 300 302 302 302 301 300 297 294 292 289 287 286 286 285 284 285 284 283 283 282 281 281 281 281
298 295 291 285 286 291 292 292 292 293 294 298 297 299 298 298 296 295 298 300 299 300 300 300 300 296 294 292 288 287 286 285 285 284 284 284 283 281 281 280 280 280 280 280
298 297 293 288 282 281 289 294 297 297 288 297 298 298 297 297 290 292 297 298 298 299 299 297 295 294 291 288 288 286 284 283 283 283 283 282 282 281 280 280 279 280 280 281
292 291 290 289 286 290 295 295 297 287 289 296 298 298 297 293 294 296 297 296 296 295 294 293 292 290 288 287 287 284 283 281 282 283 282 282 282 281 280 280 280 280 279 279
290 288 289 289 287 284 296 295 291 295 296 297 298 298 295 295 296 295 295 294 293 292 292 292 289 287 287 288 285 282 280 281 282 282 282 281 280 281 282 280 280 280 278 277
290 293 292 292 292 297 297 297 298 300 297 297 296 297 297 295 294 294 293 292 291 291 291 290 287 286 285 285 283 280 280 282 282 280 280 280 280 280 281 280 279 278 278 277
292 293 291 292 292 293 296 297 297 299 298 298 298 297 297 295 294 293 293 292 291 290 290 288 286 284 282 281 282 281 282 282 281 279 279 279 279 280 280 280 279 278 277 277
292 292 292 291 292 294 296 296 297 297 297 297 297 297 296 296 295 294 293 292 291 290 289 288 286 285 282 282 281 281 281 281 279 278 278 278 279 279 278 279 278 278 278 280
294 293 292 291 297 295 294 296 298 296 295 296 295 294 295 295 294 294 293 293 291 289 289 288 286 283 282 281 280 281 281 280 278 277 278 278 278 278 278 277 278 283 284 285

GFSCGP_sfc_thetae_021.txt.gz
Theta_e
296 290 287 290 294 293 292 290 290 295 302 300 299 300 303 306 306 302 300 300 301 304 306 309 310 313 316 317 318 320 321 322 322 316 311 309 306 306 305 303 302 300 300 300
290 287 292 295 295 295 292 290 290 295 300 299 299 299 303 305 304 304 303 302 301 303 304 307 308 311 314 314 314 315 315 315 317 315 311 309 306 304 303 302 299 298 297 297
287 290 295 293 292 291 291 289 289 290 297 300 297 296 299 303 305 305 304 305 305 304 304 303 305 307 308 308 310 311 311 312 311 311 309 308 306 303 301 299 297 295 295 295
290 293 291 291 290 291 286 293 293 292 293 289 298 288 294 299 299 300 301 300 303 303 304 305 304 305 306 306 308 309 310 310 309 309 307 304 301 299 298 298 296 294 293 293
287 289 289 288 289 292 288 295 293 292 291 291 293 291 291 296 298 301 302 298 302 304 305 304 305 306 306 304 303 303 304 304 304 304 302 301 298 297 297 295 293 292 291 291
290 295 293 291 293 293 294 291 291 292 292 284 290 291 289 293 298 300 301 300 302 303 303 305 306 306 304 302 301 300 301 300 300 300 299 298 295 293 292 291 290 290 290 290
288 289 293 295 290 292 291 286 278 280 281 281 293 291 293 295 298 301 298 301 302 303 304 304 304 303 302 300 299 299 299 297 296 296 295 293 291 290 289 289 288 288 288 287
280 276 288 293 290 288 288 286 281 273 280 284 294 288 291 302 298 302 302 302 302 302 304 304 303 302 301 300 298 297 296 294 294 293 292 291 291 290 289 288 287 286 286 286
280 281 292 293 294 292 287 283 290 286 288 286 288 290 293 295 297 300 300 301 301 301 302 303 303 303 300 298 297 296 295 293 292 291 290 288 288 288 287 286 286 286 286 288
287 281 290 291 295 293 292 295 284 285 281 280 285 285 287 291 293 298 299 299 300 301 302 303 303 302 300 298 296 295 294 292 291 290 288 288 287 287 286 286 285 285 285 285
291 286 286 289 288 287 290 287 291 290 287 283 281 285 292 294 296 297 299 300 300 301 302 302 303 302 300 297 295 293 292 291 290 289 287 287 286 286 285 285 284 284 284 284
291 287 282 286 296 297 295 291 291 284 286 289 285 284 294 295 296 298 299 301 301 302 302 302 302 300 298 296 294 292 291 290 289 288 287 287 286 285 284 284 284 284 284 284
291 286 280 286 291 296 292 294 295 292 293 289 282 284 295 294 295 296 299 300 301 301 301 301 299 298 297 295 293 292 290 289 288 288 287 286 285 284 283 283 284 284 284 283
295 289 286 285 289 294 291 292 293 291 289 289 287 288 290 292 294 295 299 301 301 301 302 300 298 298 297 295 293 291 289 288 288 287 286 284 284 283 283 284 284 284 284 283
294 286 289 290 292 295 295 293 293 293 294 289 289 290 292 294 294 295 300 301 300 301 300 300 298 297 296 294 292 290 288 287 287 286 285 284 284 284 284 284 284 284 283 283
294 286 292 291 296 295 294 296 296 296 296 294 294 292 294 294 296 295 298 301 300 300 301 300 299 297 296 294 291 290 287 286 286 285 284 284 284 284 284 283 283 282 282 282
292 291 292 285 294 294 290 294 295 296 296 297 292 296 295 295 297 296 297 301 301 300 300 300 299 298 295 293 291 288 286 285 284 284 284 284 284 283 283 283 282 281 280 280
292 292 293 287 287 280 290 296 299 297 297 298 297 298 296 295 294 295 296 299 300 301 301 301 299 296 294 291 289 286 285 284 284 284 283 284 284 283 282 281 280 279 279 279
296 292 291 284 284 288 290 291 291 292 292 295 297 297 296 295 295 294 296 297 297 299 299 299 297 294 291 289 287 285 284 284 283 283 283 283 282 281 281 280 278 278 279 279
298 297 292 285 280 280 288 293 294 294 287 294 294 295 295 295 290 290 294 297 296 296 296 293 292 289 287 286 286 284 283 282 282 282 282 282 282 281 279 278 278 279 279 279
291 292 285 287 285 287 293 294 295 285 287 294 295 296 295 292 292 294 295 293 293 292 291 291 289 287 286 285 285 283 282 281 282 282 282 282 281 279 279 278 278 278 278 278
289 289 289 289 286 281 294 292 288 293 294 294 294 294 292 293 293 293 292 291 291 290 289 288 287 286 285 285 284 280 279 281 281 281 281 280 279 280 281 279 279 278 277 276
290 293 291 290 291 296 295 294 296 297 295 294 293 294 294 292 292 291 290 290 289 289 287 287 286 284 283 282 281 279 280 281 281 280 279 278 278 279 279 278 278 277 276 275
292 293 291 291 292 292 294 295 297 297 296 295 295 294 294 291 291 290 290 289 289 289 286 286 284 281 280 280 281 280 280 280 279 278 277 278 278 280 278 278 278 277 275 275
290 292 291 289 291 292 293 294 295 295 295 295 295 295 293 292 291 291 290 289 288 287 286 285 283 281 280 280 279 279 280 279 278 277 277 277 278 277 277 277 277 277 277 279
291 291 290 290 294 293 293 295 296 295 294 295 295 293 293 294 292 291 290 289 288 287 286 285 282 281 279 279 279 279 280 279 277 277 277 277 277 276 276 275 276 282 283 284

GFSCGP_sfc_thetae_024.txt.gz
Theta_e
295 289 286 289 291 292 290 288 287 291 297 295 297 297 301 304 304 302 301 300 299 302 304 306 309 311 314 316 317 318 319 315 313 311 308 305 302 303 301 301 299 298 297 296
291 288 291 292 292 292 291 288 287 291 295 295 296 296 300 303 304 305 306 303 299 301 303 306 309 311 314 314 315 316 318 314 313 310 307 305 302 302 299 297 295 295 294 294
286 289 293 292 290 289 290 289 288 289 293 294 292 290 296 301 304 305 306 306 301 303 303 304 307 308 309 310 311 312 311 310 309 308 306 303 302 300 297 295 293 292 293 293
290 293 291 290 288 290 285 293 292 291 288 282 293 283 291 296 300 302 304 302 302 304 304 304 306 305 306 306 308 308 309 308 308 307 304 302 299 297 296 294 292 291 291 291
287 288 289 287 289 292 287 293 290 290 288 287 287 285 288 296 296 300 303 303 302 303 304 305 306 306 305 305 305 305 306 306 305 304 303 301 297 296 295 292 290 289 289 290
290 295 293 291 292 293 294 290 290 287 286 280 284 286 286 292 296 299 303 299 301 303 303 304 304 304 301 300 300 301 302 301 301 301 298 297 295 292 291 289 289 288 288 288
288 289 293 295 290 292 291 286 278 277 276 276 285 284 287 294 298 300 301 298 300 303 302 303 302 301 299 298 298 298 299 296 296 296 294 292 291 289 288 288 287 287 286 286
282 279 288 293 290 288 287 286 278 270 273 276 289 283 289 298 300 302 301 301 301 301 303 303 302 300 299 298 296 296 295 293 293 292 290 289 289 289 288 287 286 286 285 285
282 281 291 292 293 291 287 283 288 280 283 280 285 288 295 299 295 297 298 299 299 301 302 302 301 300 298 296 295 294 293 291 291 290 289 287 287 287 286 285 285 285 285 287
284 277 287 290 293 293 290 291 281 282 273 274 284 284 288 293 294 295 296 297 299 301 301 301 301 299 297 296 293 292 292 291 289 288 287 287 286 286 285 285 284 284 284 284
288 283 284 288 286 285 287 284 287 285 283 277 278 285 295 295 297 295 297 299 299 300 301 301 300 299 296 295 293 291 290 289 287 287 286 285 285 285 284 283 283 283 283 283
290 287 280 283 291 293 290 287 287 281 280 286 284 284 294 294 297 299 298 299 300 301 301 301 300 297 295 293 292 291 289 288 287 286 286 285 284 284 283 283 283 283 282 283
291 286 280 282 287 290 287 290 290 291 289 283 283 285 294 293 294 298 297 298 299 300 300 300 298 297 294 293 291 290 288 287 286 286 285 284 283 283 282 282 283 283 283 282
295 289 284 281 287 292 288 289 291 290 284 284 283 289 289 291 293 295 297 298 299 300 300 299 298 296 294 292 290 289 287 287 286 286 284 283 283 282 282 283 283 283 283 282
292 286 288 289 289 289 292 291 291 285 289 285 290 292 292 293 293 296 298 298 298 299 299 298 297 295 293 291 289 288 287 286 286 285 284 283 283 283 283 283 283 283 282 282
293 285 285 285 290 290 290 293 293 290 289 288 290 294 296 294 294 295 296 298 298 299 299 298 297 295 293 291 289 288 286 285 286 284 284 284 283 283 283 282 281 281 281 281
291 287 286 286 293 292 289 293 288 288 293 291 292 294 293 294 295 295 296 299 299 299 299 298 297 296 294 291 289 286 285 285 284 284 283 283 283 282 282 281 281 280 279 279
290 289 291 287 290 280 290 295 300 296 297 297 297 295 294 294 293 294 295 299 299 300 300 298 297 296 292 290 288 285 285 284 283 283 283 283 283 282 281 280 279 279 279 279
294 291 288 286 283 287 289 291 291 293 293 293 297 294 294 294 294 293 295 296 298 299 300 299 297 293 289 287 286 285 283 283 283 282 282 282 282 281 280 279 278 278 278 278
295 295 290 283 280 280 287 292 292 292 286 293 293 294 294 294 290 291 292 294 295 295 295 293 291 289 286 285 285 284 282 281 281 282 282 281 281 280 279 278 278 278 277 277
291 289 286 284 285 286 292 293 293 284 286 292 293 294 294 292 292 292 291 290 291 290 289 289 288 286 284 284 284 282 280 281 281 281 281 281 280 279 278 278 277 277 277 276
289 288 287 286 281 279 293 292 287 291 293 292 291 292 291 292 292 291 290 289 289 287 287 287 285 283 283 283 283 280 279 280 280 281 280 279 278 279 280 278 278 278 276 274
287 291 288 289 288 293 293 293 295 295 294 292 291 293 293 291 290 290 289 288 286 286 285 286 284 282 281 280 281 279 278 280 280 279 278 278 278 278 278 278 277 276 275 274
290 293 291 291 291 292 293 295 295 295 294 293 293 293 293 290 290 288 288 287 285 285 284 284 282 280 279 279 279 279 279 279 278 277 276 276 277 279 277 277 277 276 275 274
291 291 290 290 290 291 293 293 294 293 294 293 292 293 291 290 289 288 287 286 285 284 283 283 281 280 278 278 278 279 279 278 277 276 276 276 277 276 276 276 275 276 276 278
290 291 290 290 294 293 292 294 294 294 293 293 292 291 291 291 290 289 288 287 285 284 283 282 280 279 278 278 278 278 278 277 276 276 276 276 276 275 275 275 275 281 282 283

GFSCGP_sfc_thetae_027.txt.gz
Theta_e
294 287 285 289 290 290 289 286 285 290 295 292 291 293 297 300 301 303 301 302 304 301 303 305 306 307 311 312 314 312 316 312 313 310 307 305 304 301 300 300 299 298 296 295
290 286 290 291 290 290 289 287 287 290 293 291 290 290 294 296 297 302 302 304 305 300 302 304 306 309 313 313 314 315 312 311 311 309 304 302 300 298 298 297 296 294 293 293
286 288 293 291 289 287 287 286 287 287 291 292 289 287 290 294 298 302 304 305 305 303 301 302 305 309 310 311 312 313 311 309 307 305 303 300 300 298 296 294 291 291 291 291
289 293 290 288 287 288 284 290 290 289 287 281 288 278 286 290 293 298 301 304 304 300 302 304 306 307 309 310 310 309 308 306 305 305 303 302 299 295 295 291 289 289 290 290
286 288 288 286 288 291 287 292 290 289 285 283 284 280 283 290 291 295 298 302 302 301 303 303 307 309 308 307 306 306 305 305 303 302 302 300 297 295 292 289 287 287 288 288
289 293 291 290 292 292 293 290 290 288 285 277 282 281 281 285 289 295 298 300 301 302 303 304 305 305 302 302 303 304 304 302 301 300 299 298 295 292 290 288 287 287 287 287
289 289 291 294 289 292 291 286 278 276 277 274 282 281 284 288 292 296 298 299 300 300 302 303 303 302 300 301 300 301 302 298 298 297 295 294 292 291 289 287 287 286 285 285
282 281 288 292 290 287 286 286 279 272 272 273 284 279 284 292 295 296 298 299 298 300 302 304 304 302 300 299 299 299 298 295 294 293 290 289 289 289 287 287 286 285 284 284
281 278 289 292 293 291 287 283 288 281 280 278 281 284 290 292 295 296 296 297 297 299 302 303 301 299 298 297 296 296 294 292 291 289 289 287 287 287 286 285 284 284 284 285
285 277 286 289 293 293 289 290 281 282 272 270 275 279 285 288 291 294 293 296 297 300 302 301 300 298 296 294 293 292 293 291 289 287 287 286 285 285 284 284 283 283 283 283
289 283 280 288 286 284 286 284 285 284 279 271 273 277 287 292 295 294 294 296 298 300 300 299 298 297 294 293 292 290 289 288 287 287 285 285 284 284 283 283 283 283 282 282
290 285 279 282 290 292 290 286 286 279 276 279 279 280 292 292 293 295 296 298 300 301 299 299 296 294 293 291 290 288 287 287 286 285 285 284 283 283 282 282 282 282 282 282
291 285 279 281 286 289 286 288 289 288 286 279 276 279 292 293 294 295 297 299 300 299 298 297 295 294 292 290 289 288 287 285 285 285 284 283 282 282 282 282 282 282 282 281
294 288 284 279 284 286 284 286 288 287 281 282 282 284 289 291 294 296 297 299 300 299 298 297 295 293 291 290 288 287 285 286 285 284 283 282 282 282 282 282 282 282 282 281
292 285 287 287 288 288 287 288 287 285 287 283 286 286 289 293 297 297 298 298 298 298 297 296 294 292 290 288 287 286 285 285 285 284 283 282 282 282 282 282 282 282 281 280
293 285 285 284 288 288 287 289 290 288 288 289 290 289 296 296 295 295 296 297 297 297 297 297 295 292 289 288 287 286 285 284 285 283 283 283 282 282 282 281 281 280 280 280
289 286 285 282 291 289 284 288 290 291 292 291 286 291 295 295 295 296 296 298 298 298 298 297 295 293 291 289 287 285 285 284 284 283 283 283 282 282 281 281 280 279 278 278
290 287 287 285 288 281 291 296 295 292 292 292 293 294 296 297 294 296 297 298 298 299 298 297 295 293 290 288 286 285 285 284 283 282 282 282 282 281 281 280 278 277 278 278
295 291 287 286 284 288 288 293 291 290 291 294 292 296 295 294 294 294 295 297 297 299 298 297 296 292 288 287 285 284 283 283 282 281 281 282 281 280 279 278 277 278 277 277
296 295 289 286 281 279 286 290 292 295 286 294 298 297 294 294 291 293 292 295 296 297 296 293 290 288 286 285 285 284 282 281 281 281 281 281 280 279 277 277 277 277 277 276
288 290 287 286 284 285 291 293 292 283 285 292 293 294 293 292 291 289 290 289 291 292 289 289 288 286 284 284 284 282 281 280 281 281 280 280 279 278 277 277 277 277 275 275
287 287 287 284 281 278 292 292 287 289 291 291 291 292 290 289 289 288 288 287 288 287 286 285 284 282 283 284 283 280 280 280 280 280 279 278 277 279 280 278 277 277 275 274
286 290 287 287 286 292 292 292 294 294 293 290 290 292 291 289 288 287 285 285 285 285 284 284 283 281 280 281 282 280 278 279 279 278 277 276 277 277 277 277 276 276 274 274
288 292 290 290 290 290 292 293 294 294 291 291 292 292 292 288 287 285 285 285 284 284 283 283 282 280 278 279 279 279 278 279 277 275 275 276 277 276 276 276 277 276 274 274
291 291 290 289 291 291 292 293 293 292 292 292 292 292 291 290 288 287 285 284 283 283 282 282 281 279 277 278 278 278 278 277 276 276 276 276 276 275 275 275 275 276 276 277
290 291 290 289 294 293 292 294 293 293 292 292 291 290 290 290 288 287 285 284 283 281 281 280 279 278 277 277 277 277 277 277 276 276 276 276 276 274 275 274 275 280 282 283

GFSCGP_sfc_thetae_030.txt.gz
Theta_e
293 288 287 290 291 292 290 287 288 290 293 290 290 291 293 296 297 298 300 302 301 303 306 304 305 305 307 309 310 313 317 313 313 310 308 307 303 301 300 300 299 298 297 295
289 285 289 291 290 289 289 287 287 289 292 290 289 289 292 294 295 298 299 301 302 303 301 303 304 305 310 310 311 313 312 312 313 312 304 303 301 298 298 297 296 296 295 293
285 286 292 290 288 286 285 284 284 284 288 290 288 286 288 292 294 296 297 299 302 303 303 301 302 306 309 310 311 312 309 308 307 304 301 298 297 296 295 294 293 293 291 291
288 292 290 288 286 287 283 289 288 287 285 279 286 277 283 287 290 291 294 297 301 303 301 302 302 306 308 310 311 309 308 305 304 304 302 300 299 296 295 293 292 290 289 289
286 287 287 286 287 289 286 291 288 288 285 283 283 281 281 286 286 288 292 295 299 303 302 301 303 307 308 308 308 306 304 303 302 302 303 300 296 294 292 291 289 286 286 287
290 293 291 288 291 291 292 289 289 289 285 278 282 280 280 283 286 287 293 294 299 302 299 302 304 307 306 305 304 304 303 300 300 300 299 299 294 292 290 288 286 285 286 286
288 290 293 293 287 291 290 286 278 277 277 275 281 280 283 286 288 291 292 295 297 299 299 300 303 305 303 303 303 303 302 299 299 301 299 296 294 292 288 287 286 285 284 284
282 276 289 292 288 285 286 286 279 272 272 272 281 276 282 289 292 294 294 295 296 297 298 301 304 305 304 304 303 303 301 297 298 297 293 291 291 290 288 287 285 284 284 283
281 279 288 291 292 290 287 283 288 281 281 278 278 282 287 291 289 293 292 293 293 295 298 301 304 305 303 302 302 301 297 294 293 291 290 288 288 287 286 284 284 284 283 284
286 279 285 289 291 292 289 290 281 282 274 272 275 276 279 284 287 289 290 291 294 296 299 301 303 301 300 299 296 296 295 292 290 288 288 287 285 285 284 284 283 282 282 282
289 284 280 288 285 284 286 284 286 283 280 270 271 275 282 284 287 289 294 293 293 296 300 300 299 297 295 294 294 291 290 289 287 287 285 285 284 283 283 282 282 282 282 282
289 286 280 282 290 291 289 286 285 278 276 278 274 278 289 288 291 294 295 295 294 298 299 297 295 293 293 291 291 289 288 287 286 285 284 283 283 282 282 281 281 282 281 282
289 285 277 279 285 289 285 287 288 286 285 278 273 278 288 289 290 294 295 295 296 296 295 293 293 292 290 289 288 287 287 285 285 285 284 283 282 281 281 281 281 281 281 281
294 287 282 278 283 286 284 285 287 285 280 280 280 281 286 289 291 292 293 296 296 296 295 294 293 291 289 288 287 286 285 285 284 284 283 282 281 281 281 281 281 281 281 280
291 285 286 287 288 287 286 287 286 284 285 281 284 284 287 290 292 293 295 297 298 297 295 294 291 289 288 286 285 285 284 284 284 283 283 281 281 281 281 281 281 281 281 281
293 285 285 284 288 287 285 287 288 287 287 286 287 286 295 295 296 295 293 297 298 298 296 294 291 289 287 286 285 285 284 283 284 283 282 282 282 281 281 280 280 280 280 279
289 286 285 282 287 287 285 287 288 288 290 288 284 289 295 294 296 296 296 298 299 298 296 294 291 290 288 287 286 284 284 284 283 283 282 282 281 281 280 280 280 279 279 278
289 288 286 283 286 281 290 297 294 291 292 292 292 294 295 296 297 295 297 297 297 298 297 294 292 289 287 286 285 284 284 283 283 282 281 281 281 280 280 279 279 278 278 277
294 291 286 285 284 288 290 293 290 288 289 294 293 294 295 294 293 292 295 297 298 299 298 295 293 289 287 285 285 284 283 282 282 281 281 280 280 280 279 279 278 276 276 276
294 293 289 285 282 280 288 291 295 294 287 294 294 294 294 294 291 292 293 296 297 297 295 292 289 288 285 284 285 283 282 281 281 280 280 280 280 279 278 277 277 276 276 275
289 290 287 286 284 285 291 293 292 284 285 292 295 295 295 293 294 291 292 291 293 293 290 289 288 286 284 284 284 282 281 280 280 280 280 279 279 277 277 276 276 275 275 274
287 287 286 286 283 278 292 291 286 289 291 292 291 292 292 289 289 289 288 288 289 287 286 286 284 283 283 284 283 281 280 279 280 279 278 277 277 279 279 277 276 276 274 273
284 289 286 287 285 291 292 292 293 293 292 289 289 290 290 288 286 286 285 285 284 284 283 284 282 281 281 282 283 279 277 279 278 277 276 276 277 277 277 277 276 275 274 273
287 291 289 289 290 290 292 293 292 292 290 291 291 290 289 285 284 283 284 283 283 283 282 283 282 280 278 279 279 278 278 278 277 275 275 276 276 276 275 276 276 275 274 274
290 291 289 289 291 290 292 291 290 290 291 291 291 290 288 287 285 284 283 282 282 282 283 283 281 279 277 278 278 278 277 277 276 275 276 275 275 275 274 275 274 276 276 276
289 291 289 289 293 292 291 292 292 291 290 291 290 289 289 288 285 284 283 283 282 281 281 279 279 278 277 277 276 276 277 277 276 275 276 276 275 274 274 274 274 280 282 283

GFSCGP_sfc_thetae_033.txt.gz
Theta_e
294 290 287 291 291 291 289 288 287 292 295 292 291 291 294 297 298 297 299 300 302 304 309 311 311 311 311 312 315 317 323 327 324 320 317 314 311 310 305 303 301 300 299 297
290 286 291 292 292 291 290 288 287 290 293 291 290 289 293 295 296 297 298 299 301 304 306 308 309 309 310 313 315 318 323 321 321 321 316 313 310 305 303 300 298 297 296 295
286 288 293 291 288 287 287 286 286 285 289 290 288 286 289 293 295 296 298 300 301 302 304 307 307 308 311 313 314 317 318 317 316 309 306 303 302 301 299 296 295 294 294 294
288 292 290 288 287 288 283 289 288 287 285 280 288 278 286 290 291 293 295 296 298 300 302 306 307 307 310 314 316 316 314 312 310 309 307 306 307 303 300 294 293 292 293 292
286 288 287 287 288 289 286 291 288 288 285 284 284 281 285 288 287 290 293 294 296 300 302 304 307 308 311 314 315 314 312 310 308 309 309 309 307 300 294 292 290 290 290 292
288 293 291 289 291 291 292 289 289 288 286 279 284 282 283 286 288 289 293 295 296 300 302 305 307 308 310 313 313 310 309 306 306 307 306 304 301 293 291 290 289 290 290 290
289 290 293 293 288 290 290 287 278 277 278 276 283 282 284 289 292 292 292 294 296 298 301 303 304 307 309 310 309 308 307 303 304 304 303 300 297 294 291 290 289 288 289 289
281 278 289 293 290 286 287 286 279 273 274 276 281 278 284 290 294 294 295 295 297 298 301 302 304 307 309 310 308 308 305 302 303 302 299 297 294 293 291 290 289 290 289 288
282 280 289 291 292 291 286 283 288 281 282 279 281 283 287 290 290 292 293 295 295 297 298 302 304 307 308 309 308 306 303 301 301 298 295 293 292 291 290 290 290 289 288 287
286 278 285 289 292 292 289 290 281 282 274 273 278 278 280 284 288 290 290 295 296 297 297 301 304 306 308 308 305 304 302 299 297 294 293 291 290 290 289 289 288 288 287 287
290 285 281 288 285 284 286 284 286 285 282 276 274 278 285 286 288 289 294 296 297 298 297 301 304 304 303 301 301 298 296 294 292 291 289 289 288 288 288 287 287 287 287 287
289 286 280 281 288 290 289 287 286 280 278 280 278 279 289 288 291 293 292 297 298 299 299 301 299 297 298 297 296 295 294 292 290 289 289 287 287 287 286 286 286 286 286 286
289 284 278 278 284 288 285 287 288 287 285 279 277 279 290 289 290 292 294 298 298 297 295 294 295 296 295 294 293 293 291 288 287 287 287 286 286 285 285 285 285 286 285 285
293 286 281 277 282 287 283 285 287 285 280 281 280 282 287 289 290 292 295 298 298 296 294 294 293 292 292 291 291 289 287 287 286 286 286 285 285 285 285 285 285 285 285 284
291 285 285 286 287 287 286 285 286 283 284 280 284 283 287 290 291 294 297 297 297 295 293 293 291 290 289 288 288 288 286 286 286 286 286 284 284 285 284 284 284 284 284 284
292 285 286 284 288 288 285 287 287 286 286 285 286 285 292 293 296 296 298 297 297 296 294 292 290 289 288 288 287 287 286 286 287 286 284 284 284 284 284 284 283 283 283 283
290 287 285 282 288 287 284 288 290 289 289 287 284 288 293 293 294 296 297 298 299 299 294 291 290 289 288 287 287 286 286 286 285 284 284 284 284 283 283 283 283 283 282 282
290 287 286 283 286 280 291 297 294 291 291 291 291 293 294 295 297 298 297 298 300 298 294 292 291 288 287 287 286 285 286 285 285 284 283 284 283 282 282 282 282 282 282 281
293 290 286 284 284 287 290 291 292 291 290 294 292 294 295 297 295 294 296 298 300 298 295 293 291 288 287 286 286 285 285 284 284 283 283 283 282 281 281 281 281 281 281 280
294 293 289 285 282 279 288 292 295 294 287 295 295 295 295 296 292 292 293 297 297 296 294 291 289 288 286 286 286 285 284 284 283 283 282 282 282 281 281 281 280 280 280 279
288 288 285 285 285 285 291 292 293 284 287 293 296 296 295 295 293 292 292 292 294 293 291 290 289 287 285 286 286 284 284 282 282 282 282 281 281 280 281 280 280 279 279 278
287 286 287 287 284 279 291 292 287 290 291 293 293 296 296 291 289 288 289 289 290 288 287 287 285 284 285 286 285 283 281 281 282 281 280 280 281 281 281 280 279 278 278 278
284 288 287 287 286 292 292 293 293 292 291 290 291 291 292 289 287 286 285 285 285 285 284 285 284 283 283 285 284 280 280 281 280 279 279 279 279 280 280 280 279 279 278 277
287 290 289 290 292 292 293 292 291 291 290 290 290 289 289 285 285 284 284 284 283 284 283 283 283 281 280 281 281 281 280 280 279 278 279 279 279 278 278 279 279 278 278 277
289 290 290 289 292 292 291 291 291 291 291 289 288 287 286 286 284 283 282 282 283 283 283 283 281 279 279 280 279 279 279 279 278 278 278 278 278 278 278 278 278 279 279 279
289 291 289 289 293 292 291 292 292 291 290 289 288 287 287 286 284 284 282 282 282 281 281 280 279 279 278 278 278 278 279 279 279 278 278 278 277 277 277 277 277 280 281 282

GFSCGP_sfc_thetae_036.txt.gz
Theta_e
300 294 291 294 296 296 293 292 292 295 298 295 295 295 298 301 302 301 303 304 306 308 312 314 316 319 320 321 321 322 322 325 330 333 334 336 333 328 325 321 317 310 307 303
294 289 295 296 296 294 293 291 291 294 296 295 293 292 296 297 298 300 301 302 303 305 307 310 313 316 318 319 321 322 323 327 331 332 331 330 327 318 314 311 308 308 304 299
291 292 295 294 293 291 292 290 290 290 293 294 292 290 294 297 299 300 301 302 303 303 304 306 310 314 317 318 320 321 324 328 330 330 329 321 313 306 304 302 302 302 300 297
293 296 292 292 290 292 287 293 291 289 288 285 291 283 292 296 297 298 300 301 302 304 305 306 307 310 314 318 322 322 325 327 328 326 319 316 317 310 309 305 302 298 297 296
290 291 291 289 290 293 289 293 291 290 288 287 288 282 289 294 293 296 299 301 303 304 305 305 307 309 313 318 321 322 324 325 323 321 322 321 319 313 307 302 297 294 294 296
293 296 294 293 294 294 294 291 290 290 287 280 287 285 287 291 294 296 298 300 302 303 304 306 308 310 311 317 321 322 321 321 320 321 321 323 316 306 301 296 292 292 294 296
291 292 295 295 290 294 292 287 281 279 279 280 288 286 288 294 296 297 298 300 301 303 303 305 308 309 311 314 319 320 319 317 318 319 320 318 310 306 302 296 292 294 292 295
285 284 291 295 291 288 288 287 283 276 279 282 286 282 288 296 298 299 300 300 301 303 305 304 308 311 312 314 318 318 318 315 316 317 316 311 305 301 295 294 292 294 293 293
285 283 292 294 294 293 288 284 291 283 285 280 284 288 293 295 295 296 297 299 300 302 303 305 306 309 313 315 317 318 316 314 314 314 309 302 299 295 296 292 294 293 294 293
289 283 289 291 294 294 291 293 283 284 276 276 282 284 285 290 292 295 296 297 300 302 304 306 306 308 312 315 317 318 316 312 312 309 306 299 295 293 292 293 291 292 293 293
292 287 285 289 286 287 287 285 287 287 285 279 278 284 291 291 293 294 295 298 300 302 304 306 306 309 313 315 316 314 312 309 306 305 301 296 292 292 293 293 293 294 293 293
292 288 282 285 292 293 292 289 288 282 280 283 282 282 294 295 295 296 296 297 301 304 305 306 307 310 311 311 311 309 307 305 302 299 297 293 291 292 293 293 293 293 292 292
293 286 281 285 288 290 287 289 289 289 287 282 279 282 293 294 293 296 296 298 300 304 303 303 303 305 307 307 307 305 302 298 297 296 292 290 290 292 293 292 291 292 291 291
295 289 285 282 287 290 285 287 288 286 281 283 283 286 290 292 293 296 297 299 302 304 301 301 302 304 305 305 303 299 294 292 291 290 290 289 292 292 291 291 290 290 290 290
292 285 288 288 289 289 288 287 287 284 285 282 286 286 290 293 294 297 298 300 301 302 299 299 300 301 301 297 294 291 290 289 289 288 289 289 291 291 290 289 289 289 289 289
293 286 287 285 289 289 286 289 289 288 288 286 287 287 295 297 298 297 298 299 300 300 299 298 298 298 294 291 289 288 288 288 288 288 288 289 289 289 289 289 289 289 288 288
291 287 285 283 288 289 287 290 291 291 291 289 285 291 296 295 295 297 298 299 300 300 298 297 296 293 291 289 289 287 287 289 288 288 288 289 289 288 288 288 288 288 287 287
291 288 287 284 286 281 293 297 296 292 293 293 293 294 295 296 298 300 300 299 300 301 298 297 293 291 290 290 289 288 289 289 289 289 288 288 288 287 287 287 287 287 287 286
295 290 286 284 284 288 293 295 292 290 291 295 293 295 296 298 299 297 297 302 304 301 298 297 292 291 291 291 290 291 290 290 289 288 287 287 287 286 286 286 286 286 286 285
293 292 287 286 282 282 292 296 297 297 288 295 297 295 296 298 296 295 298 300 297 298 297 294 293 293 292 291 292 290 289 289 287 286 286 287 287 287 286 286 286 285 285 285
289 288 285 286 284 289 296 298 297 288 288 295 296 297 298 297 294 294 298 298 297 295 294 294 293 291 290 290 290 288 288 286 286 286 286 286 286 286 286 285 285 285 284 284
289 288 287 288 286 284 297 300 293 296 298 297 297 297 297 294 292 292 292 292 292 292 291 290 287 287 288 289 289 288 286 285 285 285 284 284 285 285 285 285 284 284 284 283
289 294 293 292 293 298 299 299 300 298 296 296 295 297 295 292 291 289 290 290 290 288 289 290 289 288 289 289 288 284 283 284 284 283 283 284 285 284 285 285 284 284 283 282
295 297 295 295 299 299 298 298 296 296 295 294 295 295 295 290 290 288 288 288 288 288 288 289 288 286 286 285 284 283 283 283 283 284 284 284 284 283 283 284 284 283 282 282
298 296 295 296 299 300 297 297 296 294 293 292 292 292 291 290 289 288 286 286 286 286 287 287 286 285 284 284 282 283 283 285 284 284 284 284 283 283 283 283 283 283 283 282
297 297 295 295 299 298 297 296 296 294 292 291 290 289 290 290 288 287 286 286 285 284 285 284 284 283 283 283 282 283 284 285 284 283 283 283 283 283 282 282 282 281 281 282

GFSCGP_sfc_thetae_039.txt.gz
Theta_e
301 295 292 296 298 298 296 294 293 297 300 298 297 297 299 303 303 303 304 306 307 309 313 315 317 318 319 320 322 323 323 325 326 329 331 335 337 337 336 336 335 328 322 315
295 291 298 299 298 296 295 293 293 296 298 296 295 294 298 300 300 302 302 303 304 306 308 311 314 315 317 318 321 322 323 324 326 330 334 336 331 326 326 327 325 320 316 311
293 295 297 296 294 292 293 291 292 292 295 296 294 292 296 300 302 302 303 303 304 304 305 307 309 312 317 317 320 322 323 325 328 331 334 334 320 313 309 311 312 312 309 306
295 298 294 293 292 294 289 295 293 291 290 286 293 285 293 297 299 301 301 303 303 304 305 306 307 309 312 316 322 323 324 326 330 333 331 329 319 312 309 307 308 306 305 303
292 293 293 291 292 295 291 294 292 292 289 288 289 285 291 296 295 297 300 302 304 306 306 306 308 310 311 315 320 324 324 326 330 331 330 325 318 318 309 303 302 300 300 300
295 298 296 295 295 296 295 292 290 290 287 281 287 288 288 292 295 297 301 302 302 304 305 306 308 309 311 314 320 324 324 326 329 330 325 322 323 312 303 300 298 298 300 300
292 292 295 296 292 294 293 288 283 281 279 280 290 287 289 295 297 298 299 301 303 303 304 304 305 307 309 312 315 322 322 323 326 324 324 323 322 311 305 300 298 297 296 297
285 285 292 295 292 290 289 288 283 278 280 284 290 283 289 298 299 299 300 301 302 302 303 305 306 308 311 312 314 319 321 322 322 322 323 325 316 311 307 302 301 297 297 295
286 285 294 295 296 293 289 284 291 284 285 281 284 289 295 297 297 298 299 300 300 301 303 304 306 308 308 312 314 319 320 321 320 321 323 318 312 309 305 302 298 296 297 295
291 285 291 294 295 295 292 294 283 284 276 277 284 286 288 293 295 297 297 298 300 302 303 305 307 309 309 313 316 319 320 318 319 320 317 313 306 300 296 296 294 294 293 294
293 289 287 291 288 288 289 286 288 288 285 280 280 285 293 291 294 295 296 298 300 301 303 305 307 310 310 313 317 318 319 316 317 314 307 303 299 296 294 293 293 292 294 293
293 289 283 287 293 294 293 289 288 281 282 284 283 284 295 295 296 296 296 299 300 301 303 306 307 310 310 314 317 317 316 314 313 308 302 297 295 294 294 293 293 295 292 294
293 287 282 285 289 292 289 290 291 290 288 282 280 284 295 296 295 296 296 298 300 301 303 306 306 308 311 314 314 313 312 309 307 303 298 295 294 293 292 292 294 293 293 292
297 290 286 283 288 291 287 289 291 287 283 284 285 287 292 294 295 295 297 298 300 301 304 305 305 306 309 311 310 309 306 304 301 298 295 293 292 292 292 292 293 293 292 291
293 286 288 289 290 291 290 289 290 286 287 282 286 286 292 294 296 297 299 299 300 301 303 303 303 305 306 307 306 302 299 299 298 295 293 292 292 291 291 292 292 291 291 290
293 286 288 284 290 290 288 291 291 291 290 289 289 288 296 298 298 297 298 299 299 301 303 302 302 303 303 299 297 294 293 292 292 291 291 290 290 290 291 290 290 290 289 289
291 287 285 283 290 289 287 292 292 292 293 292 286 292 297 295 296 297 297 299 300 301 301 299 299 299 295 292 291 290 290 290 289 288 289 289 289 289 290 289 289 289 288 288
291 288 286 285 288 282 293 299 297 293 294 295 294 296 297 296 298 298 298 299 299 302 298 298 296 293 291 290 289 289 290 289 288 288 287 288 288 288 289 288 288 288 288 288
295 291 287 283 284 289 294 296 294 292 291 296 294 297 298 300 300 295 299 300 301 300 299 295 293 290 289 288 289 289 288 288 288 287 287 288 288 288 288 287 287 287 287 286
295 294 288 286 282 281 293 298 299 298 289 296 295 297 299 299 293 291 297 296 298 295 292 290 290 289 289 290 290 290 289 289 288 289 289 289 288 288 287 287 286 286 286 285
288 288 284 285 283 289 298 299 299 289 290 298 297 297 299 294 294 296 297 294 295 293 292 293 292 291 291 292 292 290 290 288 288 288 288 288 288 287 287 286 286 286 285 285
290 288 286 287 285 284 300 301 294 298 300 299 298 297 294 294 294 293 293 293 292 293 293 293 292 292 292 293 291 288 286 286 286 286 285 286 286 286 286 286 286 285 284 284
290 294 292 293 293 302 304 302 302 300 298 298 298 298 296 292 292 292 290 289 289 289 289 289 288 288 290 289 287 285 285 285 285 284 284 285 285 286 286 286 285 284 284 283
297 300 295 296 300 302 303 303 300 298 296 297 298 299 298 293 292 291 291 291 290 291 290 290 289 287 285 285 284 283 283 284 285 284 284 285 284 284 284 284 284 284 283 282
298 299 297 297 300 302 300 299 298 296 295 295 295 296 295 292 291 290 289 289 289 290 290 290 288 285 283 283 282 283 284 285 284 284 284 284 284 284 283 283 283 282 283 282
300 297 295 295 300 300 298 299 298 295 293 293 293 293 293 293 290 290 288 288 288 288 288 286 285 283 282 283 283 285 286 286 285 283 284 284 283 283 283 282 282 283 281 281

GFSCGP_sfc_thetae_042.txt.gz
Theta_e
303 296 292 295 298 298 296 292 290 294 298 295 293 294 297 300 299 299 301 301 303 305 308 309 310 311 311 311 313 319 317 318 319 317 324 330 331 333 334 334 333 330 320 317
294 290 296 298 298 295 293 290 290 294 297 294 292 291 295 297 298 299 299 300 301 303 305 307 308 309 311 311 312 313 316 317 319 320 321 325 326 325 328 330 328 322 316 311
291 294 298 296 294 292 291 289 289 289 293 293 291 288 291 296 298 298 300 301 301 301 302 304 305 306 308 311 312 313 315 316 318 320 325 319 315 312 310 313 313 312 309 308
293 297 294 293 292 293 287 294 292 291 287 281 290 279 288 292 293 296 295 297 298 299 301 302 303 302 304 308 312 313 314 316 318 322 324 321 321 316 308 309 309 308 307 306
291 293 292 290 292 294 289 294 291 291 286 284 285 280 284 290 290 293 295 296 298 299 300 300 301 303 304 304 306 312 314 315 318 323 326 321 315 308 307 303 302 303 304 303
294 298 295 294 295 295 295 291 290 288 285 277 283 283 282 286 289 291 294 295 299 298 297 298 299 301 302 304 305 310 314 315 321 324 324 318 313 305 302 301 299 299 300 301
290 291 295 296 291 294 292 287 275 276 277 274 286 283 285 291 293 294 293 293 295 297 296 297 298 299 301 302 305 307 314 314 321 322 320 316 314 305 301 299 298 298 297 298
283 282 291 294 291 289 289 287 276 273 274 277 286 280 284 293 296 295 295 295 296 296 296 296 298 300 302 304 305 306 314 315 320 321 317 316 307 303 301 300 298 298 297 297
285 285 294 295 295 294 287 282 288 282 281 273 279 283 289 294 293 294 293 295 294 295 296 296 299 301 303 303 306 306 313 315 318 317 317 311 307 303 300 298 299 298 297 297
291 283 291 294 295 294 291 292 282 280 267 271 279 281 283 287 290 293 292 292 294 296 297 298 301 303 305 307 306 307 313 314 315 317 314 309 305 301 300 298 296 296 295 295
293 286 286 290 287 286 287 285 287 285 283 273 274 279 288 290 291 293 295 295 295 295 296 298 302 303 305 307 306 309 313 315 314 313 309 298 295 295 296 295 295 294 294 294
293 289 282 284 291 293 291 287 286 279 277 280 278 281 294 292 292 293 293 295 296 295 296 298 302 302 304 304 308 310 314 314 306 303 297 295 293 292 293 293 293 293 293 294
293 286 275 283 286 289 285 288 289 288 286 280 277 280 292 292 295 296 293 294 296 298 298 300 301 301 303 308 311 312 313 304 299 295 293 292 292 293 293 292 293 293 292 291
296 289 282 277 282 287 281 287 288 287 281 281 282 284 289 293 294 297 298 298 298 298 299 300 300 300 302 309 309 307 302 299 295 292 291 292 293 293 292 292 292 291 291 290
291 284 287 287 288 288 287 287 289 286 287 283 286 287 291 294 294 296 297 297 297 298 300 300 299 299 304 306 303 300 298 294 292 291 291 292 292 292 291 291 290 291 290 288
293 283 284 280 287 287 285 289 290 289 290 290 290 289 296 297 296 296 297 298 298 299 300 299 299 300 301 298 295 294 293 292 292 291 290 291 290 290 289 289 289 288 288 287
290 285 284 282 288 287 283 290 291 292 294 292 287 292 297 295 296 297 297 298 299 299 299 298 299 294 292 291 291 288 288 290 290 290 290 290 290 289 289 289 288 287 286 285
288 288 286 282 284 276 291 298 296 293 294 295 295 296 297 297 296 296 298 296 299 300 299 298 293 291 290 290 289 289 289 289 288 289 288 288 288 288 288 287 287 286 286 285
294 289 285 282 280 285 290 294 292 289 290 297 295 296 298 300 297 294 295 294 294 296 294 292 289 288 288 288 289 288 288 287 288 287 287 287 288 287 287 286 285 284 284 283
294 292 287 283 279 278 289 294 297 296 286 295 296 296 297 295 291 290 293 292 290 289 289 288 288 288 288 288 289 288 287 288 287 288 288 289 289 287 286 284 283 283 284 283
287 288 285 284 283 285 293 297 298 285 286 295 297 297 293 290 293 294 293 291 291 291 290 290 290 289 290 291 291 289 289 287 288 289 288 287 286 284 285 284 284 283 282 282
287 286 285 284 283 279 297 298 290 293 295 295 297 297 293 292 292 292 292 291 291 291 292 292 291 291 292 292 290 286 285 286 286 285 284 284 285 286 285 283 282 281 281 279
288 291 289 289 287 297 300 297 297 296 294 293 294 297 295 292 291 290 289 288 287 287 288 289 289 288 287 286 285 283 283 284 284 284 284 284 284 284 284 282 281 280 280 278
292 296 291 293 296 298 296 298 295 294 292 293 295 298 295 291 292 291 289 288 288 288 288 287 286 284 283 284 284 283 284 285 284 283 282 281 280 281 281 281 281 279 278 277
294 294 293 293 296 296 296 295 295 293 293 293 294 295 292 291 290 289 288 288 288 287 286 285 283 282 281 282 282 284 285 284 282 281 281 280 281 280 279 279 278 277 278 279
295 293 291 289 296 295 294 295 296 292 292 292 291 291 291 290 288 288 286 288 287 285 284 282 282 282 282 283 284 284 284 283 281 279 279 279 278 278 277 277 277 283 282 282

GFSCGP_sfc_thetae_045.txt.gz
Theta_e
302 294 290 293 295 294 293 291 287 291 296 292 292 292 294 297 297 298 299 297 300 303 306 306 306 306 305 306 308 313 314 327 333 331 333 334 331 332 333 333 331 329 322 318
295 290 296 299 298 296 293 288 287 291 294 291 290 290 293 295 296 297 298 297 299 302 300 303 304 304 306 308 308 307 313 318 325 328 331 331 328 325 329 332 331 326 318 315
289 292 297 295 293 291 288 285 286 287 290 289 288 286 289 293 295 297 299 299 299 299 300 301 301 302 302 304 306 309 310 314 315 316 320 316 317 316 317 321 320 315 312 310
293 295 294 292 291 291 285 291 291 289 285 279 287 277 284 290 291 293 293 294 297 298 298 298 299 299 300 301 305 308 310 312 314 317 320 321 321 322 315 313 308 308 308 307
289 291 291 289 291 293 289 293 290 289 284 281 281 278 282 287 288 291 291 292 294 297 298 299 299 301 301 300 301 305 308 310 313 317 321 322 321 311 309 308 305 306 306 306
292 295 293 292 294 293 294 290 288 286 282 275 281 280 279 285 288 289 290 293 295 296 296 297 298 299 299 300 300 303 307 308 310 316 321 322 312 307 305 303 302 302 303 302
288 290 293 295 290 292 292 284 272 278 277 273 283 281 282 289 292 292 292 293 294 295 294 295 295 298 298 298 300 302 304 308 311 316 321 317 312 310 307 303 302 299 299 299
278 276 289 292 289 287 287 285 274 272 273 275 283 278 283 291 294 293 293 293 294 294 293 296 295 297 299 301 301 301 302 307 313 318 317 313 308 307 305 304 302 301 300 299
281 282 293 294 294 291 286 282 287 281 276 269 277 280 286 290 291 291 291 292 292 293 293 293 298 300 301 302 303 303 302 310 316 317 313 306 305 304 302 301 300 301 299 298
290 283 290 294 295 294 287 289 278 275 265 269 275 277 281 285 288 291 291 292 293 295 294 297 300 301 302 302 303 304 303 311 315 314 307 304 303 301 299 299 297 295 296 297
292 286 286 291 286 285 286 286 286 283 279 271 273 277 286 287 288 289 290 293 295 296 295 295 299 301 301 302 303 303 304 311 312 309 304 302 300 298 298 297 296 296 295 294
293 287 282 283 289 291 289 285 284 273 274 277 274 279 292 291 290 294 295 297 296 294 295 298 300 300 301 301 303 305 308 308 305 300 298 297 296 295 294 295 295 294 293 293
292 286 272 282 284 289 284 287 287 285 284 274 274 279 289 290 293 296 297 298 299 299 296 298 299 299 300 301 307 305 301 297 298 295 295 294 293 293 292 291 293 293 293 292
296 287 279 275 279 285 280 285 286 285 279 280 280 283 288 291 295 296 296 297 298 299 299 298 298 300 301 304 300 298 295 295 293 294 293 292 292 292 292 292 292 292 292 291
290 280 284 285 287 286 284 285 286 283 285 281 284 286 291 295 296 297 297 298 298 298 299 298 298 300 300 299 296 293 294 294 294 294 293 292 293 293 292 291 291 291 291 290
290 278 283 276 285 285 282 286 287 287 287 288 288 288 297 299 300 298 298 299 297 296 299 298 299 295 293 295 294 292 293 293 293 292 291 291 291 291 290 290 289 288 288 287
290 285 275 274 285 285 281 286 287 288 290 290 288 293 298 297 298 294 294 293 295 299 300 297 290 288 289 291 290 291 290 290 290 289 289 289 289 288 288 288 288 288 287 288
288 287 281 276 280 275 288 294 294 291 293 294 295 296 297 297 295 293 291 289 291 299 297 292 289 288 288 288 289 289 289 289 288 288 288 288 288 288 288 288 287 287 286 285
292 286 283 279 277 283 290 292 291 289 288 295 293 295 297 297 297 292 291 289 288 287 287 287 287 287 288 288 288 288 287 288 288 287 288 288 288 288 287 287 287 286 286 284
293 291 287 284 276 277 288 293 295 294 285 293 294 296 295 294 290 290 290 290 287 287 288 287 288 288 287 288 288 287 287 287 287 287 287 288 288 288 286 286 285 284 284 283
286 288 284 283 282 283 290 294 297 284 286 293 295 297 293 291 291 291 291 290 290 289 289 290 290 288 289 290 289 287 287 286 288 289 289 289 288 287 286 285 283 283 283 282
285 285 285 286 282 279 293 294 289 292 293 293 294 296 292 292 292 290 291 290 290 289 290 290 288 287 288 290 289 288 286 288 287 287 286 285 285 285 284 283 282 281 280 278
286 288 287 286 285 292 295 295 294 294 293 292 293 296 294 291 290 288 287 287 290 290 289 289 287 286 287 288 290 287 285 286 285 284 284 284 284 284 282 280 279 278 278 278
293 296 291 290 294 295 294 292 292 292 291 292 295 294 293 292 290 289 287 287 287 287 287 287 286 285 284 284 284 284 284 285 284 283 282 281 280 280 280 280 279 277 276 275
291 294 292 291 294 293 293 292 292 291 292 292 294 294 292 291 289 288 288 288 288 286 285 284 282 281 281 283 283 284 284 284 282 281 280 279 279 278 276 277 276 277 277 277
294 292 290 289 294 294 293 293 293 291 290 292 291 289 290 289 288 287 286 286 285 283 283 282 282 282 283 283 283 284 284 283 280 278 278 277 276 276 275 275 275 283 283 283

GFSCGP_sfc_thetae_048.txt.gz
Theta_e
304 297 293 296 298 294 293 290 287 290 295 290 290 289 292 296 295 296 298 298 298 300 304 303 304 304 304 304 304 308 319 329 332 333 332 330 329 329 330 329 327 325 322 319
297 290 296 299 298 295 292 290 287 290 293 290 289 289 292 294 295 296 297 299 299 299 300 301 303 304 304 305 304 304 309 321 330 334 334 333 331 327 330 329 328 327 322 319
290 292 297 295 294 292 288 285 285 287 289 288 287 286 288 291 293 295 297 299 299 299 300 301 299 301 301 302 304 306 307 312 326 332 327 319 320 319 320 322 324 326 321 319
291 295 294 292 291 290 284 290 290 288 285 279 286 277 283 288 290 291 291 292 295 296 297 299 299 299 300 301 302 304 306 308 313 316 322 327 325 323 321 327 319 314 313 317
288 291 290 289 290 292 288 292 289 287 282 280 281 278 281 286 287 289 291 292 292 294 295 296 297 299 300 299 299 300 304 306 309 313 320 323 325 325 315 312 310 310 311 312
290 295 293 291 293 293 293 288 286 284 280 271 279 279 279 283 286 287 289 291 294 295 293 295 296 297 297 297 298 297 300 303 306 310 315 321 319 311 311 308 307 306 306 307
289 289 292 294 289 291 289 281 270 271 269 272 281 279 281 287 291 290 291 291 291 292 293 294 294 296 297 297 300 300 300 302 304 306 313 316 317 313 312 309 308 303 303 302
280 277 289 292 289 286 285 282 272 270 273 274 281 277 282 288 290 290 291 290 293 293 292 292 294 296 299 301 301 301 302 302 302 305 313 317 316 314 312 310 306 306 304 301
278 281 292 292 292 290 284 277 285 276 275 269 276 279 284 288 289 291 291 292 293 294 295 293 297 298 299 300 301 301 303 303 303 308 313 308 310 309 307 303 303 302 302 301
287 279 291 293 295 293 287 288 276 272 264 269 274 276 279 284 287 288 290 291 293 295 297 296 297 299 300 300 301 302 303 302 303 311 306 305 305 305 303 303 303 301 302 299
289 282 286 291 285 284 285 283 282 280 277 270 272 277 284 285 287 288 290 292 298 298 298 297 294 298 300 300 301 302 303 302 308 305 302 301 300 301 302 301 300 300 299 296
291 285 279 283 288 290 288 285 283 273 273 275 273 277 289 287 288 291 294 297 298 299 297 297 297 300 300 299 301 305 304 307 305 303 300 299 298 299 299 298 298 296 294 296
290 283 274 280 283 287 282 286 286 283 282 271 274 278 289 289 292 294 298 299 296 297 299 297 297 299 299 300 304 300 299 298 297 297 296 296 296 297 296 296 293 293 293 292
295 284 279 275 278 282 277 284 285 282 275 276 277 282 287 290 292 297 299 300 296 300 300 297 299 299 299 300 296 293 293 296 294 296 296 294 293 293 293 293 293 292 292 291
290 281 283 284 285 285 283 283 284 279 284 279 283 284 288 292 295 298 299 299 299 300 300 297 297 295 296 292 291 291 293 295 296 294 293 292 292 292 292 292 291 291 290 290
288 277 283 275 284 284 280 285 285 285 286 286 287 286 294 297 300 295 295 294 293 294 299 298 291 290 290 289 290 291 293 294 296 294 293 292 291 290 290 289 290 290 289 288
289 285 277 274 283 283 278 284 286 286 287 289 285 290 296 296 296 292 290 289 289 292 298 292 289 288 289 289 289 289 291 292 291 291 290 289 289 288 288 288 288 287 287 288
288 285 278 274 279 273 286 293 292 289 290 291 293 295 296 297 294 291 289 287 287 287 288 286 285 285 287 289 289 290 290 289 289 288 288 289 289 289 289 288 288 288 288 287
290 286 277 279 277 282 289 292 290 288 288 292 292 293 297 297 296 291 290 288 287 287 287 287 288 287 287 287 288 288 288 288 288 287 288 288 289 288 287 286 285 286 285 285
292 290 284 283 276 277 287 291 294 292 283 293 293 295 296 295 291 290 289 288 287 287 287 287 287 288 287 287 288 288 287 287 287 288 288 289 288 286 286 286 285 285 285 284
286 287 283 282 281 284 289 291 296 283 285 292 293 295 293 292 291 291 290 289 289 289 289 289 289 288 288 289 289 288 287 286 287 287 287 288 288 286 285 285 285 285 284 282
284 283 284 284 282 277 291 293 289 292 292 292 293 293 293 292 291 291 291 289 289 289 289 289 287 287 288 290 288 286 285 287 287 287 287 286 286 287 286 284 282 281 279 278
284 286 285 287 285 291 292 294 293 293 292 291 292 293 293 291 289 288 289 289 288 289 288 288 287 286 286 289 288 285 286 287 286 286 285 284 284 283 281 280 278 276 277 276
291 293 290 290 293 293 294 293 292 291 290 292 294 294 292 291 289 287 287 287 289 290 289 289 288 285 285 287 287 286 286 286 285 282 281 281 279 279 278 279 278 276 275 274
291 293 291 291 293 292 293 293 292 291 291 291 295 294 293 291 288 287 287 287 286 286 285 284 282 282 282 283 283 283 283 282 280 279 279 278 278 277 276 276 276 276 275 276
291 292 290 290 295 294 294 293 293 290 290 291 291 291 292 291 289 288 287 288 285 283 283 282 282 282 282 283 283 283 282 281 279 278 277 277 276 275 275 275 275 283 283 283

GFSCGP_sfc_thetae_051.txt.gz
Theta_e
303 297 293 296 295 293 291 289 287 290 293 290 289 288 292 294 293 293 295 298 299 300 303 301 303 303 303 303 302 305 314 326 331 333 332 331 331 330 329 330 329 325 323 320
297 293 297 301 299 297 294 290 289 290 292 289 288 287 292 294 294 295 296 297 298 299 298 299 301 302 302 304 303 302 306 319 330 332 333 331 331 331 331 329 327 325 323 320
292 293 300 298 295 293 290 286 285 286 289 287 286 285 287 290 292 293 295 296 297 298 299 300 298 300 300 301 303 305 304 307 322 332 331 321 322 320 321 321 323 323 323 321
291 295 295 292 292 291 284 290 289 287 284 279 285 277 283 287 288 290 291 290 292 294 296 297 298 298 298 300 301 303 304 305 309 321 325 328 326 323 325 327 328 321 320 320
288 291 290 289 290 291 288 291 288 286 282 279 280 278 282 284 286 288 289 290 291 292 293 295 296 297 299 299 298 299 300 302 305 310 324 327 326 323 322 324 324 311 313 318
290 295 292 290 292 292 292 287 285 283 280 272 278 278 279 282 284 286 288 289 291 292 293 294 294 295 296 296 296 297 298 299 302 306 312 321 325 315 314 313 317 311 310 312
289 289 291 293 288 291 288 281 271 271 270 273 280 278 281 287 289 290 288 290 291 292 294 296 293 293 296 297 297 298 298 299 300 302 306 313 317 316 316 316 316 312 308 306
282 280 288 291 288 286 283 282 273 270 272 274 280 277 282 286 288 289 291 291 293 295 294 295 295 296 297 298 300 300 300 301 302 301 302 308 313 317 318 315 314 313 312 312
278 280 291 291 292 290 284 277 284 275 274 271 276 279 283 287 287 288 290 292 292 294 296 296 295 298 299 299 299 299 300 301 302 302 303 308 311 312 313 311 308 307 304 304
285 279 290 291 294 292 286 288 277 272 265 269 273 275 277 282 284 288 289 290 292 296 297 297 296 295 297 299 299 299 301 301 302 302 305 307 307 308 306 303 301 301 301 302
288 282 285 291 286 284 285 281 281 279 276 269 271 276 283 283 285 287 289 291 294 298 298 297 298 297 297 299 299 299 302 303 303 305 303 301 299 299 300 300 300 301 299 300
289 283 282 284 287 289 287 284 282 274 272 273 272 276 286 285 287 289 292 293 300 298 297 297 297 295 296 298 299 302 303 303 303 300 298 297 297 298 297 297 298 300 298 298
289 281 273 278 283 285 282 285 284 281 277 272 270 276 287 287 291 292 294 298 300 297 299 303 299 297 298 297 299 296 295 295 295 296 295 295 295 297 299 299 297 297 296 294
293 282 279 275 277 280 277 283 284 280 273 275 276 279 286 289 290 295 298 298 299 300 300 301 299 297 295 294 293 292 293 295 295 295 296 296 296 297 296 295 295 295 292 291
289 281 282 283 284 284 283 283 283 277 282 274 280 281 287 290 293 296 296 295 294 294 293 295 295 292 290 289 289 291 292 293 294 293 293 293 293 293 292 291 291 291 291 290
288 280 283 276 283 283 280 284 284 284 284 284 285 285 292 294 297 297 293 291 290 290 292 295 289 287 286 286 287 289 290 290 292 292 290 291 290 290 290 289 290 290 289 289
288 285 278 274 281 282 277 283 284 284 285 287 283 288 296 294 297 293 290 288 288 288 288 286 286 285 285 286 288 287 288 289 289 289 289 289 289 289 289 289 289 288 288 288
286 285 279 274 278 272 284 291 289 287 289 290 290 293 295 297 295 291 290 286 286 287 286 286 286 286 287 289 289 290 290 289 289 289 289 289 289 289 289 288 288 288 288 287
291 287 280 277 278 280 286 291 289 287 288 291 290 292 296 297 293 291 290 287 286 286 287 287 287 287 287 287 288 289 288 289 289 288 289 289 289 288 288 286 285 285 285 285
290 289 283 283 278 275 285 290 293 292 284 292 292 293 296 295 292 292 289 288 287 288 287 287 288 288 288 288 289 288 288 288 287 288 288 289 289 287 286 285 285 285 285 285
286 287 283 283 279 282 289 290 295 283 285 292 292 293 295 293 293 291 290 289 289 289 289 289 289 288 289 289 289 287 286 285 287 288 288 288 287 286 285 285 285 284 284 282
284 283 283 284 281 278 290 292 288 292 292 293 292 293 294 292 291 291 290 289 289 288 288 288 288 288 289 289 288 286 285 287 287 287 286 286 287 288 286 285 283 280 278 277
283 284 283 284 284 291 291 294 295 293 292 291 292 293 295 292 290 291 289 289 289 287 287 287 287 287 288 289 288 285 287 288 287 286 286 285 285 283 280 278 277 275 275 275
290 292 288 288 292 292 294 293 294 293 292 291 292 294 293 292 289 288 288 289 289 289 288 289 287 287 286 288 288 287 287 287 285 282 279 279 278 277 277 277 277 275 274 273
291 293 291 290 293 293 292 293 294 292 291 291 293 293 292 289 288 288 287 287 288 287 287 283 284 284 284 286 285 285 282 280 279 278 278 277 276 276 275 276 275 275 274 275
289 289 288 289 295 292 293 292 292 291 290 290 292 291 292 292 289 288 287 287 286 283 282 282 283 283 282 281 280 280 281 280 278 277 276 276 275 274 275 275 275 284 283 284

GFSCGP_sfc_thetae_054.txt.gz
Theta_e
303 295 293 295 294 292 291 288 286 289 292 289 288 287 291 295 292 292 293 294 296 299 302 301 301 302 302 302 302 303 306 322 333 335 334 334 332 333 333 330 331 327 324 321
298 290 298 300 297 296 292 288 286 290 291 288 287 286 291 294 293 294 295 296 296 296 298 299 299 299 300 302 301 301 303 310 324 333 334 333 334 333 333 330 330 329 323 321
292 295 301 299 296 294 292 289 286 286 288 286 285 285 286 290 291 292 293 293 293 293 295 297 296 297 298 299 301 302 302 304 318 329 331 321 322 322 328 324 326 326 323 321
292 297 298 295 293 294 287 292 289 287 284 280 285 278 283 286 287 289 288 288 289 290 291 293 294 295 296 297 298 300 302 303 306 321 327 327 327 325 326 328 327 325 323 321
289 293 292 292 292 295 288 291 288 286 282 278 280 278 282 283 285 285 288 289 291 292 292 294 293 294 296 296 296 298 300 302 304 307 322 326 325 326 320 322 323 323 320 322
290 295 293 290 292 293 291 287 284 282 280 272 278 278 279 282 283 285 288 290 291 293 295 297 297 296 295 296 296 295 296 298 300 302 309 322 325 321 316 316 319 313 315 317
288 289 292 293 288 291 289 284 273 270 270 272 279 278 281 285 287 287 287 290 292 294 295 296 296 296 297 298 298 300 299 298 298 298 301 309 318 318 318 319 321 318 314 316
280 279 289 291 288 286 283 282 273 270 272 273 280 276 281 286 287 289 289 290 292 294 296 296 296 295 296 297 298 298 298 299 299 299 299 301 306 313 317 316 318 317 315 315
279 280 290 291 291 288 283 276 282 274 271 270 276 279 282 287 286 288 289 290 291 293 296 296 296 296 295 296 297 297 298 299 300 300 300 300 303 307 312 312 312 313 309 308
284 279 289 290 292 291 286 287 277 271 265 269 273 275 276 281 284 287 288 289 290 293 296 297 297 297 296 296 297 299 299 300 302 302 301 302 303 306 308 305 304 302 301 303
287 283 285 289 284 283 284 280 280 279 276 270 271 275 282 282 286 286 288 291 292 296 297 296 296 297 297 297 298 298 300 300 302 303 301 300 299 299 300 299 298 299 299 300
288 284 282 283 287 288 286 283 281 273 272 273 273 275 286 286 286 287 289 292 295 297 297 297 299 297 298 297 297 297 294 295 296 298 297 296 300 300 298 298 297 299 300 300
289 280 272 279 283 285 282 284 283 280 277 271 271 276 287 286 288 289 291 295 297 298 297 296 297 296 295 293 292 292 292 292 294 295 295 295 298 299 299 300 299 299 298 296
292 282 279 275 277 281 278 283 283 279 275 275 274 278 285 288 288 290 292 297 295 294 292 292 294 292 289 289 290 291 291 292 292 293 296 297 298 298 296 296 296 295 294 292
288 280 282 282 283 284 283 283 282 276 279 274 278 280 285 288 289 291 295 293 290 289 289 290 289 286 286 287 288 289 290 290 291 291 291 291 292 293 292 291 291 291 290 290
287 279 282 275 283 283 280 283 283 283 283 282 284 284 292 293 294 297 292 291 289 288 288 287 287 285 288 285 286 288 289 288 289 289 289 290 290 291 290 290 290 289 289 289
288 284 277 275 281 282 277 282 283 283 284 286 281 287 292 294 296 294 290 289 287 287 287 284 284 286 288 289 289 288 289 290 289 289 289 290 290 289 289 289 289 289 288 289
286 285 282 278 278 271 283 289 288 286 287 288 288 290 293 295 294 291 290 287 286 286 286 285 285 287 288 289 290 290 290 290 290 289 289 290 290 289 289 289 288 288 288 287
291 287 282 278 278 279 285 288 287 286 287 289 289 290 294 296 292 291 290 287 286 285 287 286 287 287 288 288 289 289 289 289 289 287 288 289 288 287 287 286 285 285 285 285
290 288 283 282 278 274 283 288 293 291 283 291 291 292 295 295 288 293 289 289 287 288 288 287 288 289 288 289 289 288 287 287 287 288 288 289 288 287 286 285 285 285 285 285
285 286 281 281 280 280 287 291 293 284 284 291 292 293 296 294 293 290 289 288 288 289 288 289 289 288 288 289 289 287 287 286 288 288 288 287 287 285 285 285 285 285 284 281
284 281 283 282 281 277 290 293 290 293 293 291 291 293 296 293 291 291 288 288 287 286 287 288 288 288 289 289 288 287 285 288 288 287 286 286 286 287 287 284 282 279 278 277
283 284 282 283 282 290 292 292 296 294 293 290 290 293 294 292 291 290 288 287 287 287 287 287 288 287 288 289 288 286 287 288 287 287 286 285 282 280 279 277 276 275 274 274
289 290 286 287 293 293 295 295 293 294 292 292 293 294 293 293 291 290 289 287 287 288 287 288 288 287 287 288 288 288 288 288 284 280 278 277 277 276 276 276 276 274 273 273
289 290 287 287 292 294 293 294 293 293 292 290 292 294 293 291 290 289 289 288 289 287 287 286 286 286 286 287 287 286 282 280 278 277 277 275 275 275 275 275 275 275 273 274
289 291 290 289 293 292 292 293 292 292 291 291 291 290 290 290 290 289 288 287 286 283 282 284 285 284 284 284 281 279 280 279 277 276 276 275 274 274 275 275 275 284 283 284

GFSCGP_sfc_thetae_057.txt.gz
Theta_e
302 296 291 295 296 293 292 290 289 292 294 292 291 291 293 296 296 296 297 299 300 300 303 305 306 307 307 308 307 308 310 320 337 336 335 333 333 334 333 334 335 333 330 329
296 292 298 299 297 294 292 289 289 292 292 291 289 288 293 295 295 296 297 297 297 297 297 298 301 303 304 305 306 307 307 310 321 335 336 336 335 336 335 334 333 335 331 329
290 295 301 298 296 294 292 289 288 289 290 289 287 287 289 292 292 292 291 293 294 295 295 297 296 299 301 301 304 305 307 308 312 327 335 332 333 331 333 332 331 331 331 329
292 298 298 296 294 296 290 293 290 288 287 283 287 282 287 288 289 290 292 293 295 296 298 299 298 299 299 300 302 303 305 307 308 317 329 330 329 328 330 332 333 331 331 328
288 295 293 292 293 295 290 292 289 287 284 283 283 282 285 287 286 288 291 293 295 297 298 299 300 299 300 302 302 301 301 303 306 309 323 329 329 330 332 331 331 331 328 328
290 296 295 292 297 295 292 287 286 283 282 278 280 281 282 285 287 289 291 293 295 297 299 300 301 301 302 303 304 305 303 302 302 305 309 323 328 329 327 326 327 328 326 326
289 289 292 294 289 292 290 287 277 275 275 276 281 280 283 287 289 290 292 293 294 296 299 300 300 300 301 302 302 303 303 303 304 304 303 307 315 324 325 326 326 326 321 320
281 282 290 292 289 287 285 287 277 273 274 276 281 278 284 289 290 292 293 293 293 296 299 300 300 300 301 301 302 302 302 303 304 305 305 305 306 311 319 323 325 325 324 323
280 282 291 291 291 290 285 281 284 275 275 274 278 281 285 289 288 291 291 294 294 295 298 300 300 300 301 301 301 301 302 304 306 306 307 307 306 307 310 315 320 323 322 319
285 280 289 290 293 291 287 287 279 276 270 272 275 276 279 285 288 290 291 292 294 297 300 300 300 301 302 302 302 302 303 303 303 305 306 306 307 308 309 311 313 315 313 313
288 284 286 290 286 284 285 282 281 280 277 274 273 277 284 285 288 289 291 292 294 299 299 299 300 301 300 300 299 299 298 298 299 301 302 302 303 304 305 307 307 308 307 307
289 286 282 284 288 289 287 284 282 277 275 275 275 278 288 287 289 290 291 293 298 299 297 295 296 297 294 294 295 295 296 297 298 299 300 301 302 303 304 303 302 303 304 304
289 281 278 281 285 287 284 285 283 281 279 275 274 278 288 288 289 290 292 296 296 295 293 294 294 291 291 292 293 294 294 294 295 297 299 301 301 300 300 300 301 301 301 300
292 283 280 278 280 282 279 283 283 281 276 276 276 279 285 288 289 291 293 295 293 292 290 290 289 288 289 290 291 291 292 292 292 293 294 295 296 296 295 295 294 293 293 291
289 282 283 283 284 284 284 283 283 278 280 277 280 280 285 288 289 291 295 293 291 289 289 287 287 287 288 288 289 290 290 291 291 291 291 291 292 293 292 292 292 292 292 292
287 282 279 277 283 283 281 284 284 283 284 283 284 284 292 293 294 297 293 291 288 288 288 286 286 287 288 289 289 290 290 290 291 290 290 290 291 291 291 291 291 292 291 292
288 281 277 276 281 282 278 283 284 284 285 286 281 287 292 292 294 296 292 290 287 287 287 286 285 286 288 290 290 290 290 291 290 290 290 290 290 289 289 290 290 289 290 291
286 285 281 279 278 271 283 288 287 286 287 288 288 289 292 293 295 292 291 288 286 287 287 286 286 287 288 290 290 291 291 290 290 289 289 289 289 289 288 288 288 288 288 288
290 287 280 276 278 279 285 287 286 285 288 289 288 290 292 296 293 291 290 288 286 286 286 287 288 288 288 289 290 290 289 290 289 288 289 289 288 288 287 285 285 285 285 285
290 288 281 279 277 274 283 289 293 292 285 291 290 291 295 295 290 292 288 289 288 288 288 288 289 289 289 289 289 288 288 288 287 288 288 289 289 287 286 285 285 285 285 284
285 285 280 278 277 280 286 290 293 286 286 292 293 294 295 293 293 291 289 288 288 288 288 290 289 288 288 289 289 287 288 287 288 288 288 288 287 285 286 285 285 284 282 281
282 281 281 280 279 274 289 292 291 294 294 293 293 293 296 294 291 290 289 287 287 286 287 289 288 288 289 290 289 287 286 288 289 288 287 286 287 287 285 282 280 280 279 278
283 284 281 282 281 289 292 294 296 296 294 293 292 293 296 293 291 291 289 288 288 287 287 287 288 288 288 289 288 287 287 288 288 286 283 281 280 280 280 279 279 278 278 277
287 290 286 287 291 290 293 296 295 294 293 294 293 294 294 293 292 291 289 288 287 287 287 288 287 287 287 289 289 288 288 288 284 280 279 279 278 278 277 278 278 277 276 276
288 289 289 286 290 293 295 296 295 294 293 292 292 294 294 292 291 291 289 288 289 288 288 289 288 288 287 288 288 286 284 282 280 279 278 278 278 278 278 278 278 277 276 278
288 288 288 289 292 290 293 295 295 293 292 292 291 292 292 292 290 291 290 290 289 287 285 287 287 287 286 286 284 281 281 281 279 277 277 278 278 278 279 279 279 284 284 284

GFSCGP_sfc_thetae_060.txt.gz
Theta_e
303 295 293 298 299 296 296 294 291 295 297 297 297 298 300 303 303 303 305 306 306 307 309 309 309 311 312 314 316 317 317 319 325 334 336 336 335 336 336 337 341 341 339 337
297 292 299 301 300 297 295 292 292 294 296 297 295 295 299 301 302 302 302 303 304 303 303 304 305 306 308 309 312 314 315 317 318 324 335 337 338 337 338 337 338 338 339 338
293 295 301 299 298 295 295 292 292 292 294 294 293 293 294 295 296 297 298 301 302 303 303 305 306 306 307 307 308 310 312 314 316 318 325 333 336 338 337 338 338 337 336 338
293 297 299 297 296 297 291 296 295 293 292 289 292 288 291 293 294 297 300 302 304 305 306 306 307 308 308 310 310 308 309 310 312 315 317 324 328 328 332 333 336 337 336 334
288 292 296 295 296 299 293 297 294 292 291 289 288 288 289 293 292 294 298 301 303 306 306 307 307 308 309 310 311 312 310 308 310 312 315 320 325 327 330 332 333 334 336 334
290 297 295 294 297 295 294 292 291 291 289 285 287 286 286 289 292 294 297 300 302 305 307 309 309 309 310 312 312 312 311 310 310 309 312 315 320 325 327 329 331 333 334 331
286 289 293 298 290 294 292 291 284 283 283 283 285 284 289 292 293 296 297 300 302 305 307 308 307 308 309 310 311 310 310 310 311 312 310 310 312 318 325 327 328 329 330 329
287 283 290 294 292 290 290 292 287 278 280 282 284 283 288 294 295 298 297 299 302 304 307 307 307 308 309 310 310 310 310 310 312 312 313 313 312 312 314 317 322 325 326 329
286 285 293 293 293 294 289 288 289 283 282 283 285 287 290 292 292 296 297 299 301 304 306 306 307 307 308 308 308 309 308 310 310 311 312 313 314 314 314 315 316 320 323 326
290 284 291 291 295 293 292 292 285 286 279 278 281 282 286 289 292 295 296 298 301 304 304 304 304 305 305 305 305 307 307 306 307 309 310 311 312 312 313 315 316 317 319 320
293 290 287 292 289 289 288 288 286 286 284 281 280 283 293 293 295 294 296 298 302 302 302 302 303 303 302 303 303 303 304 304 305 307 308 309 309 309 309 309 310 311 312 313
292 291 285 286 291 293 291 289 288 285 280 282 282 284 293 296 296 295 297 298 302 300 299 301 300 299 300 300 301 301 301 301 302 305 307 307 308 309 309 308 308 308 308 308
293 287 282 283 287 290 288 289 288 286 286 282 283 285 293 294 294 296 297 301 300 299 298 298 297 297 297 298 298 298 298 298 299 301 302 303 303 303 302 302 301 302 303 302
295 288 285 283 284 288 285 287 287 287 284 284 285 286 291 293 293 297 298 301 299 297 295 295 295 295 296 296 296 296 296 296 297 298 298 297 296 295 294 295 295 294 294 293
293 286 287 286 287 287 287 287 286 284 287 285 286 286 291 293 295 297 299 297 294 294 293 293 293 294 295 295 296 296 296 295 296 296 295 294 294 293 292 293 293 293 293 292
291 285 285 283 286 286 284 287 288 287 288 287 288 288 296 298 298 298 299 295 292 290 290 291 291 293 294 295 295 296 295 295 295 293 292 293 292 292 291 292 293 292 292 293
290 287 285 282 285 285 282 286 287 288 289 290 285 291 296 295 295 297 297 294 291 290 290 290 291 291 293 294 294 294 294 295 294 293 292 292 291 290 290 290 289 289 290 290
290 288 287 283 284 278 287 292 292 290 291 292 292 294 295 296 297 297 296 294 292 290 290 289 291 291 292 293 294 294 294 292 291 290 290 290 289 289 289 289 288 288 288 287
293 290 285 282 281 285 288 289 289 289 292 294 292 295 296 296 299 297 295 292 291 291 290 290 290 290 292 292 293 293 292 291 290 289 289 290 290 288 288 287 286 285 285 285
291 291 287 283 279 278 289 294 297 295 290 297 295 296 297 299 296 299 294 292 291 291 291 291 291 290 290 290 292 292 290 289 288 289 289 289 289 287 286 285 285 286 286 285
286 287 284 284 282 285 291 294 295 288 291 298 298 298 299 297 300 296 293 292 292 292 291 291 291 289 290 291 291 289 289 288 289 289 289 289 288 287 287 286 286 286 285 284
285 284 282 283 281 279 293 296 292 296 299 299 299 299 298 298 293 292 291 291 291 290 290 291 290 290 291 291 290 288 287 289 289 289 288 288 289 288 286 285 285 285 284 283
285 289 287 287 287 293 296 296 299 298 298 299 298 299 299 296 293 294 290 290 290 290 289 290 289 288 289 290 291 288 288 289 289 289 286 285 285 284 285 284 284 283 283 283
293 294 290 290 294 294 296 297 298 298 298 299 299 298 299 299 296 293 291 289 289 289 289 290 289 289 288 290 290 290 289 290 288 285 284 284 284 283 283 283 283 282 282 281
294 293 292 292 295 297 299 300 299 298 299 297 297 297 298 299 297 295 292 290 289 289 290 290 290 290 289 290 290 290 290 288 285 284 284 283 283 283 283 283 283 282 282 282
295 294 292 291 297 298 298 298 296 297 297 298 297 296 298 299 298 296 294 292 290 289 290 291 291 290 290 290 288 289 288 286 284 283 283 283 283 283 284 284 284 285 285 284

GFSCGP_sfc_thetae_063.txt.gz
Theta_e
303 296 292 296 299 297 296 294 293 296 300 298 297 298 300 303 304 304 305 305 306 307 310 312 312 313 314 315 316 317 318 319 320 326 331 339 337 337 337 341 343 343 341 339
297 292 297 301 299 297 296 294 292 296 298 297 296 296 301 302 303 304 304 305 306 307 307 308 307 308 309 311 313 315 317 318 319 321 325 338 337 336 337 339 339 341 342 341
293 295 299 299 297 294 295 293 293 292 296 297 296 294 296 300 299 300 300 303 304 304 305 306 307 308 309 310 311 311 313 316 318 321 321 325 336 338 338 339 337 338 337 340
295 299 296 296 295 296 291 297 295 294 291 287 296 286 294 296 296 298 301 303 304 305 306 307 308 309 309 311 314 311 311 312 314 317 317 318 322 327 332 333 336 337 339 337
289 295 295 295 297 298 294 299 297 295 293 291 291 289 292 295 293 296 300 303 305 307 308 308 309 310 312 313 314 314 313 311 312 313 314 315 317 323 329 330 330 332 335 338
289 296 295 296 296 299 299 296 295 294 292 286 291 289 288 291 294 296 299 302 304 306 308 310 310 311 312 314 314 314 312 312 313 312 312 313 316 319 323 326 327 330 332 335
287 287 292 295 291 294 295 293 285 283 283 284 289 287 291 294 297 298 299 301 304 306 308 309 309 310 311 312 313 313 313 312 313 314 314 312 312 315 318 322 326 327 328 330
286 283 287 293 292 289 293 293 288 281 282 285 287 284 290 295 298 300 300 302 304 306 308 308 309 310 311 311 312 312 311 311 312 312 313 314 315 313 313 314 317 320 323 325
288 285 292 294 295 295 289 287 292 286 286 285 286 289 292 294 295 297 298 301 302 305 306 307 307 308 309 308 308 309 309 309 310 311 312 313 314 314 315 316 316 316 317 320
292 285 291 293 295 295 294 295 287 288 280 279 284 286 288 289 292 295 297 300 302 305 306 305 306 306 305 305 306 307 307 307 308 309 310 311 312 312 312 313 314 315 316 317
296 291 288 292 291 290 290 289 289 288 286 283 281 284 294 292 294 296 298 300 303 304 303 304 304 304 304 305 305 305 305 305 306 308 309 310 310 311 311 311 311 311 311 313
295 292 286 288 292 294 294 292 291 285 284 285 285 284 296 297 297 297 298 300 303 303 301 302 302 301 302 302 302 302 302 302 302 305 306 306 306 306 305 304 304 305 306 307
295 290 283 284 289 292 289 291 291 289 288 284 284 285 297 298 297 297 298 302 303 302 300 300 300 299 300 300 300 300 300 300 300 301 302 301 300 299 299 298 298 297 297 296
297 290 288 284 286 291 287 289 290 287 284 285 286 288 291 294 295 297 300 302 302 301 298 299 299 299 299 299 299 299 298 299 299 299 299 297 297 296 295 295 295 295 294 293
295 288 289 288 289 289 289 288 289 285 288 286 288 288 292 295 296 298 300 301 299 297 296 296 297 298 298 298 299 299 298 298 298 297 296 295 295 295 295 294 294 294 294 293
295 286 287 285 288 288 286 289 289 289 288 289 289 289 297 298 299 299 301 300 297 295 294 293 294 296 296 297 297 298 297 297 297 295 294 294 294 293 292 292 292 292 292 291
292 289 287 283 286 286 283 287 289 289 291 290 286 292 297 296 297 298 301 299 297 295 294 294 294 295 296 296 296 295 296 296 294 293 293 292 292 291 291 291 290 289 289 289
291 289 288 284 285 279 289 293 293 291 292 293 293 295 297 297 298 300 301 300 297 294 294 292 294 294 295 295 295 296 295 292 291 290 290 291 291 290 290 289 288 288 288 288
295 291 286 283 283 287 289 290 290 290 292 295 294 296 298 299 299 300 300 297 296 295 294 294 294 293 294 294 295 295 293 292 290 290 289 290 290 289 288 287 286 286 286 286
292 293 288 284 280 279 290 295 297 296 290 299 298 297 298 299 295 300 298 296 294 294 294 293 293 292 292 292 294 293 291 289 289 289 289 290 289 288 287 286 286 286 286 286
287 288 285 284 282 286 293 297 296 288 290 299 300 300 300 298 301 300 297 295 295 295 294 294 293 291 292 293 292 288 289 288 289 289 290 289 289 287 287 287 288 288 287 286
286 285 284 285 281 280 295 295 290 297 301 300 300 300 299 301 296 295 295 294 293 293 292 293 292 292 292 291 290 287 287 289 290 290 289 289 290 289 288 287 286 286 285 284
286 290 288 288 288 295 298 298 300 300 300 301 300 301 300 299 295 295 293 292 292 293 292 293 291 289 290 291 290 288 288 290 290 290 288 287 286 286 286 286 285 284 284 283
294 296 291 291 295 295 297 299 300 301 299 300 301 300 300 300 298 295 293 291 291 292 291 292 290 289 289 291 291 290 291 291 291 287 285 285 284 284 284 284 284 283 282 281
294 296 293 293 296 298 301 301 302 300 301 300 300 299 299 300 300 297 295 292 291 291 291 292 291 290 289 290 291 292 292 291 287 285 285 284 284 284 283 284 283 282 283 283
296 294 292 291 297 298 299 301 300 299 300 300 299 299 299 300 300 300 297 295 293 291 291 291 292 290 290 291 292 292 291 289 286 284 284 284 284 284 284 284 284 285 285 284

GFSCGP_sfc_thetae_066.txt.gz
Theta_e
301 294 290 294 297 296 295 292 290 294 299 297 296 297 298 300 301 299 300 300 300 302 305 305 306 306 306 307 308 310 311 313 314 315 321 335 334 334 335 338 338 339 333 334
296 291 297 299 299 297 295 292 290 294 299 296 295 294 298 299 300 301 300 299 300 301 301 303 303 301 303 304 305 307 309 311 312 313 314 326 335 334 334 334 337 337 336 335
291 294 299 297 295 294 293 290 290 290 294 295 292 290 294 298 299 298 297 298 299 300 300 302 303 304 305 306 307 306 306 307 309 312 313 314 330 331 329 330 332 335 336 334
294 299 296 296 294 296 290 295 295 293 289 284 292 280 291 295 293 295 295 296 298 299 301 303 304 304 305 307 309 309 307 306 308 308 309 308 309 316 326 330 334 334 334 333
289 294 294 291 292 298 292 297 294 293 289 287 288 283 287 292 290 292 295 298 300 301 302 303 304 307 308 309 309 309 309 308 307 306 307 307 307 310 313 321 324 325 326 332
290 296 296 294 297 299 300 295 293 291 289 280 288 285 284 287 291 294 297 299 301 302 304 305 306 307 308 309 309 309 308 308 309 308 306 305 306 307 308 314 318 320 323 326
288 288 292 296 290 295 297 289 281 279 280 278 287 285 286 292 295 295 295 297 300 302 303 304 304 305 307 307 307 308 307 307 308 308 308 308 306 305 305 307 312 316 320 322
285 281 289 293 293 290 290 289 280 275 277 278 285 280 285 293 297 297 298 299 301 302 303 303 303 304 304 305 304 305 305 305 306 306 307 307 308 309 308 309 308 309 310 313
286 285 291 293 294 295 289 286 289 282 281 278 281 284 288 291 293 294 296 298 299 301 302 301 301 303 302 301 302 302 303 303 304 305 305 306 306 307 307 308 309 310 311 313
291 284 290 292 295 294 293 294 284 282 273 275 278 281 282 286 290 293 294 296 300 302 301 301 301 300 300 300 301 301 302 302 303 304 305 306 306 306 306 306 306 306 307 309
294 289 287 291 289 288 288 287 289 285 282 275 275 277 288 289 291 292 295 298 300 301 299 299 299 299 300 300 299 299 299 299 299 301 302 301 301 302 301 299 300 300 302 303
294 289 284 287 292 293 291 290 289 280 280 279 277 278 292 291 292 295 295 299 301 300 299 299 298 298 297 297 297 296 296 296 297 298 298 297 297 296 295 295 294 294 293 294
293 286 278 280 286 290 287 290 290 287 285 281 277 278 293 292 292 294 295 298 300 300 298 297 297 296 296 296 296 296 295 295 296 296 295 294 294 292 292 292 293 293 292 291
296 288 284 278 283 287 282 287 289 284 277 281 279 282 288 291 292 293 295 299 299 298 297 296 295 294 294 295 295 294 294 294 295 295 294 292 292 291 292 293 294 294 293 290
292 284 285 286 288 289 287 287 288 281 284 277 283 284 288 290 292 293 297 299 297 296 295 294 294 293 293 293 294 294 294 293 294 293 292 291 292 293 293 294 293 293 292 292
292 283 283 279 287 286 283 288 288 287 287 286 287 286 292 293 295 294 296 298 296 294 293 292 293 293 294 292 293 294 293 293 293 291 291 291 292 292 291 291 291 291 290 290
289 284 280 277 284 284 278 284 286 287 288 288 283 288 293 293 295 295 297 298 297 294 293 292 292 291 292 292 293 291 291 292 292 291 290 291 291 290 290 290 289 288 288 288
288 287 283 277 280 271 286 292 291 289 290 291 291 293 295 294 296 297 298 297 295 293 292 291 291 291 292 292 292 292 292 291 291 290 289 290 290 289 288 288 288 287 287 287
291 289 282 277 278 284 286 289 288 288 288 293 291 293 294 297 297 296 298 295 293 292 292 291 290 290 291 292 292 291 291 290 290 289 288 289 288 288 288 286 286 285 285 285
291 289 284 282 277 276 288 292 295 293 288 295 294 293 295 296 290 296 294 293 291 291 291 290 289 290 290 291 290 290 289 289 288 289 289 289 289 288 286 286 285 286 286 283
285 285 280 281 281 283 292 295 294 286 288 296 297 297 297 294 295 296 294 293 292 291 291 291 289 288 289 290 289 288 288 288 289 290 289 289 288 287 287 286 282 280 281 282
284 282 281 283 280 275 294 292 288 294 297 297 296 296 298 297 295 295 294 293 292 291 291 291 289 288 289 291 290 288 287 289 290 289 289 287 288 288 287 282 282 280 279 278
283 286 283 284 283 292 294 294 297 297 298 296 296 297 298 297 294 294 293 292 292 292 290 290 288 289 289 290 290 287 288 290 290 288 286 284 283 283 283 280 279 278 278 276
290 292 287 287 290 291 293 295 297 297 296 299 298 297 297 297 295 294 293 291 291 292 290 290 288 288 288 290 290 289 290 290 288 285 281 280 280 280 280 279 279 277 276 276
291 291 289 288 291 293 296 295 297 297 297 297 297 296 296 296 297 295 292 291 291 290 291 289 288 288 289 290 290 290 290 289 285 281 280 280 280 278 278 279 279 277 279 280
291 290 287 287 293 293 294 296 297 296 295 296 296 295 296 297 297 296 294 292 291 289 290 289 289 289 289 290 290 289 289 287 282 280 279 279 278 278 279 279 279 286 284 284

GFSCGP_sfc_thetae_069.txt.gz
Theta_e
301 295 290 293 295 294 293 291 289 293 298 296 295 296 298 300 298 297 299 299 299 300 302 302 301 301 302 303 303 304 307 308 311 316 330 330 332 329 330 334 335 335 335 332
296 290 294 298 297 296 293 289 288 291 296 296 295 294 298 299 298 299 300 299 298 298 299 300 301 301 303 304 304 304 304 305 307 309 311 330 332 332 334 334 333 333 332 333
291 293 298 297 295 293 293 288 288 288 292 293 291 290 294 297 297 298 298 298 298 299 299 300 302 304 305 305 306 306 304 304 305 306 309 309 326 328 328 328 328 331 332 332
294 298 296 294 293 293 288 294 293 291 288 283 291 280 289 294 293 294 294 294 296 299 300 302 303 304 305 306 307 307 307 305 306 305 305 305 306 309 320 327 329 330 331 331
289 294 293 291 293 296 291 298 294 290 287 285 285 282 286 293 289 291 292 293 297 298 300 302 303 306 308 308 307 306 307 306 306 304 304 304 304 305 307 310 316 325 329 330
291 297 295 293 295 297 299 295 293 290 287 278 285 283 283 287 292 290 292 296 299 301 301 303 304 306 307 307 307 306 307 306 307 306 306 304 302 302 303 305 308 313 318 321
288 289 293 296 290 295 295 290 281 279 276 275 285 283 286 291 292 293 295 296 298 300 301 302 303 304 304 304 304 306 305 305 305 305 305 306 306 305 304 304 305 306 309 312
279 277 290 293 292 288 288 288 278 273 274 277 283 280 285 289 295 297 297 297 299 300 301 302 302 302 301 301 301 302 302 302 304 304 304 305 305 305 306 306 306 307 307 308
282 282 292 293 295 293 290 286 290 281 280 275 279 282 288 291 293 295 296 298 298 300 301 300 300 299 299 299 300 300 301 301 302 303 303 304 304 304 304 304 304 305 305 309
290 282 290 292 296 295 293 295 284 281 274 275 276 278 280 286 290 293 295 295 298 300 299 298 298 298 298 299 298 298 299 298 299 300 301 300 299 299 298 298 296 298 299 300
293 288 287 291 289 288 289 288 287 286 281 274 273 277 286 289 291 292 294 296 298 298 297 297 296 297 298 297 296 295 296 296 296 297 296 295 295 295 294 293 293 292 293 293
292 286 282 286 293 295 293 290 289 279 279 278 275 278 289 289 291 293 294 298 299 298 297 297 296 296 295 295 295 294 294 294 295 295 294 293 293 292 291 291 292 291 290 291
291 284 276 279 284 288 286 289 291 287 283 278 273 278 289 290 291 293 294 298 299 298 297 296 295 294 294 294 294 293 293 293 294 293 292 291 291 291 290 291 291 291 290 290
295 286 282 276 281 284 281 286 288 284 278 281 279 280 286 288 290 291 293 296 298 297 297 295 294 293 293 294 293 293 292 292 293 293 291 291 291 293 292 291 291 292 291 290
291 282 284 286 288 287 285 285 285 280 284 277 282 283 288 289 289 291 294 296 296 295 294 294 293 292 292 292 292 292 292 292 292 291 290 290 290 292 293 292 292 291 291 291
290 279 279 276 286 285 283 286 286 286 285 285 285 285 291 291 293 294 296 296 295 294 293 292 292 292 292 291 292 292 291 291 291 289 289 290 291 291 290 290 290 290 290 289
288 282 277 275 283 282 277 284 285 286 287 287 282 287 290 291 293 294 295 297 296 295 292 291 291 291 291 291 291 289 289 290 290 289 289 291 290 290 289 290 289 288 288 288
286 284 279 275 278 270 282 290 289 288 289 289 289 290 292 293 294 296 297 297 296 294 292 291 290 290 291 291 290 289 290 291 290 290 290 290 290 289 289 288 287 287 286 285
289 289 278 276 275 280 284 287 287 286 286 291 289 291 292 295 294 294 297 296 295 292 291 290 290 290 289 290 290 289 289 290 289 289 289 288 289 288 288 286 285 285 285 285
289 290 281 281 274 275 286 289 293 292 285 293 292 292 292 295 288 292 293 292 291 290 290 288 289 288 288 288 289 288 287 289 288 288 288 289 289 288 286 286 285 285 279 283
284 285 281 279 278 281 290 293 294 285 285 294 293 293 294 292 294 296 294 292 291 290 289 289 288 287 287 288 287 286 288 288 289 290 290 289 288 287 286 285 279 277 279 279
282 283 280 280 280 275 292 291 288 293 295 296 295 296 297 296 294 292 293 292 292 290 290 289 287 287 288 288 288 288 287 289 290 289 288 287 285 287 285 282 281 281 279 277
281 285 282 283 282 290 292 292 295 296 298 297 296 297 298 296 294 294 293 292 292 291 289 289 287 286 287 290 290 288 288 290 289 289 286 285 285 283 282 279 278 277 276 275
289 289 285 286 289 290 292 294 296 297 296 296 298 297 298 297 295 293 293 292 291 291 290 288 287 286 288 289 289 290 290 290 289 285 283 281 280 280 279 278 277 276 275 274
288 289 287 286 289 291 292 293 295 295 296 295 295 295 295 296 296 295 292 291 291 291 290 288 287 287 288 290 289 290 290 288 286 282 279 279 280 278 278 279 276 277 278 277
289 288 285 285 291 291 293 294 296 295 295 295 295 294 294 296 296 295 293 291 290 289 290 288 287 287 289 290 289 290 290 287 283 279 278 278 277 277 277 278 278 285 284 285

GFSCGP_sfc_thetae_075.txt.gz
Theta_e
301 293 288 289 292 291 291 287 288 292 297 296 295 294 298 301 299 297 296 297 299 300 299 299 299 299 301 301 302 303 308 308 324 329 328 327 328 328 330 331 334 334 332 327
294 289 293 296 295 293 291 288 286 291 295 295 294 294 297 299 298 298 297 296 298 297 297 297 300 301 302 302 301 301 302 303 305 311 320 329 328 328 329 328 329 330 330 330
290 293 297 296 293 291 288 285 286 288 291 292 291 290 293 298 296 297 298 297 297 297 297 298 300 301 302 302 303 303 303 302 302 303 305 308 322 325 327 326 326 328 330 330
294 297 295 293 292 292 286 292 291 289 287 282 290 281 287 293 295 295 297 296 296 296 296 299 301 302 302 303 304 304 303 303 303 302 302 302 305 317 317 315 317 315 323 326
289 293 292 291 292 294 289 295 291 290 286 284 284 281 285 286 288 293 297 296 294 295 297 299 301 304 305 305 304 303 304 305 304 304 301 301 301 303 304 304 305 308 313 316
292 295 293 292 295 295 297 291 290 289 285 276 283 283 282 285 287 289 293 293 295 295 297 299 303 305 303 303 303 303 303 303 304 305 305 302 301 301 303 304 303 304 308 309
290 290 294 294 289 294 292 287 282 279 279 276 282 282 287 288 290 291 291 290 292 295 297 299 302 302 301 301 301 302 302 301 302 303 303 303 303 303 302 303 303 304 305 305
282 283 290 293 288 288 287 285 278 274 275 276 282 279 284 290 292 292 293 292 294 295 297 299 301 300 299 299 299 299 300 300 301 302 302 302 302 302 301 300 301 300 301 303
280 281 292 294 294 291 287 286 286 277 275 272 278 281 286 288 289 290 292 294 295 296 298 299 299 298 298 297 297 298 298 299 300 299 297 295 295 295 294 294 294 294 294 299
285 280 290 293 296 294 291 292 283 278 273 271 275 277 281 284 287 290 292 294 297 299 298 298 297 297 296 296 295 295 296 296 295 295 295 293 293 292 292 291 290 291 291 292
289 284 286 291 289 288 289 288 288 286 278 274 273 277 283 284 287 290 293 296 298 299 298 296 296 296 296 295 294 293 294 294 294 293 292 291 291 291 290 290 289 289 290 290
290 285 282 285 292 293 292 289 289 277 277 274 273 277 285 285 286 292 293 298 299 298 297 296 295 295 294 293 292 292 293 293 292 292 291 291 291 290 289 289 289 289 289 290
291 285 280 282 286 292 289 291 292 287 280 271 273 278 288 287 287 292 293 296 298 297 297 295 295 294 293 292 292 292 292 291 291 291 290 290 290 289 288 289 289 289 289 289
295 284 282 278 281 284 285 287 290 288 277 277 276 282 285 287 288 290 293 296 296 297 297 295 294 293 292 292 291 291 291 291 291 290 290 289 291 292 291 292 291 291 290 289
289 282 283 283 284 284 283 284 286 285 287 281 285 283 287 289 290 292 294 295 295 295 295 295 293 292 292 291 291 290 290 290 290 289 288 288 292 292 292 291 291 291 291 291
287 278 279 276 284 284 282 284 285 287 287 287 287 283 291 291 289 291 293 295 295 295 295 294 294 292 292 291 291 291 290 290 290 288 288 290 291 291 291 291 290 290 289 290
285 280 276 274 281 281 277 283 284 285 286 287 281 289 289 289 290 291 291 293 295 296 295 294 293 293 292 291 292 290 289 289 288 288 288 291 291 290 290 289 289 288 288 289
283 281 278 273 277 269 282 286 287 286 288 288 288 288 291 291 291 292 292 292 294 296 294 293 292 291 291 291 290 290 289 289 289 288 290 290 290 289 289 288 287 287 287 285
287 283 279 275 275 278 282 284 285 284 284 289 288 290 290 291 291 291 294 295 295 296 295 293 291 291 290 290 289 289 288 289 288 289 290 290 290 288 288 286 285 285 280 276
286 287 282 275 274 273 280 287 289 288 280 290 289 289 289 291 286 288 294 296 295 294 292 290 289 289 289 288 288 288 287 287 289 289 289 290 290 288 286 286 285 284 278 275
284 285 281 279 279 280 285 287 290 279 282 292 290 290 290 289 290 293 294 291 292 290 289 289 289 288 289 288 288 286 286 286 289 290 289 289 289 287 286 285 283 283 283 283
281 282 281 281 279 276 288 289 285 289 291 293 291 290 291 292 293 292 291 290 290 290 289 289 287 286 287 288 287 285 285 288 290 289 289 288 288 288 287 284 280 279 277 276
280 284 281 282 282 288 289 291 292 294 294 294 295 295 294 294 292 292 291 291 290 289 290 289 287 286 286 287 287 286 288 290 290 289 288 287 287 286 284 280 279 278 276 275
284 286 283 284 287 288 289 290 293 295 294 296 296 298 298 297 294 292 291 290 290 290 289 289 288 286 285 286 287 287 290 290 289 288 287 286 284 281 280 280 279 277 275 274
285 286 284 283 286 288 290 291 292 294 294 294 294 295 295 296 295 295 293 291 290 290 290 289 288 287 286 286 286 288 290 290 288 288 286 283 282 282 278 277 276 276 275 276
287 285 284 283 288 289 289 291 292 294 294 294 294 293 294 294 294 295 295 294 292 290 289 288 288 287 287 287 287 289 291 290 288 287 284 281 278 277 276 276 277 283 283 285

GFSCGP_sfc_thetae_078.txt.gz
Theta_e
297 292 287 288 291 290 290 287 287 290 296 295 295 295 299 302 303 302 304 303 299 300 300 299 299 298 302 301 303 308 324 325 329 328 327 326 326 327 329 330 332 331 327 326
293 289 291 295 294 292 291 287 284 289 295 294 294 294 297 299 299 301 301 301 296 298 295 296 298 297 301 301 301 301 303 304 308 319 325 327 327 327 328 328 328 329 331 330
288 292 296 295 292 290 287 285 284 286 290 292 292 290 293 298 299 299 300 299 297 297 297 296 298 299 301 302 302 303 302 301 302 303 305 307 319 323 324 326 325 326 327 328
292 297 294 293 291 291 285 291 290 289 287 283 289 282 287 295 296 297 299 299 297 296 295 296 298 300 301 302 303 303 303 303 303 302 302 302 305 313 315 312 311 311 316 320
289 293 291 290 292 293 288 293 290 288 284 283 283 281 285 287 288 295 299 297 297 296 295 297 299 301 302 302 302 303 304 305 305 304 301 301 300 301 302 303 303 305 311 312
292 296 293 291 294 294 296 290 289 286 283 280 282 282 283 286 288 290 293 297 299 295 295 298 300 303 301 301 302 302 303 303 305 305 305 302 300 301 303 304 304 305 306 307
290 291 294 294 289 293 292 288 277 275 279 277 281 280 286 289 290 291 292 293 294 295 295 298 301 301 300 300 300 301 301 301 302 303 303 303 302 302 302 302 302 302 303 303
284 283 291 294 288 288 287 286 277 273 274 275 280 278 284 290 292 293 293 293 292 292 294 298 300 299 299 298 298 299 300 299 301 301 300 300 300 300 299 298 298 297 298 299
281 283 292 294 293 291 287 283 285 280 274 271 278 280 285 287 288 289 290 291 291 293 296 298 299 298 297 297 297 298 298 298 298 297 295 294 293 293 292 292 292 292 292 297
285 279 290 292 296 293 291 290 282 281 273 272 275 275 280 284 286 288 290 291 292 295 297 297 296 296 296 296 295 295 297 296 294 294 293 292 291 291 291 291 290 290 291 291
287 283 286 291 288 288 289 287 286 283 279 272 272 277 283 284 286 286 289 292 294 296 297 296 295 295 295 293 293 293 294 293 292 292 291 290 290 290 290 289 289 289 290 290
290 283 278 284 291 293 292 289 289 282 277 275 272 279 285 285 286 286 290 295 296 297 296 295 294 294 293 292 292 292 292 292 291 291 290 290 290 289 289 288 289 289 289 289
290 282 278 282 287 291 288 290 290 288 282 272 278 279 287 286 287 289 291 295 296 296 295 294 294 293 292 291 291 291 291 291 290 290 289 289 288 288 287 288 288 288 288 288
296 285 280 276 279 284 285 286 289 288 283 282 279 281 285 286 287 290 292 294 295 296 296 294 293 294 293 292 291 291 291 291 290 290 289 288 289 291 291 292 290 290 289 288
291 282 284 284 284 285 284 285 287 286 287 283 282 282 287 291 289 290 292 294 295 294 294 294 293 293 292 291 291 291 291 290 290 289 289 289 292 292 292 291 291 291 291 292
289 283 280 277 283 283 282 284 285 287 287 288 288 287 293 293 288 289 292 295 296 295 295 294 293 293 291 290 290 291 290 290 290 289 289 290 292 291 291 291 290 290 290 291
284 282 278 275 281 280 276 282 284 284 286 288 284 289 289 289 291 291 291 294 296 296 296 295 294 293 292 291 291 289 289 289 288 288 288 290 291 290 290 289 289 288 288 289
283 281 279 275 277 270 281 285 286 285 287 288 288 290 291 292 291 292 292 293 294 297 297 295 294 292 292 292 291 290 289 288 288 288 288 290 290 289 289 288 288 287 287 285
287 283 281 279 275 278 282 282 283 283 283 287 288 290 291 290 290 291 293 293 294 294 296 296 294 292 291 291 290 289 288 288 288 288 289 290 290 289 288 287 286 285 283 276
286 287 285 278 276 272 279 286 288 287 280 288 289 288 288 289 285 289 292 294 294 295 295 292 291 291 290 289 289 288 288 288 287 288 290 290 290 288 287 286 285 284 278 276
283 284 281 280 279 279 285 287 289 278 281 290 290 290 288 287 289 291 293 293 293 291 290 289 289 289 289 289 289 287 286 286 288 289 290 290 289 288 287 285 284 278 279 279
282 280 281 281 280 276 287 288 284 287 290 291 291 289 289 290 291 290 291 290 290 289 289 290 288 287 287 288 288 286 286 287 288 289 289 289 288 288 287 285 283 283 281 277
280 283 281 282 282 287 288 290 291 292 292 293 291 292 291 292 291 291 290 289 289 289 289 289 289 287 285 286 287 285 286 287 287 288 288 287 288 287 286 283 280 277 276 275
282 285 283 284 286 287 288 289 291 293 293 294 297 298 295 294 293 291 290 289 290 290 289 289 287 287 286 285 286 286 287 290 289 288 287 287 286 285 284 281 281 278 275 274
284 284 283 282 285 286 289 289 290 292 294 293 293 294 295 295 294 293 293 291 290 289 289 288 288 288 287 286 286 287 289 290 289 288 287 286 286 286 280 279 278 278 275 276
286 284 283 282 287 288 288 291 291 293 293 293 293 291 293 294 294 294 294 294 292 291 290 288 287 287 287 287 287 288 289 290 288 287 286 285 284 281 278 277 276 283 283 284

GFSCGP_sfc_thetae_081.txt.gz
Theta_e
298 292 289 291 293 292 292 292 290 293 298 298 297 297 299 303 303 303 305 306 306 307 306 304 304 306 308 310 320 330 333 335 336 335 334 333 334 335 336 337 337 335 333 331
292 289 292 295 295 293 292 289 289 293 296 297 295 295 298 302 302 304 304 305 306 304 303 303 302 303 306 306 309 312 325 324 331 333 333 334 334 335 335 336 336 337 337 336
287 292 295 295 293 291 290 288 288 289 293 295 294 292 294 299 302 304 305 306 307 304 302 302 301 303 305 305 306 306 307 308 309 314 316 317 326 330 332 332 333 332 332 333
292 296 294 292 291 292 287 292 291 290 289 286 292 284 290 296 297 299 302 304 305 302 301 301 301 303 304 306 307 306 306 306 306 306 308 309 314 319 322 319 315 316 319 321
289 293 292 290 292 293 289 294 291 289 287 287 286 285 287 292 294 297 299 302 304 303 302 301 301 304 305 306 306 307 308 308 308 306 306 306 306 307 307 308 308 310 314 314
292 297 295 293 294 295 295 291 290 287 285 280 284 285 285 288 291 293 299 303 304 304 302 301 302 304 305 305 306 306 307 307 309 309 308 306 306 306 307 308 309 310 311 311
290 291 295 294 290 294 294 287 280 277 279 278 283 282 287 292 293 293 295 296 299 302 300 299 302 303 303 303 304 305 306 305 306 307 307 307 307 307 307 307 306 307 308 306
284 282 291 294 290 289 289 288 280 274 275 277 282 280 286 292 293 295 295 295 296 296 297 299 303 304 303 302 303 304 304 304 305 305 304 304 304 304 302 302 302 300 301 302
284 284 293 295 294 292 288 286 287 281 277 276 280 283 288 289 291 292 292 293 294 295 296 300 302 302 302 301 302 303 303 303 302 301 299 298 298 298 297 296 297 297 296 298
287 281 291 293 295 294 291 290 283 283 274 274 278 278 283 287 288 290 291 292 295 295 297 300 300 300 300 300 300 301 302 301 299 298 297 296 295 295 295 295 294 294 294 295
288 284 286 291 289 288 289 287 287 285 281 276 274 279 285 287 289 288 289 290 294 296 298 299 299 299 298 298 298 298 298 297 297 296 295 295 294 293 293 293 293 293 293 293
289 285 282 286 292 294 293 289 289 283 279 277 276 281 288 287 288 288 289 293 296 297 299 299 298 297 296 296 296 297 297 296 295 295 294 294 293 293 293 292 292 292 292 292
290 284 279 282 287 291 289 290 291 286 284 274 278 281 288 288 289 291 292 295 297 297 297 297 296 296 295 295 295 295 295 295 294 294 293 293 292 292 292 292 292 292 291 291
295 286 281 278 280 284 284 287 289 288 282 281 282 284 289 291 290 291 293 295 297 297 298 297 296 296 295 294 294 294 294 294 293 293 292 292 292 292 293 293 292 293 292 291
293 285 284 285 284 286 285 285 286 284 286 282 284 284 289 291 292 291 292 294 296 296 296 296 296 295 295 294 294 293 294 293 293 292 292 292 294 294 293 293 292 292 293 292
290 284 283 280 285 283 282 285 286 286 287 287 287 286 294 295 292 293 293 292 295 296 297 297 296 296 295 294 293 293 293 292 293 292 291 292 293 293 292 291 291 291 291 292
285 283 281 279 282 281 276 283 285 286 287 288 284 289 293 292 293 295 296 294 294 297 298 297 297 296 296 294 294 292 292 292 291 291 291 292 292 292 291 290 290 290 289 290
284 283 283 280 279 272 282 286 287 286 288 289 289 291 292 293 295 294 293 293 295 297 298 298 297 296 295 294 293 292 291 291 290 290 290 291 291 291 290 289 288 288 288 287
288 284 281 279 276 278 283 283 283 283 283 287 288 290 292 292 291 292 293 293 295 297 299 299 298 296 294 294 293 292 290 290 290 289 290 291 291 290 289 288 287 286 285 283
286 289 285 279 274 273 280 286 288 287 281 288 288 288 288 288 284 289 293 294 293 294 296 296 295 294 293 292 292 291 289 289 289 290 290 291 291 289 288 287 286 285 283 282
283 284 282 280 278 280 285 287 289 280 281 290 292 292 290 287 290 292 294 294 294 294 293 292 292 292 292 291 291 290 289 289 290 291 291 291 291 289 287 286 285 283 282 282
283 281 280 282 279 277 288 287 284 287 290 292 293 292 290 290 291 292 292 292 291 290 290 290 290 290 289 290 291 289 288 290 290 290 290 290 289 289 287 286 285 284 283 281
282 282 281 282 282 288 288 289 291 292 291 293 293 294 292 292 292 292 291 290 290 290 289 290 289 288 288 289 290 288 289 289 289 289 289 289 288 288 287 285 284 283 282 280
286 286 282 284 286 287 288 289 290 292 293 295 297 298 294 293 293 292 290 289 289 289 289 289 289 288 287 289 288 289 288 289 289 289 289 288 287 286 286 285 284 282 280 279
285 285 283 282 286 286 289 289 290 290 293 294 294 295 296 296 294 294 292 290 290 290 291 290 289 289 289 288 289 289 289 290 289 289 288 287 287 287 285 284 283 282 281 280
284 284 283 282 288 287 288 289 291 291 293 294 294 293 294 295 295 295 294 294 292 291 290 289 289 289 289 288 288 288 290 290 289 288 287 287 286 286 284 283 282 286 285 285

GFSCGP_sfc_thetae_084.txt.gz
Theta_e
296 294 292 295 298 297 297 295 294 297 302 300 299 300 303 306 307 307 308 311 312 313 316 315 312 313 324 331 336 337 339 341 342 341 341 341 340 342 343 344 345 344 343 341
291 290 297 298 299 296 296 294 293 296 300 300 299 299 303 305 305 307 307 309 312 313 314 313 310 310 315 324 326 332 336 339 339 340 341 342 341 342 342 343 343 343 343 342
289 292 298 297 296 294 295 293 293 293 297 301 297 296 299 303 306 307 308 310 313 313 313 313 311 309 311 314 317 321 327 335 336 337 336 335 338 339 339 339 339 340 339 340
293 297 296 295 294 296 291 297 296 294 294 289 297 288 296 300 301 304 306 308 309 312 313 312 309 307 308 311 313 313 314 316 318 319 327 331 334 334 336 335 331 328 325 327
290 293 293 293 295 297 293 297 296 295 294 292 292 288 294 298 297 301 304 307 307 310 312 308 308 309 310 312 313 313 312 312 312 312 314 315 315 316 316 316 315 317 320 319
293 299 297 296 298 298 298 295 295 294 292 285 290 290 290 294 296 299 304 307 306 307 311 310 312 311 310 312 311 312 312 313 314 313 312 312 312 311 312 313 313 315 316 316
291 292 297 298 295 297 297 293 284 283 283 282 289 288 291 297 300 300 301 303 307 308 309 310 308 308 310 310 310 311 311 311 313 314 313 314 314 314 313 313 313 313 314 313
286 283 293 297 295 293 293 292 285 277 279 283 287 285 291 298 300 302 303 303 301 303 305 307 308 309 309 310 310 310 311 310 311 312 311 312 312 312 312 311 311 309 310 310
288 285 294 296 296 296 292 288 292 286 284 283 287 290 295 298 298 299 299 300 301 303 302 301 304 307 309 309 309 310 310 310 310 309 308 307 307 307 306 305 306 305 304 303
292 284 292 294 296 296 294 296 286 288 279 278 284 285 288 292 295 297 298 298 299 301 302 302 304 306 308 308 309 310 310 309 308 307 306 305 304 303 303 304 303 302 302 301
293 290 288 292 290 290 290 289 290 290 287 282 280 285 294 293 295 295 298 297 299 300 301 302 305 305 305 306 307 308 308 306 305 305 304 303 302 301 301 301 301 300 300 300
293 290 285 287 294 297 295 291 292 285 283 286 284 285 294 294 295 296 298 299 301 302 302 304 304 304 304 304 304 305 306 305 305 304 303 302 301 300 300 299 299 299 299 298
292 289 282 284 289 292 290 292 293 292 289 284 283 286 293 294 295 297 299 301 303 302 302 304 305 304 304 304 304 303 303 303 302 301 301 300 299 299 299 298 298 297 297 297
297 290 287 283 285 290 287 290 292 290 285 285 286 288 293 295 296 297 299 300 303 303 302 304 304 304 304 303 302 302 302 302 301 300 300 299 299 299 299 298 298 297 297 296
293 286 288 288 288 289 288 289 290 287 289 285 288 289 292 295 297 298 300 299 300 302 302 304 304 304 304 302 302 302 301 300 300 299 299 299 299 299 299 298 297 296 295 295
293 286 287 285 289 288 286 289 290 290 290 290 290 290 297 298 299 299 299 299 299 300 303 304 305 305 304 303 302 301 301 300 299 299 298 298 298 297 297 296 295 294 294 293
290 287 285 283 286 285 282 286 288 289 291 291 287 292 297 296 297 298 299 300 301 302 302 304 305 305 305 304 303 301 300 300 298 298 298 297 297 296 295 294 293 292 292 292
288 288 288 284 283 277 287 289 291 290 291 293 293 294 296 297 298 299 301 300 300 301 301 304 306 306 306 305 303 302 300 298 297 297 296 296 296 295 294 292 291 291 290 290
292 289 285 282 281 285 287 288 287 287 287 293 292 294 295 296 296 296 299 301 302 303 303 305 307 307 306 304 302 300 297 297 296 295 295 295 295 294 292 290 290 288 286 286
289 291 287 283 279 277 286 291 292 292 285 293 293 294 295 294 291 297 299 300 300 302 302 304 306 304 304 303 301 299 297 296 295 295 295 295 295 294 292 289 288 287 287 286
284 286 284 283 282 285 291 292 294 283 287 296 297 298 297 293 296 297 298 299 299 299 300 303 302 302 302 299 299 297 296 295 296 296 295 295 295 293 291 288 287 285 285 287
285 284 283 284 281 279 292 291 287 293 297 297 299 299 297 297 296 297 297 297 297 297 296 298 299 298 298 298 297 296 294 296 295 294 294 293 293 291 289 288 286 285 285 286
284 288 287 288 287 292 294 295 297 298 297 299 300 300 298 297 297 298 297 297 297 297 297 297 298 295 295 296 297 295 295 294 294 293 293 292 292 290 288 287 285 284 286 285
288 289 287 288 292 293 294 296 297 298 298 300 302 301 296 296 298 298 296 296 296 296 296 296 296 295 294 295 296 297 295 295 294 293 293 292 290 288 287 287 286 286 286 285
287 287 287 288 291 293 295 296 297 296 296 298 300 301 301 301 299 298 297 296 296 295 295 295 295 295 295 294 294 294 294 294 293 293 291 291 289 288 286 286 286 286 287 287
285 285 286 287 290 291 294 296 297 296 296 297 299 298 299 300 300 299 299 298 296 295 293 292 292 291 293 292 293 293 294 293 292 291 290 290 288 288 286 286 285 289 288 287

GFSCGP_sfc_thetae_087.txt.gz
Theta_e
296 294 292 296 298 297 296 295 294 297 302 301 300 301 303 307 308 308 309 310 312 313 318 317 315 313 325 337 339 341 341 342 342 342 340 341 340 343 343 343 344 344 343 343
294 293 297 299 299 298 297 294 294 297 301 300 299 298 302 305 306 308 308 309 311 313 316 316 314 312 313 327 334 339 340 341 341 342 342 343 344 344 345 345 345 345 344 344
290 295 299 298 297 295 295 294 294 294 298 300 298 296 299 304 306 307 309 310 311 312 314 316 314 313 313 318 326 331 336 339 341 342 341 338 338 340 340 340 341 341 341 342
293 298 296 296 294 296 291 298 296 295 294 289 298 287 295 300 302 304 307 308 309 312 315 316 315 314 311 315 322 321 328 334 336 331 334 333 333 334 337 337 338 335 330 331
292 294 294 294 295 297 293 299 296 296 293 293 293 289 294 299 298 302 305 307 309 311 315 316 315 314 313 316 317 317 317 320 320 322 326 329 330 329 325 321 322 322 322 322
294 300 298 297 299 299 300 296 296 295 293 285 291 290 291 295 298 301 304 307 308 310 312 316 315 314 312 315 315 316 314 314 314 314 315 317 317 315 314 315 314 315 317 318
291 294 298 299 295 298 297 292 285 282 282 282 291 289 292 298 300 301 302 304 308 310 311 312 312 312 313 313 313 313 313 312 314 315 314 314 315 315 315 315 314 314 314 315
286 284 294 298 296 292 293 292 286 278 281 284 290 285 290 299 302 303 304 305 304 306 310 311 313 314 312 312 312 311 312 312 313 314 314 315 315 315 314 313 312 311 311 311
287 287 296 298 298 297 292 290 295 287 288 284 287 291 295 298 299 301 301 303 304 305 305 307 309 308 311 311 311 311 312 312 312 312 312 311 311 311 309 309 308 308 307 305
293 285 293 295 298 298 295 297 287 288 279 278 284 286 288 293 296 298 299 300 302 302 304 306 305 306 310 311 312 312 312 311 311 310 310 308 307 307 306 306 305 304 304 303
295 291 289 293 291 290 291 290 291 290 287 281 281 285 295 295 297 297 299 301 302 303 303 305 305 307 309 310 310 310 310 310 309 308 307 306 305 304 304 303 302 302 302 302
295 292 286 288 295 297 295 291 291 285 283 287 285 286 296 297 297 298 300 302 304 304 304 305 306 307 307 307 308 309 309 307 307 307 306 305 304 303 303 302 301 301 300 300
294 289 283 285 290 294 291 293 293 292 291 285 283 286 296 297 297 299 300 301 303 304 304 305 305 305 306 306 307 307 307 307 306 305 304 303 303 302 302 301 300 300 299 299
298 290 287 283 286 291 287 290 292 291 285 286 287 289 294 295 295 297 300 302 302 303 304 305 305 305 306 307 306 306 305 304 303 303 303 302 302 302 302 301 300 299 299 298
291 286 289 290 289 291 290 290 290 288 290 286 289 290 293 296 297 299 302 301 301 301 304 305 305 306 307 306 305 305 305 304 303 301 301 301 301 302 301 300 299 299 298 297
294 286 288 285 289 290 287 290 291 291 290 290 291 291 297 299 300 299 300 300 300 301 302 305 306 307 306 306 305 304 304 302 302 301 301 301 301 300 299 299 298 297 295 295
287 286 285 283 288 286 283 288 290 291 293 292 288 293 298 297 298 299 299 300 300 301 303 304 306 307 307 307 307 304 304 303 301 301 301 300 300 298 298 297 296 294 293 293
285 284 287 283 285 278 288 292 294 292 293 295 294 295 296 297 299 300 301 300 300 302 303 304 306 308 309 309 307 306 304 302 301 300 300 299 299 298 297 295 294 293 292 292
288 286 285 282 281 286 288 288 288 288 288 294 293 295 296 297 298 298 302 302 302 302 304 305 306 308 310 309 308 305 303 301 300 299 299 298 298 297 295 293 292 290 287 286
288 288 286 285 280 277 287 291 294 294 285 296 295 295 297 298 292 297 300 300 301 302 304 304 306 307 309 309 307 303 301 300 298 299 298 298 298 296 294 292 290 289 288 286
284 284 282 284 282 286 293 294 295 283 288 298 298 299 299 296 298 300 300 300 301 300 303 304 306 307 308 307 305 301 301 299 300 299 298 297 297 296 294 290 289 287 286 286
285 284 284 285 282 279 294 293 288 294 298 298 299 301 300 299 299 298 300 299 299 299 298 302 303 304 305 303 302 301 299 300 299 298 296 296 295 293 292 290 288 286 286 286
284 288 286 288 287 294 295 296 298 299 298 299 301 302 302 299 299 300 299 299 299 299 299 300 300 298 299 300 301 299 298 298 296 295 295 295 294 292 291 288 286 285 285 285
289 290 288 289 292 294 296 297 298 300 299 301 302 303 302 298 300 300 299 298 298 298 298 299 299 298 297 299 299 300 298 297 296 295 294 294 292 291 290 288 286 285 285 286
287 288 288 289 292 294 296 297 298 298 299 299 300 302 302 303 301 301 300 299 298 298 297 298 298 298 297 297 297 298 297 297 295 295 294 293 291 290 288 287 286 286 287 288
287 285 283 285 292 292 294 296 298 297 297 299 298 300 301 302 301 301 301 300 297 298 296 296 295 296 296 296 295 295 295 296 295 294 292 292 290 290 287 286 285 290 290 291

GFSCGP_sfc_thetae_090.txt.gz
Theta_e
296 293 290 293 296 295 295 292 291 296 302 300 298 299 300 303 305 303 303 304 305 307 312 313 311 311 321 332 334 335 335 337 336 336 334 334 333 335 337 339 339 338 339 339
293 290 296 298 298 296 293 290 290 296 300 299 297 296 300 301 302 304 304 303 305 306 309 310 308 308 318 328 331 335 335 336 336 337 337 335 336 334 335 337 338 338 338 339
289 294 299 297 296 294 294 291 291 292 296 296 293 291 295 299 301 303 305 305 305 305 305 309 306 306 308 318 326 330 333 334 335 337 334 331 333 335 335 334 335 336 337 338
294 298 296 295 294 295 290 297 296 294 291 284 294 281 290 296 298 300 301 302 303 304 307 309 308 306 306 309 322 325 329 333 334 333 330 329 329 328 329 332 334 328 327 326
291 293 293 293 293 296 293 297 295 295 290 288 290 284 288 293 294 297 300 301 303 304 306 308 309 307 308 312 313 314 318 325 326 324 328 329 327 325 322 322 322 321 319 318
293 299 297 295 298 297 300 295 294 292 289 280 287 286 285 289 292 295 299 302 303 304 306 309 310 308 307 310 311 312 313 315 313 317 317 320 322 312 311 312 312 312 315 314
290 292 297 299 293 296 295 290 281 279 280 276 288 286 287 293 295 295 297 296 299 303 305 307 307 306 306 308 309 309 309 309 310 309 308 310 310 308 309 309 309 309 310 311
280 282 292 297 294 290 290 289 282 276 276 278 287 281 285 294 296 297 299 298 299 299 301 306 307 306 306 308 309 308 308 309 310 309 309 310 311 310 310 309 308 307 307 306
285 284 295 297 298 296 289 284 292 285 284 277 283 286 291 294 294 295 295 297 297 297 298 304 305 306 307 308 309 308 309 309 309 309 309 308 307 307 305 304 305 304 302 302
292 284 292 295 297 296 293 294 284 282 272 274 278 280 283 288 291 295 293 294 296 297 296 299 301 303 305 307 310 309 308 309 308 308 306 306 305 304 303 303 301 300 300 300
294 289 288 292 289 288 290 289 290 288 283 274 275 280 288 290 292 293 294 297 297 298 297 298 299 302 304 306 308 308 309 307 306 306 304 302 302 302 301 299 299 299 299 299
294 289 284 287 294 296 294 291 290 284 281 282 278 281 291 292 293 294 297 299 299 299 299 299 300 302 303 303 305 307 307 306 305 304 304 302 301 301 299 298 298 298 297 297
293 286 282 285 289 293 290 291 292 290 288 280 277 280 293 293 292 294 295 296 299 300 300 299 300 300 301 301 302 303 304 304 303 302 301 300 299 299 298 298 297 297 296 295
296 289 284 280 284 288 285 289 291 289 284 282 284 286 291 292 293 293 295 296 294 298 300 300 299 299 300 301 302 302 302 302 301 301 300 299 298 298 298 297 297 296 296 295
290 283 287 288 290 290 288 288 290 287 288 283 286 288 292 294 294 292 295 296 296 297 298 300 300 299 300 301 301 301 300 299 299 298 298 298 299 299 298 297 296 296 295 294
289 284 285 285 289 288 286 289 290 290 290 289 289 289 295 297 297 296 296 297 296 296 298 299 301 301 300 300 300 301 299 298 298 297 297 298 297 297 296 295 294 294 293 292
284 284 283 281 286 285 282 286 288 290 291 291 286 291 295 294 295 295 295 297 297 297 298 298 300 301 301 301 300 299 298 298 297 297 297 297 297 295 295 294 293 293 290 290
283 281 282 282 284 275 286 290 292 290 292 293 293 293 295 294 295 295 295 294 295 297 298 298 299 301 303 302 301 300 299 298 297 296 296 296 296 295 293 292 292 292 289 290
287 283 281 281 279 284 285 287 288 287 286 292 291 292 293 294 292 293 297 296 295 296 298 298 300 300 302 302 301 300 298 297 296 296 295 296 295 294 292 290 292 289 287 286
287 286 283 282 278 277 284 288 291 290 280 293 292 292 293 294 286 291 295 297 297 298 298 298 299 301 302 302 302 299 296 295 295 295 295 295 295 293 291 291 290 288 286 286
283 283 278 281 280 284 289 290 292 279 283 295 295 295 294 292 293 295 296 296 297 297 296 298 299 300 301 301 299 297 295 294 296 296 296 295 294 292 290 289 288 286 286 286
282 280 281 282 278 278 290 290 284 290 293 294 295 296 296 296 295 295 296 296 296 296 296 298 298 297 298 299 298 296 294 295 295 294 294 293 292 292 291 289 288 287 286 285
281 285 283 287 285 291 292 291 293 294 293 294 296 297 298 296 295 296 296 295 295 295 295 297 295 294 295 296 297 294 294 294 293 292 291 291 292 291 290 288 286 285 285 285
284 288 285 285 290 291 293 293 294 294 294 295 298 298 298 294 296 297 296 295 294 295 294 295 294 293 293 295 296 295 294 294 293 291 291 290 291 290 289 288 287 285 285 285
282 283 284 284 287 291 293 292 293 294 295 295 295 296 298 298 298 297 296 295 294 294 294 294 294 293 293 293 293 294 294 293 292 291 290 289 291 290 287 287 286 285 286 287
282 281 279 279 285 287 289 289 295 295 295 295 294 295 297 298 298 298 296 295 295 295 293 292 291 292 292 292 292 292 294 295 294 292 290 289 289 288 287 285 285 290 290 291

GFSCGP_sfc_thetae_093.txt.gz
Theta_e
294 290 285 289 292 293 293 292 291 295 301 298 297 299 301 302 301 301 301 303 304 305 311 312 313 315 325 330 335 336 336 336 336 335 335 333 336 337 337 337 337 336 336 336
290 286 293 297 295 294 292 289 290 295 301 299 297 296 301 302 301 302 302 302 303 303 306 308 308 309 317 328 333 335 336 337 337 337 336 334 335 332 332 334 336 337 336 336
286 292 298 296 294 292 290 289 290 291 297 298 295 290 294 300 299 302 304 304 304 304 303 305 304 305 313 326 328 331 333 335 335 336 333 330 330 331 331 333 333 333 335 333
290 297 295 293 292 293 288 296 295 293 291 284 292 279 287 295 294 298 299 301 303 303 304 307 303 302 304 322 325 329 331 334 333 333 331 328 327 327 329 331 332 330 330 327
287 292 291 291 293 295 292 297 294 294 289 286 287 282 286 289 290 295 296 297 300 303 304 307 306 305 304 307 317 321 324 328 328 330 332 329 326 327 324 326 325 321 320 320
291 297 295 293 297 296 297 294 292 291 288 277 284 284 283 286 290 293 296 299 300 302 303 304 308 306 304 309 310 311 315 318 320 321 324 327 325 319 318 317 316 315 314 314
286 289 295 297 291 295 293 289 280 275 274 275 285 283 286 291 293 294 295 296 298 300 302 303 303 303 305 306 307 308 310 310 311 315 316 316 318 313 313 312 311 310 311 310
276 274 290 296 292 289 289 288 279 274 274 276 285 279 284 292 294 294 297 297 297 297 298 303 305 304 305 305 306 306 306 306 307 307 307 312 311 310 310 311 309 308 307 306
280 281 294 296 296 294 288 283 289 282 281 274 280 284 289 292 293 293 295 296 296 296 298 301 303 302 304 305 306 305 306 306 307 307 308 307 307 307 307 304 303 303 301 302
289 280 290 293 296 295 292 293 283 283 277 274 276 279 282 285 290 293 291 292 294 295 297 299 301 302 303 305 305 306 306 306 307 306 306 305 303 303 302 301 300 300 299 300
293 288 287 292 288 287 289 287 288 286 282 274 274 278 286 287 290 292 293 295 295 296 296 296 298 301 303 304 304 304 306 308 306 305 303 302 302 301 300 299 299 299 299 299
293 289 283 288 294 295 293 290 289 278 279 279 277 280 290 290 292 294 295 297 297 298 298 297 297 300 301 302 303 303 305 307 306 304 303 301 301 299 299 298 298 298 297 297
293 286 280 283 288 292 289 291 291 289 285 275 275 278 290 289 291 294 295 296 297 297 297 298 298 299 299 300 301 303 303 303 302 304 303 301 300 299 296 298 297 297 296 296
294 285 283 279 283 288 286 288 291 288 282 279 278 283 288 288 290 291 294 294 295 297 298 297 297 298 298 300 300 300 300 301 300 300 300 299 298 298 297 296 296 296 295 294
289 282 286 286 288 288 288 288 289 286 287 282 285 286 291 293 292 293 293 294 293 295 297 298 298 298 298 298 299 300 299 299 299 298 297 297 297 297 296 296 295 295 294 293
287 282 284 281 288 288 285 289 289 290 289 288 288 287 294 296 294 294 294 294 294 295 296 299 299 299 298 298 298 299 297 297 298 297 296 297 297 296 295 294 293 293 291 291
281 281 276 278 287 285 281 285 288 289 291 290 285 291 295 294 294 294 294 294 294 295 296 296 298 300 300 299 300 299 297 296 296 296 296 296 296 295 294 293 292 291 289 289
279 278 277 276 283 275 285 291 292 290 291 293 292 292 295 295 295 296 294 293 294 295 296 296 296 299 300 301 301 299 298 297 296 295 295 296 295 294 293 291 291 289 288 288
283 279 275 276 280 282 285 287 288 286 287 292 290 292 293 293 291 290 295 294 294 295 296 296 296 298 300 301 301 299 297 296 295 295 295 295 294 292 291 289 288 287 286 285
284 283 280 279 277 276 284 287 290 289 281 292 290 290 291 292 285 288 294 295 295 296 296 296 296 297 299 300 300 298 296 295 295 294 294 295 294 292 290 288 287 289 287 286
281 282 278 279 279 282 289 289 291 279 280 293 294 294 293 290 291 294 294 295 295 295 295 296 295 297 298 299 299 297 295 295 295 295 295 294 293 291 289 288 288 288 287 286
281 279 279 281 276 275 291 289 283 288 291 292 293 295 294 294 293 293 294 294 294 294 294 296 294 294 295 297 298 295 294 294 295 294 293 292 291 291 289 287 288 287 287 286
278 283 283 286 284 291 292 291 292 291 291 293 296 296 296 294 294 295 295 293 293 293 294 294 293 293 294 296 296 293 293 293 293 292 291 290 290 289 288 288 287 286 286 285
281 284 282 283 288 290 291 291 291 292 292 293 295 296 296 294 296 294 294 293 293 293 294 294 293 292 292 294 295 294 293 293 292 291 289 289 289 289 290 289 287 286 285 285
280 281 280 281 283 287 289 289 290 293 294 295 295 294 297 298 296 295 295 295 293 292 292 293 292 292 292 292 292 293 292 292 291 290 289 289 290 290 288 288 287 286 286 287
280 279 277 277 282 283 285 288 292 291 293 294 295 295 296 297 296 296 294 294 294 294 293 291 290 291 290 291 291 291 292 292 291 291 291 290 290 289 288 286 286 291 290 291

GFSCGP_sfc_thetae_096.txt.gz
Theta_e
294 288 285 288 290 291 292 292 291 294 299 298 296 297 301 304 304 301 301 301 302 306 311 312 316 327 329 331 331 334 334 335 337 337 336 334 332 336 335 336 336 335 335 334
288 284 293 296 295 292 291 289 288 294 299 296 296 294 300 303 302 301 300 301 302 302 304 309 310 314 325 331 333 333 334 333 334 334 334 335 333 334 336 336 337 337 336 336
284 290 297 295 293 290 288 287 289 292 297 298 294 292 296 300 303 301 302 302 303 303 302 306 307 307 312 325 331 333 334 334 335 335 332 330 330 331 331 330 331 333 334 335
289 295 294 292 291 291 286 294 294 294 292 286 294 281 286 292 296 299 299 300 301 302 302 305 307 304 305 319 327 333 334 335 335 334 331 331 331 329 330 329 330 330 332 331
286 290 290 290 291 293 289 295 294 293 288 286 287 284 285 289 290 295 295 297 301 302 302 304 306 307 305 308 318 322 327 328 329 330 333 329 325 326 325 326 327 323 321 323
289 295 293 292 295 295 296 293 292 292 287 281 284 286 284 286 289 292 295 297 300 303 302 304 306 305 302 303 313 317 321 323 325 326 325 326 325 323 321 319 320 317 315 315
284 287 294 296 290 294 294 290 281 279 280 279 284 284 286 290 292 292 293 295 297 299 301 300 304 303 302 305 309 310 315 317 318 320 320 322 322 319 319 319 319 315 313 312
275 274 289 294 290 287 289 288 280 274 275 277 285 280 285 292 295 294 295 294 296 297 298 299 302 303 303 305 307 308 309 310 309 311 312 312 315 314 315 315 315 314 313 309
279 280 291 294 295 292 287 284 290 281 279 274 280 283 289 291 290 290 292 294 292 293 298 298 302 301 302 304 305 306 306 305 305 305 306 308 309 310 310 309 312 311 309 306
287 282 288 293 296 295 290 292 284 283 276 274 276 278 282 284 288 290 290 291 291 292 295 299 300 300 301 302 303 304 305 305 305 305 304 304 303 304 303 304 301 299 299 301
289 287 284 291 288 286 289 286 287 286 283 275 274 277 284 286 289 290 291 293 294 293 294 295 298 300 302 303 303 303 304 305 304 304 303 302 302 302 300 299 298 299 298 298
290 289 283 285 293 294 292 289 289 281 278 278 276 279 289 288 292 293 294 295 295 295 295 295 297 299 300 301 302 302 303 304 304 304 303 301 301 300 300 298 298 299 298 298
292 285 280 282 287 291 289 290 290 287 284 275 275 279 289 287 291 294 294 294 295 296 296 296 297 298 299 300 301 301 302 303 301 301 301 300 298 299 299 299 298 298 297 297
293 285 282 277 281 287 285 289 290 288 281 279 277 280 286 287 289 292 293 293 294 296 296 296 296 297 298 300 300 301 301 301 300 299 299 298 297 298 298 298 297 297 295 294
289 278 283 285 287 287 286 287 288 286 286 280 283 284 289 289 290 289 291 293 293 294 296 296 297 296 297 298 299 300 300 299 299 298 297 297 297 297 296 295 294 295 294 294
286 280 276 278 285 286 284 288 289 289 289 288 287 286 292 294 292 291 292 294 293 293 295 298 298 297 297 297 299 299 298 298 298 296 296 296 296 295 294 293 293 292 292 292
278 276 271 271 282 284 279 284 287 288 290 290 285 290 295 294 295 294 293 293 293 294 294 294 297 298 297 298 299 299 298 297 296 296 295 295 295 294 293 292 292 290 289 289
278 275 276 270 281 275 286 289 291 289 290 292 292 292 294 295 296 295 293 292 293 293 294 294 294 295 299 299 299 299 297 297 296 295 295 295 294 293 292 291 290 289 288 288
281 278 273 274 277 282 284 285 287 286 287 290 290 292 294 293 291 290 294 294 293 294 295 296 296 296 297 299 300 298 297 296 295 294 294 294 294 292 290 289 288 286 286 285
283 284 279 278 276 275 282 287 289 289 281 292 290 290 290 290 285 288 293 294 294 295 296 295 295 295 295 298 299 298 296 295 295 294 294 294 294 292 290 288 287 288 287 286
278 277 273 273 272 280 287 288 289 277 279 292 293 293 293 290 291 294 293 294 294 294 294 295 295 295 296 297 298 297 295 295 296 294 294 294 293 291 289 288 288 285 288 287
280 276 275 279 274 274 290 289 282 285 289 292 293 294 293 293 293 292 293 293 293 293 293 294 293 293 294 296 297 295 294 294 294 294 294 293 292 291 289 288 286 287 288 287
280 282 282 282 280 289 291 289 290 291 290 290 291 297 295 293 293 294 293 292 292 292 293 293 292 291 292 294 295 293 291 293 293 292 292 291 289 289 287 286 285 287 287 286
278 282 280 282 285 287 288 292 292 292 291 293 294 292 296 293 294 293 293 292 292 292 292 292 292 291 291 292 294 293 294 293 293 291 290 289 288 287 287 287 288 287 286 286
279 279 278 279 281 284 286 286 290 292 292 292 294 294 293 297 295 294 294 295 293 292 292 292 292 291 290 291 291 292 292 292 291 290 289 288 288 288 287 288 288 287 288 288
279 278 276 276 281 281 282 285 288 290 292 293 293 293 295 297 297 297 294 293 292 293 292 291 290 290 290 290 290 290 291 291 290 288 288 290 290 289 288 287 287 291 291 291

GFSCGP_sfc_thetae_099.txt.gz
Theta_e
293 288 288 286 290 290 291 291 290 294 299 297 295 296 300 304 302 300 300 300 302 304 309 313 318 325 328 331 333 332 333 334 336 334 334 333 333 332 332 332 334 334 333 332
287 284 291 295 294 292 290 289 287 294 299 296 296 295 299 301 302 301 300 299 301 302 304 308 310 315 324 328 330 331 333 332 335 336 335 334 333 333 334 334 334 335 334 334
282 288 295 294 291 289 287 285 286 290 296 297 294 292 294 299 303 303 303 300 301 303 304 304 307 308 316 323 328 331 333 332 333 332 331 328 330 329 329 330 331 334 335 335
287 293 292 291 290 291 285 292 291 293 290 284 293 282 286 296 298 301 302 298 300 301 301 303 305 306 307 317 326 329 331 332 333 331 330 329 330 328 331 329 329 330 332 331
284 289 289 289 290 292 289 294 293 293 288 286 288 282 286 290 292 295 300 297 298 301 302 302 304 307 307 307 319 323 326 328 328 329 329 328 327 328 325 325 326 327 326 328
288 294 292 291 294 294 294 291 291 291 288 282 284 285 284 286 290 291 295 297 298 301 302 302 303 305 305 302 313 319 323 324 325 325 326 326 326 322 321 320 322 320 319 320
283 286 292 294 288 292 292 286 281 279 280 276 283 284 285 291 291 292 294 296 296 299 301 301 301 302 302 302 305 313 318 321 322 322 324 324 322 321 320 319 318 316 315 316
276 274 287 293 289 286 287 287 278 274 275 277 285 281 285 292 292 294 294 294 295 295 296 299 300 303 302 302 303 308 312 315 317 317 320 319 321 318 316 316 316 316 314 313
279 279 289 292 293 292 287 281 289 283 277 274 281 282 287 291 291 290 291 293 293 293 295 297 299 301 302 301 304 306 308 309 308 308 309 309 311 310 311 310 311 312 312 311
284 277 287 291 295 294 289 291 283 282 276 273 276 277 280 285 289 290 290 292 292 293 296 298 297 299 300 301 303 304 305 305 304 304 305 306 306 307 306 306 305 305 305 304
287 285 283 289 287 285 287 284 286 285 283 274 273 276 284 286 288 290 292 292 291 293 294 296 298 298 299 301 302 302 303 303 303 303 302 301 301 301 301 300 299 298 299 299
288 286 281 282 291 294 292 289 288 282 278 276 273 277 287 287 289 290 291 293 293 294 294 294 297 298 299 300 301 302 302 303 303 302 301 300 299 298 298 298 299 299 298 297
289 283 277 277 287 291 289 289 290 287 284 276 275 278 288 288 291 292 293 293 294 294 294 295 296 296 298 299 300 300 301 302 301 300 299 298 297 297 296 296 296 297 297 296
291 284 279 274 280 285 284 288 290 287 280 278 279 280 285 288 290 292 292 293 294 295 295 295 295 296 296 298 299 299 299 300 299 299 298 297 297 297 297 298 297 297 296 296
288 280 283 283 285 286 285 286 288 285 286 280 281 283 287 288 289 291 291 291 292 293 295 296 296 295 295 297 298 298 299 299 299 298 297 297 297 297 296 295 294 294 293 292
284 272 279 272 282 284 283 286 287 288 288 288 285 284 291 293 289 289 292 293 293 293 293 294 296 296 296 296 297 299 298 298 298 297 297 297 296 295 294 293 292 291 291 290
278 277 276 269 278 278 275 283 285 287 289 289 285 289 294 294 294 292 293 292 293 293 294 294 294 296 296 296 298 298 298 297 296 296 296 295 295 293 292 292 291 290 289 289
277 275 278 270 279 271 283 289 288 287 289 291 290 291 293 295 297 297 295 293 293 293 293 293 293 293 294 297 297 298 298 296 296 295 295 294 294 292 291 290 290 288 287 287
279 276 273 273 274 278 283 284 285 286 286 289 289 291 293 295 292 291 294 293 292 293 294 294 295 295 294 294 297 297 296 295 295 295 295 294 294 292 290 289 288 286 286 285
282 282 279 277 272 272 280 286 288 288 281 288 289 289 289 290 285 288 293 293 293 293 294 294 294 294 295 295 296 296 295 295 295 296 295 294 294 292 290 289 287 288 288 286
278 278 273 271 270 277 286 289 289 277 278 288 290 293 290 288 289 292 293 293 293 293 293 294 294 294 295 296 296 295 295 295 297 295 294 294 293 292 290 287 288 287 287 287
276 277 277 276 273 271 288 287 282 286 289 289 290 292 294 294 292 292 293 292 292 292 293 293 292 292 292 294 295 293 294 294 294 294 293 292 291 291 289 289 287 285 285 287
277 281 279 278 278 287 287 287 289 290 289 289 290 292 292 294 293 294 293 291 292 291 292 292 291 290 291 292 294 292 291 293 293 292 291 291 290 290 289 287 285 285 287 288
277 281 281 281 282 283 286 289 292 293 291 291 291 292 292 291 294 293 293 292 291 291 291 291 291 290 289 290 291 292 292 295 294 293 289 289 288 288 287 286 286 286 287 287
278 278 277 278 279 283 285 284 284 286 290 292 293 292 292 292 295 293 293 293 292 291 291 291 290 289 289 290 289 290 293 294 293 291 290 289 289 287 285 286 287 287 289 289
278 278 276 275 280 280 281 283 287 286 288 291 293 292 293 293 295 294 294 293 292 291 291 290 289 290 289 290 290 290 291 292 291 290 288 287 287 288 289 288 288 292 292 292

GFSCGP_sfc_thetae_102.txt.gz
Theta_e
294 291 289 290 289 290 291 290 289 292 298 294 293 294 297 300 299 299 299 300 300 304 310 318 325 328 329 331 333 334 336 336 338 333 331 331 332 331 330 330 331 331 330 329
287 286 293 294 293 291 290 289 288 294 298 296 294 292 299 299 298 299 300 300 300 301 304 306 313 322 326 329 331 332 334 335 336 336 336 335 335 333 333 332 331 331 330 330
283 287 295 293 289 288 286 285 287 290 296 296 293 291 294 299 299 301 302 302 301 301 302 304 306 311 320 325 327 330 332 333 334 334 333 330 331 330 330 331 331 332 332 333
286 292 291 289 289 288 283 290 291 292 290 284 293 282 290 295 297 299 300 299 301 300 301 302 304 307 308 318 326 330 331 331 332 331 331 328 329 328 330 329 330 331 331 331
283 287 287 287 289 291 287 293 291 292 287 285 287 283 286 293 293 297 299 300 299 300 301 302 302 305 309 309 317 324 328 328 329 328 330 328 327 328 325 326 327 326 327 327
286 291 290 289 293 292 293 290 290 288 287 280 284 285 284 287 291 295 299 298 299 300 300 302 303 303 305 305 311 320 324 326 327 326 327 327 327 325 321 320 322 323 323 323
282 284 289 293 287 291 290 285 280 279 280 276 282 283 287 291 291 292 294 294 296 297 298 299 300 301 303 302 304 314 319 321 323 324 326 327 326 324 322 320 320 319 318 318
275 274 285 291 288 285 285 284 277 273 274 274 283 280 285 291 293 294 294 293 292 293 294 296 300 302 302 302 301 305 312 316 319 322 323 324 325 324 322 319 316 319 316 314
278 278 287 290 292 290 286 280 287 278 276 272 278 282 286 290 290 291 291 292 291 292 295 295 298 299 301 301 302 303 307 309 313 315 319 317 317 316 316 314 313 312 311 311
283 276 284 290 293 292 290 290 282 284 276 274 275 276 280 284 287 289 291 290 291 292 295 298 297 297 298 299 301 303 306 308 308 307 309 308 308 309 308 308 308 308 306 305
287 285 280 287 284 284 288 287 286 285 281 274 273 276 283 285 288 289 291 291 291 292 294 297 298 297 298 299 301 302 304 304 303 304 303 303 304 304 304 304 304 304 304 303
287 286 278 281 288 293 292 288 287 281 277 276 273 277 285 286 288 290 290 293 293 293 293 294 296 298 298 299 299 301 301 302 302 302 301 300 300 299 298 298 297 298 297 298
287 280 275 274 285 289 288 289 289 287 282 273 273 277 287 286 289 290 291 292 293 294 293 294 295 295 297 298 298 299 300 300 300 300 299 298 297 297 296 295 295 296 295 295
290 281 274 271 274 283 279 285 286 287 281 277 279 278 284 287 289 291 292 292 293 294 295 295 294 295 295 296 298 298 298 299 299 299 298 297 296 296 295 295 295 295 295 294
284 270 278 282 282 284 284 284 284 284 286 279 279 282 286 287 287 289 291 292 292 292 293 295 296 295 295 296 296 297 298 298 298 297 297 296 296 296 295 295 295 295 294 293
282 269 276 271 279 280 280 284 285 286 285 287 286 283 289 292 287 289 290 291 291 292 293 293 293 295 295 295 296 298 298 297 297 297 297 296 296 295 294 293 292 291 291 290
277 277 271 270 277 281 273 281 284 285 288 288 284 289 294 293 292 292 292 292 292 294 294 294 294 293 295 296 296 297 297 297 296 296 296 296 295 294 293 292 291 290 289 289
276 274 277 272 277 267 280 287 287 286 287 290 290 291 294 294 296 297 295 293 294 294 293 293 292 293 293 294 296 296 297 296 295 295 295 295 294 293 291 290 289 288 287 287
278 276 271 273 273 276 282 284 282 285 285 288 286 288 291 293 291 291 293 293 292 291 293 293 293 294 294 294 294 295 295 295 295 295 295 295 294 292 290 289 288 286 286 285
281 280 274 272 271 270 278 287 288 286 280 288 288 288 290 289 285 290 292 293 294 294 293 293 293 293 293 294 293 294 293 293 294 295 295 294 293 292 290 289 287 288 288 286
275 275 272 270 269 275 283 289 288 279 278 288 290 290 289 288 290 293 294 294 294 293 292 293 292 292 294 294 294 293 292 293 295 294 294 293 292 292 290 287 288 288 288 288
275 275 276 275 273 269 286 286 281 285 287 288 289 290 290 292 293 293 292 292 292 292 293 293 291 291 292 293 294 293 292 293 294 294 294 293 292 291 289 289 288 287 287 286
275 278 276 277 277 284 290 285 287 288 288 288 289 290 291 291 292 293 293 291 291 291 291 291 290 290 290 291 293 292 292 293 293 292 292 291 290 289 289 289 287 286 285 285
275 280 280 280 281 282 284 287 289 286 287 290 291 290 292 290 291 292 292 292 292 291 291 290 290 289 289 289 290 291 291 292 293 292 292 290 289 287 287 287 287 286 285 285
277 278 277 277 279 281 283 282 283 285 286 287 290 291 292 291 292 292 292 292 291 291 291 291 289 289 288 289 289 290 291 292 292 292 291 290 290 288 288 287 287 286 287 290
277 277 276 275 279 279 280 282 286 285 286 286 287 289 292 293 292 292 292 292 291 291 290 291 289 289 289 288 288 289 291 293 292 291 290 290 290 288 288 287 288 292 292 293

GFSCGP_sfc_thetae_105.txt.gz
Theta_e
295 292 289 291 291 291 292 290 288 291 294 294 292 294 297 300 301 302 302 303 305 309 316 324 328 330 328 329 329 329 331 337 336 333 332 332 333 333 333 335 336 335 336 335
289 288 293 295 293 291 292 290 289 293 296 294 292 292 297 300 300 302 302 303 304 304 308 314 323 328 329 331 332 335 333 336 336 335 334 335 333 334 335 337 336 336 335 335
285 289 295 293 291 289 289 289 289 290 295 297 293 290 294 298 300 301 303 304 304 305 305 306 312 321 327 328 331 332 334 334 332 334 332 331 333 332 332 334 332 332 334 334
288 293 291 291 290 290 287 292 292 293 291 285 293 283 290 294 297 299 302 303 304 304 305 305 308 311 318 326 330 331 332 333 334 334 332 326 327 327 331 332 333 334 333 333
286 289 288 288 289 291 288 294 293 293 288 288 289 285 289 292 293 296 299 303 304 304 305 306 306 308 312 315 325 330 330 332 333 334 332 331 328 331 332 331 331 330 332 333
287 292 291 290 293 293 294 291 290 290 288 282 286 285 285 289 293 296 299 302 302 304 304 305 307 307 308 311 313 323 328 329 331 331 331 330 329 329 327 328 327 328 328 328
282 285 290 293 289 292 292 287 280 280 280 278 283 284 287 292 294 295 297 299 301 303 304 304 305 305 307 308 309 317 324 326 328 328 329 330 329 327 327 325 326 324 323 321
277 273 285 292 290 288 288 286 279 273 276 278 285 282 287 294 296 296 297 297 296 299 300 301 303 305 306 307 307 311 319 323 326 327 328 330 330 329 328 325 324 324 322 321
279 278 287 290 292 292 287 285 288 279 278 277 281 284 288 291 291 292 293 294 295 297 298 298 298 302 305 306 307 307 311 316 321 324 325 325 325 325 325 323 322 322 321 318
283 277 285 290 293 293 290 291 284 285 275 274 277 278 282 286 288 291 293 294 294 296 298 300 299 299 302 304 305 306 308 313 317 319 322 320 319 319 319 318 318 317 315 313
287 284 281 286 285 284 288 287 287 286 283 277 274 279 285 287 288 289 290 294 295 295 296 299 299 299 301 303 304 306 308 310 311 312 312 312 311 312 312 313 313 312 310 309
287 285 278 280 289 292 290 287 286 282 279 278 277 280 287 288 290 291 291 294 295 296 296 297 299 300 301 302 303 305 307 308 308 308 307 307 307 307 307 307 307 307 305 303
288 279 269 274 281 288 285 285 285 285 283 275 277 280 288 290 291 291 293 294 295 296 296 296 297 298 300 301 302 303 304 305 305 305 304 304 304 304 303 302 302 302 301 300
289 279 274 271 272 282 279 283 286 283 282 279 279 282 286 287 290 292 293 294 295 296 297 297 297 297 298 300 302 302 303 304 303 302 302 301 301 301 300 299 299 299 299 299
282 270 277 280 280 282 282 282 283 278 282 282 282 282 287 289 289 292 294 293 294 294 295 295 297 297 297 298 299 301 301 302 302 301 301 300 299 299 298 298 298 298 298 297
281 270 272 269 279 279 279 281 282 283 284 284 285 285 291 293 292 291 292 294 294 294 296 296 295 296 297 298 299 300 300 301 301 300 300 299 298 298 298 297 297 296 295 295
277 274 270 269 277 278 273 282 283 284 286 287 281 289 294 292 293 293 294 293 294 295 296 296 296 295 295 297 299 299 300 300 300 300 299 298 298 297 297 296 295 294 293 293
276 274 278 273 273 266 282 286 288 286 286 287 289 290 291 292 295 296 296 295 295 295 295 295 294 295 297 297 297 298 299 299 299 298 298 298 297 296 295 294 293 292 292 292
277 276 272 272 273 275 281 284 283 283 285 288 287 289 291 292 291 293 295 294 294 294 295 295 296 296 296 296 296 296 297 298 298 298 298 298 297 295 294 293 291 290 288 287
281 279 272 271 269 270 279 286 288 286 280 289 289 288 289 290 287 290 293 295 295 295 295 294 295 296 295 296 296 295 295 296 297 298 298 297 297 295 294 292 290 290 290 288
276 276 271 271 270 274 281 287 288 279 280 288 290 290 290 288 291 294 295 295 295 295 294 295 294 293 294 294 295 294 295 294 297 297 297 296 296 294 293 290 290 289 290 289
274 271 272 275 273 269 286 285 282 285 288 289 289 290 290 291 292 293 294 294 294 293 294 294 293 292 292 293 293 294 294 295 296 296 295 295 294 293 291 290 290 290 290 289
274 277 276 277 277 282 288 286 288 288 288 288 288 291 291 291 292 292 292 293 293 292 292 292 291 291 291 291 292 293 294 294 294 295 294 294 293 292 291 290 289 289 289 289
276 280 280 280 281 283 284 288 289 285 285 286 288 289 290 290 292 292 293 292 292 292 291 291 291 290 290 290 291 291 293 294 294 294 293 292 291 290 291 290 289 289 289 289
277 279 278 278 279 280 284 284 284 285 286 286 287 287 289 290 291 292 292 293 292 292 292 291 290 290 289 290 290 291 293 294 293 292 292 292 292 290 289 290 289 290 291 291
277 277 277 276 279 279 280 282 285 285 285 285 285 286 288 290 291 294 293 293 292 292 291 291 290 290 289 289 290 292 293 294 293 292 291 291 291 290 290 289 288 292 292 293

GFSCGP_sfc_thetae_108.txt.gz
Theta_e
297 297 291 293 296 296 295 293 291 293 296 294 292 292 298 303 307 307 308 310 313 318 322 325 327 327 329 331 330 331 336 340 339 338 336 336 334 335 334 335 336 338 339 341
295 293 296 297 297 295 295 293 292 295 296 295 294 292 298 301 306 307 305 307 311 313 318 324 326 326 327 327 329 329 333 337 338 338 337 338 338 339 339 338 338 339 339 340
292 294 297 296 294 293 294 293 292 292 295 296 295 294 295 300 305 307 306 308 308 311 317 322 325 326 326 327 329 331 332 336 337 338 336 332 332 334 335 338 339 340 339 340
293 296 294 294 293 294 290 295 295 294 292 287 295 289 294 297 302 305 308 308 308 308 309 315 320 325 324 327 331 331 331 335 335 334 331 327 325 324 333 335 338 336 337 336
290 292 292 291 292 295 292 297 295 295 291 290 290 288 295 298 295 301 307 308 310 310 310 310 311 317 327 329 328 332 330 331 331 332 330 329 326 326 329 331 330 330 331 334
292 295 295 294 296 296 297 296 295 295 292 284 289 288 290 295 299 301 305 307 310 311 311 311 312 313 315 323 329 332 331 330 331 330 332 332 328 326 326 328 327 328 329 332
288 289 293 296 293 296 295 292 284 282 282 282 288 288 291 296 299 300 301 305 307 310 311 310 310 310 311 314 318 326 331 330 331 332 332 332 331 328 327 328 328 329 329 327
283 281 289 294 293 291 292 291 285 277 279 283 287 285 291 298 300 302 301 303 303 304 309 310 310 312 312 314 315 318 323 329 333 332 331 333 332 332 331 331 331 330 328 327
284 282 291 292 295 294 289 287 292 285 284 284 287 289 294 296 296 298 299 299 301 302 306 307 307 310 312 313 315 316 319 323 329 331 329 330 332 332 331 331 331 329 328 327
288 282 289 292 295 295 292 293 285 287 279 277 282 284 286 291 292 295 297 298 300 301 304 305 305 305 307 309 313 314 316 320 325 329 329 328 329 330 330 330 328 326 324 322
291 287 286 289 288 286 289 287 288 286 286 281 280 284 290 291 293 295 296 298 300 302 304 305 305 305 305 307 310 311 313 316 321 326 325 324 324 325 324 325 321 319 317 316
292 288 282 284 290 293 291 287 287 283 281 283 283 284 293 294 295 295 296 298 300 301 302 305 305 306 305 308 309 311 313 315 318 321 322 322 320 319 319 319 316 315 314 313
290 285 279 279 286 289 286 287 287 286 286 283 282 285 294 297 296 297 298 299 300 300 301 303 305 307 307 307 308 310 312 313 314 314 315 314 314 315 316 315 313 312 309 306
291 285 281 277 280 284 282 284 286 285 281 282 285 286 290 293 294 297 298 299 300 301 301 302 303 304 306 308 308 309 310 312 311 311 311 311 311 312 312 311 310 307 304 303
287 280 281 282 283 283 282 282 283 282 284 281 285 285 291 294 295 295 298 298 299 300 301 301 302 303 304 306 307 308 308 309 309 308 308 308 309 309 307 307 307 306 305 304
285 280 278 277 282 283 280 283 284 285 285 285 285 286 293 297 298 298 297 297 298 299 301 302 301 301 302 303 305 306 307 308 308 308 307 306 305 305 304 304 304 303 303 303
282 281 279 278 281 281 279 285 286 287 288 287 283 290 295 294 296 297 298 300 300 300 301 301 301 300 301 302 303 305 306 307 307 307 306 305 304 303 303 302 302 301 301 301
281 280 281 280 280 275 285 290 291 287 287 288 289 290 292 294 296 297 300 300 300 301 301 300 300 301 301 302 302 303 304 306 306 307 306 305 304 303 302 301 301 301 301 300
285 283 280 278 278 281 285 288 287 286 286 289 287 290 292 295 295 295 298 299 298 299 300 301 301 300 301 301 301 301 302 304 305 305 306 305 304 303 302 301 300 299 295 295
285 285 282 279 274 275 286 289 292 291 284 290 290 290 291 294 290 293 297 298 298 299 300 300 301 301 301 301 301 301 301 301 302 304 305 305 304 303 301 301 299 297 294 291
279 280 278 279 278 280 286 290 292 282 284 291 292 291 291 290 291 294 297 297 297 297 298 299 300 299 300 300 300 300 301 301 302 303 304 303 303 302 301 295 296 293 292 293
280 279 279 279 277 276 289 290 286 290 292 292 293 292 292 292 294 296 296 297 297 296 296 297 297 298 298 298 298 299 300 302 302 302 302 302 302 299 298 297 294 294 294 293
280 284 284 283 284 288 293 292 293 293 292 291 290 291 292 292 293 294 296 297 297 296 296 297 296 295 296 296 296 297 299 299 300 300 301 301 301 299 298 295 292 292 293 293
284 286 285 285 288 288 290 293 294 291 289 290 290 290 291 291 293 293 294 297 297 296 295 296 296 296 296 295 295 296 298 299 299 300 300 300 299 298 297 295 293 293 292 295
286 286 286 286 288 287 289 291 291 288 290 290 290 290 290 290 292 293 294 295 297 295 295 295 295 294 294 295 295 296 297 299 299 299 298 297 297 295 293 294 293 293 294 296
285 286 285 285 288 287 288 289 289 288 288 289 289 289 291 291 291 293 295 295 295 294 293 293 293 292 293 294 294 294 294 297 298 296 294 294 293 292 291 291 290 293 293 294

GFSCGP_sfc_thetae_111.txt.gz
Theta_e
299 294 292 294 296 297 295 294 292 294 298 295 296 297 298 302 308 310 314 317 319 319 323 324 326 327 327 329 331 336 336 336 336 337 334 333 330 332 335 339 342 340 339 338
296 291 298 298 298 297 296 294 293 296 297 296 297 296 301 302 307 310 312 316 318 318 320 323 325 326 327 327 328 328 332 335 336 337 337 338 336 337 336 336 337 338 338 340
293 295 299 296 295 293 295 294 293 293 296 298 296 295 298 302 308 309 311 315 318 318 318 320 322 325 325 325 327 327 328 332 335 337 336 336 337 337 336 338 338 339 339 341
294 298 295 295 293 295 290 297 296 294 293 289 296 288 297 299 304 307 308 310 312 316 319 320 322 324 323 322 324 327 327 329 336 336 333 331 329 329 334 336 338 338 338 339
292 293 293 292 293 296 292 298 296 295 293 292 292 289 295 301 300 304 308 309 310 313 317 319 323 325 324 322 323 327 327 328 330 332 331 331 329 331 334 333 331 331 331 336
293 297 295 295 297 297 298 296 295 295 292 285 290 289 292 296 300 303 308 310 310 310 311 314 321 326 324 327 329 327 326 327 329 329 330 330 329 327 328 327 327 327 328 329
290 290 294 297 293 297 296 292 284 282 284 283 290 288 291 297 300 304 306 309 311 311 311 311 311 313 319 323 326 326 327 326 327 327 326 328 329 327 326 324 324 325 326 327
284 283 290 294 293 291 292 291 284 278 280 284 290 285 291 299 301 303 303 306 308 310 312 311 312 312 314 318 322 326 327 326 327 326 327 329 329 328 325 325 325 325 326 327
284 284 292 294 296 294 290 288 293 286 287 283 287 290 294 297 298 300 301 301 303 304 306 312 313 313 313 314 317 321 325 327 328 328 328 329 329 327 327 327 328 328 330 329
290 283 290 292 295 295 292 293 285 287 278 277 284 284 286 291 294 297 298 300 302 303 306 309 308 309 312 314 316 318 320 323 329 331 331 331 330 331 331 331 330 329 329 326
292 287 287 290 288 287 288 286 287 285 285 280 279 282 292 293 295 296 297 300 302 304 306 307 307 307 306 309 313 315 317 320 323 330 330 328 330 330 330 328 327 326 323 321
293 288 283 284 290 293 291 287 287 283 281 285 284 283 297 297 296 297 298 300 302 303 304 307 307 307 307 307 309 312 314 316 321 326 327 326 326 325 324 324 321 320 318 317
291 286 280 282 287 290 286 288 288 287 286 284 281 283 297 297 297 299 299 300 301 302 303 305 307 307 307 308 310 311 313 315 320 323 324 324 322 322 322 320 317 317 315 312
292 286 282 278 280 285 282 284 286 285 282 282 285 286 293 295 295 297 299 300 301 301 302 303 304 306 308 309 310 311 313 314 315 317 316 317 317 318 318 316 315 312 310 306
289 281 283 283 284 284 283 283 284 283 284 281 285 285 291 294 296 298 299 301 301 301 302 302 302 304 306 308 309 310 311 312 312 312 312 312 313 314 313 313 310 308 307 305
288 282 281 279 284 284 281 283 284 285 286 286 287 287 295 297 299 299 299 299 300 301 302 303 303 303 304 305 306 308 309 309 310 309 309 309 309 308 309 309 309 306 304 303
284 283 281 279 284 282 280 285 286 288 289 288 284 290 294 294 295 296 298 300 300 301 302 302 301 302 302 303 304 305 307 309 309 309 308 307 306 306 305 305 305 304 303 303
283 282 283 282 282 277 286 291 291 288 288 289 290 290 293 295 297 297 299 299 299 300 300 301 302 302 303 303 304 304 305 307 308 308 307 306 306 305 304 303 303 302 302 302
287 285 282 280 280 283 286 288 288 287 287 290 289 292 294 297 297 296 298 299 299 300 300 301 302 302 303 303 303 303 303 304 306 306 307 307 305 304 303 302 302 302 297 297
286 286 283 282 277 276 287 291 293 292 284 292 291 291 292 295 290 292 296 299 299 301 301 301 302 302 303 303 303 302 302 302 303 304 307 307 306 305 302 302 301 300 296 293
281 282 280 281 280 282 291 292 294 282 285 293 293 292 293 291 293 295 298 298 299 298 300 300 301 301 301 301 301 301 302 302 304 305 306 307 306 305 304 300 300 297 294 295
282 280 281 282 279 278 292 291 287 291 294 294 294 293 292 294 295 295 297 298 299 297 297 298 298 299 300 300 300 300 301 303 303 303 303 304 305 303 301 300 297 296 296 294
281 286 285 285 286 291 294 294 295 295 294 294 292 292 292 292 293 294 294 297 299 298 298 298 298 297 298 298 298 297 299 301 301 302 302 303 303 302 300 298 296 295 295 296
287 290 285 286 290 290 293 295 295 295 293 292 292 291 292 290 292 292 294 295 298 299 297 297 297 297 297 297 297 297 298 300 300 301 301 302 302 300 300 298 295 296 295 296
288 288 287 287 290 290 291 293 294 292 291 291 292 291 291 291 291 292 293 294 297 298 297 297 296 295 295 296 296 296 297 299 299 300 300 300 300 299 298 297 295 296 296 297
288 287 286 286 292 291 291 293 292 290 290 291 290 290 291 292 292 292 292 295 297 295 295 295 294 294 295 295 295 295 296 297 298 297 298 297 296 294 293 293 291 294 294 295

GFSCGP_sfc_thetae_114.txt.gz
Theta_e
300 294 290 293 295 294 294 291 290 293 297 295 293 293 296 302 302 304 306 309 314 317 319 319 320 321 322 324 323 324 325 331 328 329 330 332 331 333 334 335 336 333 333 332
295 289 296 298 297 294 293 291 292 295 297 293 293 293 297 301 301 305 307 309 314 316 317 319 321 322 323 325 325 329 329 331 330 330 328 327 328 332 336 337 337 337 335 335
290 293 299 296 294 292 292 291 292 291 296 295 293 291 293 301 302 306 308 311 313 316 317 319 320 321 324 324 323 326 327 330 332 333 333 332 332 331 330 330 330 332 335 335
292 297 294 293 292 293 288 295 294 293 291 286 293 281 294 298 298 303 304 309 313 316 318 319 320 321 322 322 324 326 325 327 330 334 332 330 329 328 330 332 332 333 335 335
289 292 291 290 292 294 290 296 293 292 290 288 289 282 292 298 297 300 303 306 310 315 317 316 318 322 322 322 322 323 324 326 327 328 328 326 325 326 331 331 329 327 328 332
291 295 293 293 294 295 296 292 292 291 290 278 287 285 286 293 297 301 304 306 308 312 315 317 317 323 321 320 320 323 323 323 326 326 327 326 324 325 325 325 325 325 325 326
289 289 293 296 290 294 293 287 277 275 274 275 287 284 286 294 298 302 302 305 307 310 310 312 317 321 320 318 320 323 323 322 326 325 326 326 325 325 324 323 323 323 323 323
279 276 288 292 290 288 288 287 281 277 278 281 287 283 285 294 297 302 304 303 307 307 307 310 311 314 319 321 322 324 323 321 323 325 325 325 326 325 324 323 323 323 321 322
281 280 291 293 292 292 287 282 290 284 284 279 283 285 290 294 294 296 298 301 300 300 305 308 309 310 313 316 321 324 323 322 324 325 325 325 325 326 324 323 323 323 323 324
288 279 289 291 293 294 290 292 282 283 272 274 279 279 283 288 290 294 295 295 298 303 304 304 305 306 308 311 315 320 324 324 325 326 325 325 325 327 326 325 323 323 324 324
290 286 283 289 285 284 287 283 285 284 282 278 277 280 289 289 290 292 294 296 298 300 303 303 303 303 302 304 311 314 319 320 321 325 326 325 325 326 326 325 323 324 325 324
290 285 276 282 290 291 289 286 283 278 276 281 282 281 293 292 293 295 295 296 297 299 302 303 303 302 303 304 306 309 310 314 317 323 324 324 324 323 323 324 324 323 321 320
288 281 271 276 285 287 285 286 286 283 283 276 278 281 295 292 293 295 295 295 296 298 298 301 303 303 304 305 304 307 309 313 318 321 320 322 322 321 320 317 317 317 315 313
291 281 276 270 275 281 278 282 284 281 277 274 281 284 288 291 292 293 295 296 296 297 298 298 299 302 303 304 306 307 309 312 314 316 316 316 316 317 317 315 315 313 309 307
286 273 280 282 283 283 281 281 283 274 280 273 280 281 288 291 292 293 294 296 298 298 298 297 297 298 301 303 304 305 307 308 309 311 312 311 312 312 311 309 309 307 305 304
285 275 275 272 283 283 279 283 283 284 284 284 285 285 292 294 295 293 295 296 297 297 299 298 298 298 298 299 302 305 305 305 307 306 307 309 308 307 307 306 304 304 302 301
281 276 274 273 280 278 273 283 285 287 288 287 283 286 291 291 293 294 293 295 296 296 297 297 298 298 297 298 299 300 303 305 305 305 304 304 304 303 303 303 302 301 300 301
280 277 278 273 275 268 283 290 290 287 288 288 288 289 292 293 295 295 295 294 294 296 296 297 297 297 298 299 299 299 302 304 304 304 303 303 303 302 301 300 299 299 299 299
284 280 275 272 273 279 283 286 287 285 284 289 287 289 291 294 295 293 295 296 295 296 296 297 298 299 298 298 299 299 299 300 302 303 303 303 302 301 300 299 298 297 294 293
284 283 276 276 272 272 284 289 292 290 279 290 290 289 289 291 288 290 295 296 296 296 298 297 297 298 298 298 299 298 298 299 298 300 302 303 302 300 298 298 297 295 295 292
274 275 273 275 273 279 288 290 291 277 281 291 292 290 290 288 291 292 297 296 297 295 297 297 296 296 296 297 297 296 297 297 300 301 300 303 302 300 298 296 295 292 292 293
278 274 274 276 273 271 289 288 283 287 290 292 291 290 291 291 291 291 292 294 297 295 295 296 294 295 297 296 295 295 295 297 298 299 299 299 300 300 298 295 293 292 291 291
276 281 280 280 280 288 291 289 291 292 290 291 289 290 289 289 289 290 291 290 295 297 294 295 294 294 294 295 294 293 293 296 297 297 297 298 300 298 296 293 292 291 291 291
282 285 280 282 285 287 290 291 292 292 289 289 289 288 288 287 289 289 289 290 292 297 294 295 294 293 292 293 294 293 295 296 296 296 296 297 300 298 297 295 293 292 292 292
282 284 282 282 285 286 288 289 291 290 290 289 289 288 288 288 288 289 289 290 291 294 296 295 293 291 291 292 292 292 293 294 295 297 298 298 299 298 296 295 294 292 293 295
284 282 281 280 287 286 286 289 291 289 288 288 287 287 288 289 289 290 289 289 292 292 293 294 294 293 293 293 291 291 291 293 293 293 295 295 294 293 293 293 292 294 295 296

GFSCGP_sfc_thetae_117.txt.gz
Theta_e
296 291 287 291 294 293 292 290 289 293 297 295 294 293 295 297 301 300 302 304 308 315 319 319 320 321 321 322 321 323 325 328 331 328 327 324 324 325 324 324 325 326 326 327
294 286 293 296 296 293 292 290 290 295 297 294 292 291 295 298 300 300 302 303 312 314 316 318 319 321 321 320 322 323 325 329 330 331 330 327 327 328 329 328 328 328 329 330
287 290 297 294 291 290 289 289 290 290 294 294 292 289 292 297 301 304 304 310 313 313 315 318 319 320 322 323 324 326 324 329 329 331 330 329 332 332 330 331 330 331 331 331
289 295 293 291 289 291 285 293 292 290 287 282 292 281 292 296 299 302 303 309 312 313 316 318 319 321 322 323 325 324 328 328 330 330 329 327 326 325 328 330 332 333 333 333
285 289 288 287 290 292 288 293 290 290 287 284 286 284 288 298 296 300 302 308 311 315 317 317 319 321 322 321 321 323 325 328 327 327 328 327 325 326 329 331 329 330 331 332
289 293 291 290 292 293 294 290 289 288 287 275 284 285 286 289 295 299 301 305 310 314 315 316 319 320 320 321 321 321 321 324 326 326 325 325 325 328 327 325 324 325 326 329
285 287 290 293 287 292 291 285 272 274 271 274 285 283 284 291 299 299 299 301 308 311 315 314 317 317 316 318 319 321 320 321 324 325 325 324 323 324 324 325 326 323 322 322
274 274 287 291 288 285 286 286 280 275 277 277 286 278 284 291 296 301 303 302 305 307 311 313 315 318 318 317 318 321 319 320 323 324 324 324 324 323 323 322 323 322 322 323
277 278 290 291 292 291 285 280 289 283 284 280 280 284 287 292 292 295 299 300 301 302 303 307 312 315 318 319 318 322 321 320 322 322 324 323 324 323 323 323 323 322 322 321
285 276 287 290 291 290 288 290 279 279 273 276 279 278 282 287 288 292 294 296 299 303 302 303 303 305 311 316 319 322 323 321 321 322 323 323 324 325 325 324 322 322 322 322
286 282 281 286 284 282 284 281 283 278 280 278 275 280 290 287 289 290 292 295 297 300 301 301 301 303 302 305 313 319 321 321 322 323 324 323 323 324 325 324 323 322 323 323
286 282 272 282 287 289 286 283 280 273 274 282 277 281 293 292 290 292 292 294 295 296 299 302 302 303 303 302 306 311 316 320 322 323 324 323 324 324 324 325 325 325 322 323
286 277 265 274 278 282 281 283 284 281 280 273 278 281 293 290 293 293 292 294 296 296 296 299 302 301 303 304 305 307 310 314 319 321 322 321 321 322 322 323 323 321 319 317
289 278 272 268 273 278 276 280 283 278 269 277 277 279 286 288 290 292 293 294 294 295 296 296 297 300 302 304 305 307 308 312 313 317 318 317 316 318 317 317 316 314 313 313
283 270 277 279 281 282 280 280 281 272 278 272 279 283 286 289 289 292 292 295 295 295 295 295 295 295 297 300 303 304 305 307 310 311 312 312 312 312 312 312 311 308 307 307
283 271 272 271 281 281 279 281 281 282 283 282 283 285 290 293 291 290 292 293 293 294 295 296 296 296 296 296 299 303 303 304 306 306 307 308 309 310 308 306 305 304 303 302
278 273 271 271 279 275 271 282 283 285 285 285 278 284 289 290 292 291 291 292 292 293 294 295 295 295 295 296 297 298 302 303 303 303 304 304 305 305 305 303 302 300 299 299
278 274 275 270 272 265 280 289 288 286 286 287 287 287 291 293 294 292 292 292 292 294 294 295 295 295 295 296 297 297 298 302 302 302 302 302 303 302 302 301 300 299 298 298
282 277 273 270 269 277 282 285 286 283 282 288 286 288 289 291 293 289 293 294 293 293 295 295 295 295 295 295 296 297 297 297 299 301 301 301 301 300 299 299 298 296 294 293
282 281 274 272 271 271 281 287 290 288 278 289 288 288 288 289 285 289 292 294 295 295 294 294 295 295 294 294 295 295 296 297 297 299 299 302 301 299 298 297 296 295 294 293
271 272 271 272 270 277 286 289 290 275 277 289 290 289 288 285 289 291 293 293 294 295 294 294 294 293 294 294 294 294 294 294 296 297 299 299 301 299 298 295 294 293 293 293
276 272 271 273 271 270 288 287 282 285 289 291 290 289 289 289 289 289 290 291 293 294 293 293 292 293 294 293 293 292 291 294 295 296 296 297 297 299 297 295 292 291 291 291
276 279 278 278 277 284 288 287 290 290 289 290 290 290 290 288 287 288 288 288 292 294 295 293 292 292 292 292 292 290 291 293 294 294 294 295 296 296 294 293 291 290 290 290
280 283 280 280 281 285 288 290 291 291 289 288 288 288 287 285 287 286 287 288 288 293 294 294 294 291 290 290 291 290 291 292 293 293 294 294 296 298 297 295 293 290 289 289
280 282 280 280 283 284 287 289 290 288 288 288 288 288 287 286 286 287 287 288 288 291 293 294 294 290 290 290 290 289 290 291 292 293 294 297 298 297 296 295 294 294 293 293
281 281 280 279 283 284 284 287 289 287 287 288 287 286 287 287 287 289 289 288 288 290 291 291 293 293 293 292 290 289 290 290 291 291 291 294 294 293 294 293 293 295 295 297

GFSCGP_sfc_thetae_120.txt.gz
Theta_e
295 289 287 289 294 291 290 289 287 291 298 295 293 293 295 299 299 298 301 305 308 310 317 317 319 320 320 322 323 325 325 327 329 326 326 326 327 327 326 326 328 328 328 327
293 286 292 295 295 293 292 288 287 293 297 294 293 291 296 300 296 300 302 304 307 314 316 316 317 318 319 321 321 323 325 326 329 326 326 329 327 327 326 326 326 326 325 326
284 289 295 293 289 288 288 287 288 287 291 291 291 288 292 298 302 304 305 307 310 312 313 315 316 318 319 319 320 322 324 328 329 328 326 327 327 327 325 324 324 325 326 327
287 294 291 288 286 289 282 291 291 288 285 279 289 281 288 293 296 302 302 307 310 313 315 316 317 318 320 320 322 324 324 327 330 329 326 325 324 323 326 325 326 326 327 328
282 287 287 286 288 290 286 291 289 288 284 282 285 284 286 291 292 296 300 303 311 314 315 316 317 320 322 323 322 322 324 328 328 329 328 325 324 325 327 326 325 327 328 329
287 292 289 289 291 291 292 288 287 286 283 279 283 286 282 285 294 296 298 301 310 313 315 317 319 321 320 320 319 320 323 327 328 329 328 326 324 324 325 326 326 328 329 330
283 286 289 291 286 290 289 282 275 272 272 279 284 283 284 290 297 299 297 300 302 311 314 315 317 317 318 318 318 318 320 322 325 327 328 326 325 324 322 325 326 327 327 328
274 273 285 290 287 284 285 284 278 271 271 279 285 280 284 292 297 299 301 301 302 302 312 314 315 316 315 317 319 319 319 321 324 323 322 324 324 323 323 323 323 326 327 327
277 278 288 289 290 289 284 280 288 283 285 274 281 284 288 292 292 294 297 300 300 302 302 309 313 316 317 316 318 319 318 320 322 323 323 323 323 323 323 323 323 322 322 322
282 275 285 288 289 288 286 288 279 278 269 273 279 281 283 287 288 291 292 294 298 301 302 301 301 305 314 316 318 320 320 319 321 322 322 322 321 323 323 322 321 321 321 321
284 279 279 285 282 280 281 280 281 280 279 269 268 280 290 289 290 289 292 294 295 298 300 302 303 304 303 305 313 318 321 320 320 321 321 321 321 322 323 322 322 322 321 321
285 280 272 281 286 285 284 280 279 273 272 278 273 280 292 291 293 291 292 294 295 296 297 300 303 304 305 305 307 309 318 321 320 321 321 321 321 321 321 322 322 322 322 322
285 275 265 272 277 281 280 281 282 278 275 275 270 276 291 291 293 294 291 292 294 295 295 296 298 301 303 306 307 309 312 315 319 321 322 321 320 320 321 322 323 324 323 322
288 276 270 267 271 277 276 280 281 277 269 271 274 276 285 287 291 292 290 291 292 294 294 295 295 296 299 302 304 304 306 310 315 317 319 320 320 320 318 318 317 318 320 320
281 269 276 278 280 281 280 280 280 272 277 271 277 279 283 286 286 288 291 292 292 293 294 294 294 294 295 297 300 302 303 305 309 311 312 311 315 317 316 313 311 311 311 312
281 271 271 271 281 281 279 280 280 280 281 281 281 282 286 289 287 288 290 291 291 292 293 294 294 294 295 294 295 298 301 303 305 306 306 308 310 310 308 308 306 305 304 304
278 272 270 271 278 275 270 280 280 283 284 283 277 283 286 288 291 289 289 291 291 292 293 293 293 293 293 294 295 295 297 302 302 303 303 304 306 306 305 305 304 302 301 301
277 273 274 269 271 264 277 287 286 285 285 286 285 286 288 290 292 290 290 289 291 292 293 294 293 293 294 294 295 295 297 297 300 301 301 302 302 302 302 302 301 300 299 299
280 276 272 269 268 275 280 284 284 283 281 286 285 287 289 290 289 288 291 291 290 291 292 293 294 294 293 293 294 295 296 296 297 297 298 300 300 300 299 299 299 298 295 294
281 278 273 272 270 270 278 284 289 286 277 287 287 287 287 288 285 286 289 292 292 293 293 293 293 294 293 293 293 293 293 293 294 295 297 298 300 299 298 297 296 295 295 294
270 271 270 270 270 276 281 288 289 274 275 288 288 288 287 285 286 289 291 291 291 293 292 292 291 291 292 292 293 292 292 291 293 295 296 297 297 298 297 295 294 293 293 293
275 272 270 272 270 270 287 286 280 283 287 289 289 289 288 288 288 288 288 288 291 291 292 292 291 291 291 292 291 290 290 292 293 294 294 295 295 296 297 294 292 292 291 291
275 278 276 277 277 282 288 286 288 289 289 289 289 290 290 289 288 287 287 286 287 290 292 292 291 290 290 290 290 289 289 291 292 292 293 293 294 295 294 292 290 289 289 289
279 281 279 280 279 283 287 289 289 289 289 289 289 288 288 286 286 286 286 286 287 288 291 292 291 290 289 289 290 288 289 290 291 291 292 293 295 298 297 296 294 292 292 291
280 281 279 279 281 282 285 287 289 290 288 287 287 287 287 286 286 286 286 286 287 287 290 291 291 290 289 289 289 288 289 289 290 291 291 294 296 294 295 296 295 294 294 294
280 281 279 279 283 283 282 285 289 287 287 287 286 286 286 286 286 287 287 287 287 287 289 290 290 290 291 292 290 289 289 289 289 290 292 291 293 293 293 294 294 296 295 296